<?xml version="1.0" encoding="UTF-8" standalone="no" ?>
<gpx xmlns="http://www.topografix.com/GPX/1/1" xmlns:xsi="http://www.w3.org/2001/XMLSchema-instance" xsi:schemaLocation="http://www.topografix.com/GPX/1/1 http://www.topografix.com/GPX/1/1/gpx.xsd" version="1.1" creator="VisuGPX - https://www.visugpx.com">
  <metadata>
    <name>Le Moure de l'Aigle Agnielles</name>
    <desc><![CDATA[Au depart du sentier des marmites du Diable avant le village de la Faurie monter vers les crêtes du Moure de l'Aigle puis descendre vers le village abandonné d'Agnielles Revenir vers la faurie en utilisant le sentier qui domine sur la rive droite les gorges d'Agnielles.]]></desc>
  </metadata>
  <trk>
    <name><![CDATA[Le Moure de l'Aigle Agnielles: 25 MAI 2017 08:25]]></name>
    <trkseg>
      <trkpt lat="44.56728" lon="5.74886">
        <ele>837.93</ele>
        <time>2017-05-25T06:25:06Z</time>
      </trkpt>
      <trkpt lat="44.56728" lon="5.74883">
        <ele>838.41</ele>
        <time>2017-05-25T06:25:08Z</time>
      </trkpt>
      <trkpt lat="44.56728" lon="5.74878">
        <ele>839.85</ele>
        <time>2017-05-25T06:25:11Z</time>
      </trkpt>
      <trkpt lat="44.56728" lon="5.74844">
        <ele>842.73</ele>
        <time>2017-05-25T06:25:30Z</time>
      </trkpt>
      <trkpt lat="44.56726" lon="5.74816">
        <ele>844.18</ele>
        <time>2017-05-25T06:25:45Z</time>
      </trkpt>
      <trkpt lat="44.56727" lon="5.74791">
        <ele>845.62</ele>
        <time>2017-05-25T06:26:02Z</time>
      </trkpt>
      <trkpt lat="44.56728" lon="5.74782">
        <ele>846.1</ele>
        <time>2017-05-25T06:26:08Z</time>
      </trkpt>
      <trkpt lat="44.56737" lon="5.74779">
        <ele>846.1</ele>
        <time>2017-05-25T06:26:21Z</time>
      </trkpt>
      <trkpt lat="44.56738" lon="5.74777">
        <ele>846.1</ele>
        <time>2017-05-25T06:26:34Z</time>
      </trkpt>
      <trkpt lat="44.56744" lon="5.74776">
        <ele>846.1</ele>
        <time>2017-05-25T06:26:50Z</time>
      </trkpt>
      <trkpt lat="44.56747" lon="5.74776">
        <ele>846.1</ele>
        <time>2017-05-25T06:27:03Z</time>
      </trkpt>
      <trkpt lat="44.56748" lon="5.74778">
        <ele>846.1</ele>
        <time>2017-05-25T06:27:24Z</time>
      </trkpt>
      <trkpt lat="44.56748" lon="5.74778">
        <ele>846.1</ele>
        <time>2017-05-25T06:27:40Z</time>
      </trkpt>
      <trkpt lat="44.56749" lon="5.7478">
        <ele>846.1</ele>
        <time>2017-05-25T06:27:56Z</time>
      </trkpt>
      <trkpt lat="44.56749" lon="5.7478">
        <ele>846.1</ele>
        <time>2017-05-25T06:28:18Z</time>
      </trkpt>
      <trkpt lat="44.56748" lon="5.74779">
        <ele>846.58</ele>
        <time>2017-05-25T06:28:49Z</time>
      </trkpt>
      <trkpt lat="44.56747" lon="5.74783">
        <ele>846.1</ele>
        <time>2017-05-25T06:29:22Z</time>
      </trkpt>
      <trkpt lat="44.56753" lon="5.74778">
        <ele>846.1</ele>
        <time>2017-05-25T06:29:47Z</time>
      </trkpt>
      <trkpt lat="44.56771" lon="5.74773">
        <ele>847.06</ele>
        <time>2017-05-25T06:30:04Z</time>
      </trkpt>
      <trkpt lat="44.56789" lon="5.74767">
        <ele>847.54</ele>
        <time>2017-05-25T06:30:20Z</time>
      </trkpt>
      <trkpt lat="44.56796" lon="5.74765">
        <ele>848.02</ele>
        <time>2017-05-25T06:30:36Z</time>
      </trkpt>
      <trkpt lat="44.56797" lon="5.74767">
        <ele>848.02</ele>
        <time>2017-05-25T06:31:04Z</time>
      </trkpt>
      <trkpt lat="44.56797" lon="5.74766">
        <ele>848.02</ele>
        <time>2017-05-25T06:31:30Z</time>
      </trkpt>
      <trkpt lat="44.56795" lon="5.74767">
        <ele>848.02</ele>
        <time>2017-05-25T06:31:53Z</time>
      </trkpt>
      <trkpt lat="44.56796" lon="5.74766">
        <ele>848.02</ele>
        <time>2017-05-25T06:32:23Z</time>
      </trkpt>
      <trkpt lat="44.56795" lon="5.74768">
        <ele>848.02</ele>
        <time>2017-05-25T06:32:49Z</time>
      </trkpt>
      <trkpt lat="44.56796" lon="5.74767">
        <ele>848.5</ele>
        <time>2017-05-25T06:33:13Z</time>
      </trkpt>
      <trkpt lat="44.56796" lon="5.74766">
        <ele>848.5</ele>
        <time>2017-05-25T06:33:35Z</time>
      </trkpt>
      <trkpt lat="44.56797" lon="5.74763">
        <ele>848.02</ele>
        <time>2017-05-25T06:33:57Z</time>
      </trkpt>
      <trkpt lat="44.56804" lon="5.74763">
        <ele>848.5</ele>
        <time>2017-05-25T06:34:13Z</time>
      </trkpt>
      <trkpt lat="44.56815" lon="5.74762">
        <ele>848.98</ele>
        <time>2017-05-25T06:34:25Z</time>
      </trkpt>
      <trkpt lat="44.56829" lon="5.74761">
        <ele>849.46</ele>
        <time>2017-05-25T06:34:40Z</time>
      </trkpt>
      <trkpt lat="44.56847" lon="5.74757">
        <ele>849.94</ele>
        <time>2017-05-25T06:34:56Z</time>
      </trkpt>
      <trkpt lat="44.56866" lon="5.74752">
        <ele>851.38</ele>
        <time>2017-05-25T06:35:14Z</time>
      </trkpt>
      <trkpt lat="44.56884" lon="5.74749">
        <ele>852.35</ele>
        <time>2017-05-25T06:35:30Z</time>
      </trkpt>
      <trkpt lat="44.56902" lon="5.74748">
        <ele>852.83</ele>
        <time>2017-05-25T06:35:47Z</time>
      </trkpt>
      <trkpt lat="44.56921" lon="5.74748">
        <ele>853.31</ele>
        <time>2017-05-25T06:36:04Z</time>
      </trkpt>
      <trkpt lat="44.56939" lon="5.74746">
        <ele>853.79</ele>
        <time>2017-05-25T06:36:20Z</time>
      </trkpt>
      <trkpt lat="44.56957" lon="5.74743">
        <ele>854.75</ele>
        <time>2017-05-25T06:36:36Z</time>
      </trkpt>
      <trkpt lat="44.56969" lon="5.74735">
        <ele>855.23</ele>
        <time>2017-05-25T06:36:50Z</time>
      </trkpt>
      <trkpt lat="44.56983" lon="5.74727">
        <ele>856.67</ele>
        <time>2017-05-25T06:37:04Z</time>
      </trkpt>
      <trkpt lat="44.56998" lon="5.74725">
        <ele>857.15</ele>
        <time>2017-05-25T06:37:18Z</time>
      </trkpt>
      <trkpt lat="44.57016" lon="5.74724">
        <ele>857.63</ele>
        <time>2017-05-25T06:37:34Z</time>
      </trkpt>
      <trkpt lat="44.57031" lon="5.74724">
        <ele>858.11</ele>
        <time>2017-05-25T06:37:48Z</time>
      </trkpt>
      <trkpt lat="44.57046" lon="5.74728">
        <ele>859.08</ele>
        <time>2017-05-25T06:38:02Z</time>
      </trkpt>
      <trkpt lat="44.57063" lon="5.74726">
        <ele>860.04</ele>
        <time>2017-05-25T06:38:19Z</time>
      </trkpt>
      <trkpt lat="44.57079" lon="5.74722">
        <ele>861.48</ele>
        <time>2017-05-25T06:38:35Z</time>
      </trkpt>
      <trkpt lat="44.57098" lon="5.74718">
        <ele>862.44</ele>
        <time>2017-05-25T06:38:53Z</time>
      </trkpt>
      <trkpt lat="44.57109" lon="5.74717">
        <ele>863.4</ele>
        <time>2017-05-25T06:39:03Z</time>
      </trkpt>
      <trkpt lat="44.57125" lon="5.74724">
        <ele>864.36</ele>
        <time>2017-05-25T06:39:18Z</time>
      </trkpt>
      <trkpt lat="44.57142" lon="5.7473">
        <ele>865.32</ele>
        <time>2017-05-25T06:39:34Z</time>
      </trkpt>
      <trkpt lat="44.57161" lon="5.74733">
        <ele>866.29</ele>
        <time>2017-05-25T06:39:52Z</time>
      </trkpt>
      <trkpt lat="44.5718" lon="5.74738">
        <ele>867.25</ele>
        <time>2017-05-25T06:40:09Z</time>
      </trkpt>
      <trkpt lat="44.57194" lon="5.74745">
        <ele>867.73</ele>
        <time>2017-05-25T06:40:24Z</time>
      </trkpt>
      <trkpt lat="44.5721" lon="5.74752">
        <ele>868.69</ele>
        <time>2017-05-25T06:40:40Z</time>
      </trkpt>
      <trkpt lat="44.57226" lon="5.74761">
        <ele>869.65</ele>
        <time>2017-05-25T06:40:57Z</time>
      </trkpt>
      <trkpt lat="44.57242" lon="5.74775">
        <ele>870.61</ele>
        <time>2017-05-25T06:41:14Z</time>
      </trkpt>
      <trkpt lat="44.57257" lon="5.74783">
        <ele>871.57</ele>
        <time>2017-05-25T06:41:30Z</time>
      </trkpt>
      <trkpt lat="44.57273" lon="5.74788">
        <ele>872.53</ele>
        <time>2017-05-25T06:41:46Z</time>
      </trkpt>
      <trkpt lat="44.57289" lon="5.74798">
        <ele>874.46</ele>
        <time>2017-05-25T06:42:03Z</time>
      </trkpt>
      <trkpt lat="44.57301" lon="5.74804">
        <ele>875.9</ele>
        <time>2017-05-25T06:42:16Z</time>
      </trkpt>
      <trkpt lat="44.57316" lon="5.74804">
        <ele>876.38</ele>
        <time>2017-05-25T06:42:31Z</time>
      </trkpt>
      <trkpt lat="44.57332" lon="5.74806">
        <ele>877.34</ele>
        <time>2017-05-25T06:42:46Z</time>
      </trkpt>
      <trkpt lat="44.57347" lon="5.74809">
        <ele>878.3</ele>
        <time>2017-05-25T06:43:01Z</time>
      </trkpt>
      <trkpt lat="44.57361" lon="5.74812">
        <ele>879.26</ele>
        <time>2017-05-25T06:43:16Z</time>
      </trkpt>
      <trkpt lat="44.57373" lon="5.74815">
        <ele>879.74</ele>
        <time>2017-05-25T06:43:28Z</time>
      </trkpt>
      <trkpt lat="44.57379" lon="5.74817">
        <ele>880.71</ele>
        <time>2017-05-25T06:43:35Z</time>
      </trkpt>
      <trkpt lat="44.57381" lon="5.74817">
        <ele>881.19</ele>
        <time>2017-05-25T06:43:37Z</time>
      </trkpt>
      <trkpt lat="44.57387" lon="5.74817">
        <ele>881.67</ele>
        <time>2017-05-25T06:43:44Z</time>
      </trkpt>
      <trkpt lat="44.57389" lon="5.74817">
        <ele>881.67</ele>
        <time>2017-05-25T06:43:46Z</time>
      </trkpt>
      <trkpt lat="44.57404" lon="5.74818">
        <ele>882.63</ele>
        <time>2017-05-25T06:44:00Z</time>
      </trkpt>
      <trkpt lat="44.57409" lon="5.74817">
        <ele>883.11</ele>
        <time>2017-05-25T06:44:05Z</time>
      </trkpt>
      <trkpt lat="44.57422" lon="5.74816">
        <ele>883.59</ele>
        <time>2017-05-25T06:44:20Z</time>
      </trkpt>
      <trkpt lat="44.57436" lon="5.74821">
        <ele>884.55</ele>
        <time>2017-05-25T06:44:33Z</time>
      </trkpt>
      <trkpt lat="44.5745" lon="5.74824">
        <ele>885.51</ele>
        <time>2017-05-25T06:44:47Z</time>
      </trkpt>
      <trkpt lat="44.57468" lon="5.74823">
        <ele>886.47</ele>
        <time>2017-05-25T06:45:03Z</time>
      </trkpt>
      <trkpt lat="44.57483" lon="5.74817">
        <ele>887.91</ele>
        <time>2017-05-25T06:45:18Z</time>
      </trkpt>
      <trkpt lat="44.57498" lon="5.7481">
        <ele>888.4</ele>
        <time>2017-05-25T06:45:33Z</time>
      </trkpt>
      <trkpt lat="44.57512" lon="5.74805">
        <ele>889.36</ele>
        <time>2017-05-25T06:45:49Z</time>
      </trkpt>
      <trkpt lat="44.57525" lon="5.74807">
        <ele>890.32</ele>
        <time>2017-05-25T06:46:03Z</time>
      </trkpt>
      <trkpt lat="44.57529" lon="5.74807">
        <ele>890.8</ele>
        <time>2017-05-25T06:46:08Z</time>
      </trkpt>
      <trkpt lat="44.57546" lon="5.74813">
        <ele>892.24</ele>
        <time>2017-05-25T06:46:25Z</time>
      </trkpt>
      <trkpt lat="44.57552" lon="5.74815">
        <ele>893.2</ele>
        <time>2017-05-25T06:46:39Z</time>
      </trkpt>
      <trkpt lat="44.57562" lon="5.7482">
        <ele>894.16</ele>
        <time>2017-05-25T06:46:54Z</time>
      </trkpt>
      <trkpt lat="44.57576" lon="5.74828">
        <ele>895.61</ele>
        <time>2017-05-25T06:47:08Z</time>
      </trkpt>
      <trkpt lat="44.5759" lon="5.74835">
        <ele>897.05</ele>
        <time>2017-05-25T06:47:23Z</time>
      </trkpt>
      <trkpt lat="44.57602" lon="5.74845">
        <ele>898.49</ele>
        <time>2017-05-25T06:47:36Z</time>
      </trkpt>
      <trkpt lat="44.57607" lon="5.74852">
        <ele>898.97</ele>
        <time>2017-05-25T06:47:43Z</time>
      </trkpt>
      <trkpt lat="44.57618" lon="5.74871">
        <ele>900.41</ele>
        <time>2017-05-25T06:47:59Z</time>
      </trkpt>
      <trkpt lat="44.57624" lon="5.74876">
        <ele>901.37</ele>
        <time>2017-05-25T06:48:12Z</time>
      </trkpt>
      <trkpt lat="44.57624" lon="5.74876">
        <ele>901.37</ele>
        <time>2017-05-25T06:48:17Z</time>
      </trkpt>
      <trkpt lat="44.57637" lon="5.7488">
        <ele>902.33</ele>
        <time>2017-05-25T06:48:32Z</time>
      </trkpt>
      <trkpt lat="44.57642" lon="5.74882">
        <ele>903.78</ele>
        <time>2017-05-25T06:48:46Z</time>
      </trkpt>
      <trkpt lat="44.57652" lon="5.74884">
        <ele>904.74</ele>
        <time>2017-05-25T06:48:58Z</time>
      </trkpt>
      <trkpt lat="44.57663" lon="5.74882">
        <ele>905.7</ele>
        <time>2017-05-25T06:49:12Z</time>
      </trkpt>
      <trkpt lat="44.57676" lon="5.74885">
        <ele>906.18</ele>
        <time>2017-05-25T06:49:26Z</time>
      </trkpt>
      <trkpt lat="44.57688" lon="5.7489">
        <ele>906.18</ele>
        <time>2017-05-25T06:49:38Z</time>
      </trkpt>
      <trkpt lat="44.57691" lon="5.74889">
        <ele>906.66</ele>
        <time>2017-05-25T06:49:41Z</time>
      </trkpt>
      <trkpt lat="44.57694" lon="5.74889">
        <ele>906.66</ele>
        <time>2017-05-25T06:49:43Z</time>
      </trkpt>
      <trkpt lat="44.57698" lon="5.74886">
        <ele>906.66</ele>
        <time>2017-05-25T06:49:48Z</time>
      </trkpt>
      <trkpt lat="44.57712" lon="5.74889">
        <ele>908.1</ele>
        <time>2017-05-25T06:50:02Z</time>
      </trkpt>
      <trkpt lat="44.57723" lon="5.74896">
        <ele>909.06</ele>
        <time>2017-05-25T06:50:15Z</time>
      </trkpt>
      <trkpt lat="44.5773" lon="5.74902">
        <ele>909.54</ele>
        <time>2017-05-25T06:50:30Z</time>
      </trkpt>
      <trkpt lat="44.57731" lon="5.74903">
        <ele>910.03</ele>
        <time>2017-05-25T06:50:49Z</time>
      </trkpt>
      <trkpt lat="44.5774" lon="5.74899">
        <ele>910.03</ele>
        <time>2017-05-25T06:51:04Z</time>
      </trkpt>
      <trkpt lat="44.57746" lon="5.749">
        <ele>911.95</ele>
        <time>2017-05-25T06:51:18Z</time>
      </trkpt>
      <trkpt lat="44.57758" lon="5.74904">
        <ele>911.95</ele>
        <time>2017-05-25T06:51:33Z</time>
      </trkpt>
      <trkpt lat="44.57767" lon="5.74907">
        <ele>912.91</ele>
        <time>2017-05-25T06:51:46Z</time>
      </trkpt>
      <trkpt lat="44.57777" lon="5.74909">
        <ele>914.35</ele>
        <time>2017-05-25T06:51:59Z</time>
      </trkpt>
      <trkpt lat="44.57787" lon="5.74911">
        <ele>914.83</ele>
        <time>2017-05-25T06:52:14Z</time>
      </trkpt>
      <trkpt lat="44.57793" lon="5.74915">
        <ele>915.79</ele>
        <time>2017-05-25T06:52:30Z</time>
      </trkpt>
      <trkpt lat="44.57802" lon="5.74917">
        <ele>916.75</ele>
        <time>2017-05-25T06:52:46Z</time>
      </trkpt>
      <trkpt lat="44.57809" lon="5.74919">
        <ele>918.2</ele>
        <time>2017-05-25T06:52:59Z</time>
      </trkpt>
      <trkpt lat="44.57821" lon="5.74918">
        <ele>919.64</ele>
        <time>2017-05-25T06:53:14Z</time>
      </trkpt>
      <trkpt lat="44.57831" lon="5.74929">
        <ele>920.6</ele>
        <time>2017-05-25T06:53:31Z</time>
      </trkpt>
      <trkpt lat="44.57842" lon="5.74939">
        <ele>921.56</ele>
        <time>2017-05-25T06:53:47Z</time>
      </trkpt>
      <trkpt lat="44.57852" lon="5.74945">
        <ele>923</ele>
        <time>2017-05-25T06:54:03Z</time>
      </trkpt>
      <trkpt lat="44.57857" lon="5.74961">
        <ele>924.45</ele>
        <time>2017-05-25T06:54:17Z</time>
      </trkpt>
      <trkpt lat="44.57863" lon="5.7497">
        <ele>924.45</ele>
        <time>2017-05-25T06:54:29Z</time>
      </trkpt>
      <trkpt lat="44.57872" lon="5.74977">
        <ele>924.93</ele>
        <time>2017-05-25T06:54:43Z</time>
      </trkpt>
      <trkpt lat="44.57876" lon="5.7498">
        <ele>924.93</ele>
        <time>2017-05-25T06:54:58Z</time>
      </trkpt>
      <trkpt lat="44.5788" lon="5.74983">
        <ele>925.41</ele>
        <time>2017-05-25T06:55:13Z</time>
      </trkpt>
      <trkpt lat="44.57889" lon="5.74984">
        <ele>926.85</ele>
        <time>2017-05-25T06:55:31Z</time>
      </trkpt>
      <trkpt lat="44.57896" lon="5.74987">
        <ele>927.33</ele>
        <time>2017-05-25T06:55:52Z</time>
      </trkpt>
      <trkpt lat="44.57904" lon="5.74988">
        <ele>929.25</ele>
        <time>2017-05-25T06:56:06Z</time>
      </trkpt>
      <trkpt lat="44.57909" lon="5.74987">
        <ele>931.65</ele>
        <time>2017-05-25T06:56:21Z</time>
      </trkpt>
      <trkpt lat="44.57908" lon="5.74987">
        <ele>931.65</ele>
        <time>2017-05-25T06:56:51Z</time>
      </trkpt>
      <trkpt lat="44.57911" lon="5.74989">
        <ele>933.58</ele>
        <time>2017-05-25T06:57:08Z</time>
      </trkpt>
      <trkpt lat="44.57915" lon="5.74989">
        <ele>936.46</ele>
        <time>2017-05-25T06:57:19Z</time>
      </trkpt>
      <trkpt lat="44.57918" lon="5.74986">
        <ele>938.86</ele>
        <time>2017-05-25T06:57:34Z</time>
      </trkpt>
      <trkpt lat="44.57922" lon="5.7498">
        <ele>941.75</ele>
        <time>2017-05-25T06:57:50Z</time>
      </trkpt>
      <trkpt lat="44.57932" lon="5.74996">
        <ele>944.15</ele>
        <time>2017-05-25T06:58:05Z</time>
      </trkpt>
      <trkpt lat="44.57939" lon="5.75">
        <ele>947.04</ele>
        <time>2017-05-25T06:58:21Z</time>
      </trkpt>
      <trkpt lat="44.57944" lon="5.75006">
        <ele>948.48</ele>
        <time>2017-05-25T06:58:36Z</time>
      </trkpt>
      <trkpt lat="44.57948" lon="5.75014">
        <ele>951.36</ele>
        <time>2017-05-25T06:58:50Z</time>
      </trkpt>
      <trkpt lat="44.57949" lon="5.75022">
        <ele>954.25</ele>
        <time>2017-05-25T06:59:07Z</time>
      </trkpt>
      <trkpt lat="44.57953" lon="5.75033">
        <ele>956.65</ele>
        <time>2017-05-25T06:59:21Z</time>
      </trkpt>
      <trkpt lat="44.57961" lon="5.75035">
        <ele>958.57</ele>
        <time>2017-05-25T06:59:38Z</time>
      </trkpt>
      <trkpt lat="44.57962" lon="5.75037">
        <ele>958.57</ele>
        <time>2017-05-25T07:00:04Z</time>
      </trkpt>
      <trkpt lat="44.57967" lon="5.75044">
        <ele>960.49</ele>
        <time>2017-05-25T07:00:20Z</time>
      </trkpt>
      <trkpt lat="44.57975" lon="5.75055">
        <ele>962.42</ele>
        <time>2017-05-25T07:00:34Z</time>
      </trkpt>
      <trkpt lat="44.57981" lon="5.75057">
        <ele>964.82</ele>
        <time>2017-05-25T07:00:46Z</time>
      </trkpt>
      <trkpt lat="44.57982" lon="5.75054">
        <ele>966.26</ele>
        <time>2017-05-25T07:00:56Z</time>
      </trkpt>
      <trkpt lat="44.57993" lon="5.75052">
        <ele>968.18</ele>
        <time>2017-05-25T07:01:11Z</time>
      </trkpt>
      <trkpt lat="44.58001" lon="5.7505">
        <ele>971.55</ele>
        <time>2017-05-25T07:01:24Z</time>
      </trkpt>
      <trkpt lat="44.58007" lon="5.75049">
        <ele>971.55</ele>
        <time>2017-05-25T07:01:38Z</time>
      </trkpt>
      <trkpt lat="44.58009" lon="5.75043">
        <ele>969.63</ele>
        <time>2017-05-25T07:01:52Z</time>
      </trkpt>
      <trkpt lat="44.58013" lon="5.75043">
        <ele>970.59</ele>
        <time>2017-05-25T07:02:06Z</time>
      </trkpt>
      <trkpt lat="44.58018" lon="5.75048">
        <ele>972.03</ele>
        <time>2017-05-25T07:02:21Z</time>
      </trkpt>
      <trkpt lat="44.58024" lon="5.75047">
        <ele>974.91</ele>
        <time>2017-05-25T07:02:36Z</time>
      </trkpt>
      <trkpt lat="44.58029" lon="5.75048">
        <ele>976.84</ele>
        <time>2017-05-25T07:02:54Z</time>
      </trkpt>
      <trkpt lat="44.58028" lon="5.75047">
        <ele>977.8</ele>
        <time>2017-05-25T07:03:13Z</time>
      </trkpt>
      <trkpt lat="44.58029" lon="5.75045">
        <ele>976.84</ele>
        <time>2017-05-25T07:03:30Z</time>
      </trkpt>
      <trkpt lat="44.58033" lon="5.75043">
        <ele>976.84</ele>
        <time>2017-05-25T07:04:04Z</time>
      </trkpt>
      <trkpt lat="44.58033" lon="5.7505">
        <ele>977.8</ele>
        <time>2017-05-25T07:04:23Z</time>
      </trkpt>
      <trkpt lat="44.58037" lon="5.75054">
        <ele>981.16</ele>
        <time>2017-05-25T07:04:36Z</time>
      </trkpt>
      <trkpt lat="44.5804" lon="5.75058">
        <ele>983.57</ele>
        <time>2017-05-25T07:04:51Z</time>
      </trkpt>
      <trkpt lat="44.58047" lon="5.75058">
        <ele>986.45</ele>
        <time>2017-05-25T07:05:06Z</time>
      </trkpt>
      <trkpt lat="44.58052" lon="5.75062">
        <ele>988.85</ele>
        <time>2017-05-25T07:05:20Z</time>
      </trkpt>
      <trkpt lat="44.58061" lon="5.75067">
        <ele>991.74</ele>
        <time>2017-05-25T07:05:36Z</time>
      </trkpt>
      <trkpt lat="44.58066" lon="5.75067">
        <ele>991.74</ele>
        <time>2017-05-25T07:05:49Z</time>
      </trkpt>
      <trkpt lat="44.58068" lon="5.7507">
        <ele>991.26</ele>
        <time>2017-05-25T07:06:02Z</time>
      </trkpt>
      <trkpt lat="44.58075" lon="5.75071">
        <ele>990.78</ele>
        <time>2017-05-25T07:06:15Z</time>
      </trkpt>
      <trkpt lat="44.5808" lon="5.75078">
        <ele>991.74</ele>
        <time>2017-05-25T07:06:31Z</time>
      </trkpt>
      <trkpt lat="44.58081" lon="5.75079">
        <ele>991.74</ele>
        <time>2017-05-25T07:07:00Z</time>
      </trkpt>
      <trkpt lat="44.58079" lon="5.75083">
        <ele>991.74</ele>
        <time>2017-05-25T07:07:22Z</time>
      </trkpt>
      <trkpt lat="44.58084" lon="5.75083">
        <ele>991.74</ele>
        <time>2017-05-25T07:07:38Z</time>
      </trkpt>
      <trkpt lat="44.58086" lon="5.75085">
        <ele>992.7</ele>
        <time>2017-05-25T07:08:04Z</time>
      </trkpt>
      <trkpt lat="44.58093" lon="5.75083">
        <ele>994.14</ele>
        <time>2017-05-25T07:08:23Z</time>
      </trkpt>
      <trkpt lat="44.58092" lon="5.75085">
        <ele>994.14</ele>
        <time>2017-05-25T07:08:37Z</time>
      </trkpt>
      <trkpt lat="44.58098" lon="5.75094">
        <ele>993.66</ele>
        <time>2017-05-25T07:08:49Z</time>
      </trkpt>
      <trkpt lat="44.58106" lon="5.75098">
        <ele>994.14</ele>
        <time>2017-05-25T07:09:03Z</time>
      </trkpt>
      <trkpt lat="44.58114" lon="5.751">
        <ele>996.54</ele>
        <time>2017-05-25T07:09:18Z</time>
      </trkpt>
      <trkpt lat="44.58119" lon="5.75107">
        <ele>997.02</ele>
        <time>2017-05-25T07:09:34Z</time>
      </trkpt>
      <trkpt lat="44.5812" lon="5.75115">
        <ele>997.51</ele>
        <time>2017-05-25T07:09:50Z</time>
      </trkpt>
      <trkpt lat="44.5812" lon="5.75122">
        <ele>997.99</ele>
        <time>2017-05-25T07:10:05Z</time>
      </trkpt>
      <trkpt lat="44.58123" lon="5.751">
        <ele>997.99</ele>
        <time>2017-05-25T07:10:30Z</time>
      </trkpt>
      <trkpt lat="44.58131" lon="5.7511">
        <ele>997.51</ele>
        <time>2017-05-25T07:10:58Z</time>
      </trkpt>
      <trkpt lat="44.58134" lon="5.75121">
        <ele>997.51</ele>
        <time>2017-05-25T07:11:23Z</time>
      </trkpt>
      <trkpt lat="44.58129" lon="5.75127">
        <ele>998.47</ele>
        <time>2017-05-25T07:11:39Z</time>
      </trkpt>
      <trkpt lat="44.5813" lon="5.75132">
        <ele>999.91</ele>
        <time>2017-05-25T07:11:53Z</time>
      </trkpt>
      <trkpt lat="44.58133" lon="5.75137">
        <ele>1000.87</ele>
        <time>2017-05-25T07:12:13Z</time>
      </trkpt>
      <trkpt lat="44.58131" lon="5.7514">
        <ele>1002.31</ele>
        <time>2017-05-25T07:12:29Z</time>
      </trkpt>
      <trkpt lat="44.5813" lon="5.7514">
        <ele>1002.79</ele>
        <time>2017-05-25T07:12:47Z</time>
      </trkpt>
      <trkpt lat="44.58128" lon="5.75138">
        <ele>1003.27</ele>
        <time>2017-05-25T07:13:11Z</time>
      </trkpt>
      <trkpt lat="44.58127" lon="5.75143">
        <ele>1004.23</ele>
        <time>2017-05-25T07:13:24Z</time>
      </trkpt>
      <trkpt lat="44.5813" lon="5.75147">
        <ele>1006.16</ele>
        <time>2017-05-25T07:13:41Z</time>
      </trkpt>
      <trkpt lat="44.58133" lon="5.75149">
        <ele>1006.16</ele>
        <time>2017-05-25T07:14:12Z</time>
      </trkpt>
      <trkpt lat="44.58133" lon="5.75151">
        <ele>1008.08</ele>
        <time>2017-05-25T07:14:28Z</time>
      </trkpt>
      <trkpt lat="44.58135" lon="5.75154">
        <ele>1009.04</ele>
        <time>2017-05-25T07:14:47Z</time>
      </trkpt>
      <trkpt lat="44.58134" lon="5.75154">
        <ele>1010.48</ele>
        <time>2017-05-25T07:15:03Z</time>
      </trkpt>
      <trkpt lat="44.58133" lon="5.7515">
        <ele>1010.48</ele>
        <time>2017-05-25T07:15:29Z</time>
      </trkpt>
      <trkpt lat="44.58138" lon="5.75152">
        <ele>1010.48</ele>
        <time>2017-05-25T07:15:44Z</time>
      </trkpt>
      <trkpt lat="44.58139" lon="5.75152">
        <ele>1011.93</ele>
        <time>2017-05-25T07:16:00Z</time>
      </trkpt>
      <trkpt lat="44.5814" lon="5.75155">
        <ele>1012.89</ele>
        <time>2017-05-25T07:16:17Z</time>
      </trkpt>
      <trkpt lat="44.58139" lon="5.75156">
        <ele>1013.85</ele>
        <time>2017-05-25T07:16:36Z</time>
      </trkpt>
      <trkpt lat="44.58141" lon="5.75154">
        <ele>1013.85</ele>
        <time>2017-05-25T07:16:59Z</time>
      </trkpt>
      <trkpt lat="44.58143" lon="5.75145">
        <ele>1013.37</ele>
        <time>2017-05-25T07:17:20Z</time>
      </trkpt>
      <trkpt lat="44.58149" lon="5.75153">
        <ele>1013.37</ele>
        <time>2017-05-25T07:17:32Z</time>
      </trkpt>
      <trkpt lat="44.58154" lon="5.75155">
        <ele>1016.73</ele>
        <time>2017-05-25T07:17:44Z</time>
      </trkpt>
      <trkpt lat="44.58155" lon="5.75163">
        <ele>1019.13</ele>
        <time>2017-05-25T07:17:58Z</time>
      </trkpt>
      <trkpt lat="44.58152" lon="5.75168">
        <ele>1021.54</ele>
        <time>2017-05-25T07:18:11Z</time>
      </trkpt>
      <trkpt lat="44.58148" lon="5.75175">
        <ele>1024.42</ele>
        <time>2017-05-25T07:18:27Z</time>
      </trkpt>
      <trkpt lat="44.58144" lon="5.7518">
        <ele>1026.83</ele>
        <time>2017-05-25T07:18:41Z</time>
      </trkpt>
      <trkpt lat="44.58143" lon="5.75186">
        <ele>1028.27</ele>
        <time>2017-05-25T07:18:55Z</time>
      </trkpt>
      <trkpt lat="44.58145" lon="5.75183">
        <ele>1030.19</ele>
        <time>2017-05-25T07:19:10Z</time>
      </trkpt>
      <trkpt lat="44.58146" lon="5.75185">
        <ele>1032.11</ele>
        <time>2017-05-25T07:19:26Z</time>
      </trkpt>
      <trkpt lat="44.58148" lon="5.75184">
        <ele>1032.59</ele>
        <time>2017-05-25T07:19:48Z</time>
      </trkpt>
      <trkpt lat="44.58149" lon="5.75186">
        <ele>1034.04</ele>
        <time>2017-05-25T07:20:04Z</time>
      </trkpt>
      <trkpt lat="44.58151" lon="5.75189">
        <ele>1035.96</ele>
        <time>2017-05-25T07:20:21Z</time>
      </trkpt>
      <trkpt lat="44.58151" lon="5.75193">
        <ele>1037.88</ele>
        <time>2017-05-25T07:20:39Z</time>
      </trkpt>
      <trkpt lat="44.58154" lon="5.75203">
        <ele>1040.76</ele>
        <time>2017-05-25T07:20:55Z</time>
      </trkpt>
      <trkpt lat="44.58159" lon="5.75207">
        <ele>1043.17</ele>
        <time>2017-05-25T07:21:12Z</time>
      </trkpt>
      <trkpt lat="44.58165" lon="5.75209">
        <ele>1045.57</ele>
        <time>2017-05-25T07:21:28Z</time>
      </trkpt>
      <trkpt lat="44.58169" lon="5.75217">
        <ele>1047.01</ele>
        <time>2017-05-25T07:21:40Z</time>
      </trkpt>
      <trkpt lat="44.58173" lon="5.75223">
        <ele>1049.42</ele>
        <time>2017-05-25T07:21:56Z</time>
      </trkpt>
      <trkpt lat="44.58183" lon="5.7523">
        <ele>1051.82</ele>
        <time>2017-05-25T07:22:14Z</time>
      </trkpt>
      <trkpt lat="44.58188" lon="5.7523">
        <ele>1054.22</ele>
        <time>2017-05-25T07:22:29Z</time>
      </trkpt>
      <trkpt lat="44.5819" lon="5.75232">
        <ele>1055.67</ele>
        <time>2017-05-25T07:22:42Z</time>
      </trkpt>
      <trkpt lat="44.58192" lon="5.75234">
        <ele>1058.55</ele>
        <time>2017-05-25T07:22:59Z</time>
      </trkpt>
      <trkpt lat="44.58196" lon="5.75238">
        <ele>1060.95</ele>
        <time>2017-05-25T07:23:14Z</time>
      </trkpt>
      <trkpt lat="44.58202" lon="5.75243">
        <ele>1063.84</ele>
        <time>2017-05-25T07:23:29Z</time>
      </trkpt>
      <trkpt lat="44.58209" lon="5.75249">
        <ele>1065.76</ele>
        <time>2017-05-25T07:23:43Z</time>
      </trkpt>
      <trkpt lat="44.58223" lon="5.75264">
        <ele>1066.72</ele>
        <time>2017-05-25T07:23:58Z</time>
      </trkpt>
      <trkpt lat="44.58226" lon="5.75267">
        <ele>1067.2</ele>
        <time>2017-05-25T07:24:18Z</time>
      </trkpt>
      <trkpt lat="44.58228" lon="5.75271">
        <ele>1068.16</ele>
        <time>2017-05-25T07:24:42Z</time>
      </trkpt>
      <trkpt lat="44.58229" lon="5.75278">
        <ele>1070.57</ele>
        <time>2017-05-25T07:24:56Z</time>
      </trkpt>
      <trkpt lat="44.58234" lon="5.75284">
        <ele>1072.97</ele>
        <time>2017-05-25T07:25:13Z</time>
      </trkpt>
      <trkpt lat="44.58234" lon="5.75287">
        <ele>1075.85</ele>
        <time>2017-05-25T07:25:27Z</time>
      </trkpt>
      <trkpt lat="44.58237" lon="5.75292">
        <ele>1078.74</ele>
        <time>2017-05-25T07:25:38Z</time>
      </trkpt>
      <trkpt lat="44.5824" lon="5.75295">
        <ele>1080.18</ele>
        <time>2017-05-25T07:25:56Z</time>
      </trkpt>
      <trkpt lat="44.58244" lon="5.75302">
        <ele>1082.58</ele>
        <time>2017-05-25T07:26:10Z</time>
      </trkpt>
      <trkpt lat="44.58247" lon="5.75303">
        <ele>1084.5</ele>
        <time>2017-05-25T07:26:27Z</time>
      </trkpt>
      <trkpt lat="44.5825" lon="5.75307">
        <ele>1085.47</ele>
        <time>2017-05-25T07:26:45Z</time>
      </trkpt>
      <trkpt lat="44.58252" lon="5.75311">
        <ele>1086.43</ele>
        <time>2017-05-25T07:27:00Z</time>
      </trkpt>
      <trkpt lat="44.58249" lon="5.75317">
        <ele>1087.87</ele>
        <time>2017-05-25T07:27:13Z</time>
      </trkpt>
      <trkpt lat="44.58248" lon="5.75315">
        <ele>1088.35</ele>
        <time>2017-05-25T07:27:33Z</time>
      </trkpt>
      <trkpt lat="44.58249" lon="5.75316">
        <ele>1088.83</ele>
        <time>2017-05-25T07:28:04Z</time>
      </trkpt>
      <trkpt lat="44.58254" lon="5.75315">
        <ele>1090.75</ele>
        <time>2017-05-25T07:28:20Z</time>
      </trkpt>
      <trkpt lat="44.5826" lon="5.75311">
        <ele>1089.79</ele>
        <time>2017-05-25T07:28:31Z</time>
      </trkpt>
      <trkpt lat="44.58268" lon="5.75319">
        <ele>1091.71</ele>
        <time>2017-05-25T07:28:49Z</time>
      </trkpt>
      <trkpt lat="44.58272" lon="5.75323">
        <ele>1094.6</ele>
        <time>2017-05-25T07:29:07Z</time>
      </trkpt>
      <trkpt lat="44.58278" lon="5.75329">
        <ele>1097.48</ele>
        <time>2017-05-25T07:29:27Z</time>
      </trkpt>
      <trkpt lat="44.58283" lon="5.75339">
        <ele>1100.37</ele>
        <time>2017-05-25T07:29:44Z</time>
      </trkpt>
      <trkpt lat="44.58287" lon="5.75342">
        <ele>1103.73</ele>
        <time>2017-05-25T07:29:55Z</time>
      </trkpt>
      <trkpt lat="44.58286" lon="5.75349">
        <ele>1105.17</ele>
        <time>2017-05-25T07:30:11Z</time>
      </trkpt>
      <trkpt lat="44.58285" lon="5.75357">
        <ele>1106.61</ele>
        <time>2017-05-25T07:30:30Z</time>
      </trkpt>
      <trkpt lat="44.58286" lon="5.75362">
        <ele>1106.61</ele>
        <time>2017-05-25T07:30:55Z</time>
      </trkpt>
      <trkpt lat="44.58275" lon="5.7536">
        <ele>1106.13</ele>
        <time>2017-05-25T07:31:11Z</time>
      </trkpt>
      <trkpt lat="44.58271" lon="5.75355">
        <ele>1106.13</ele>
        <time>2017-05-25T07:31:46Z</time>
      </trkpt>
      <trkpt lat="44.58273" lon="5.75357">
        <ele>1106.13</ele>
        <time>2017-05-25T07:32:23Z</time>
      </trkpt>
      <trkpt lat="44.58275" lon="5.75359">
        <ele>1107.1</ele>
        <time>2017-05-25T07:32:38Z</time>
      </trkpt>
      <trkpt lat="44.58283" lon="5.75367">
        <ele>1107.58</ele>
        <time>2017-05-25T07:32:59Z</time>
      </trkpt>
      <trkpt lat="44.58288" lon="5.7537">
        <ele>1108.06</ele>
        <time>2017-05-25T07:33:22Z</time>
      </trkpt>
      <trkpt lat="44.58291" lon="5.75381">
        <ele>1110.94</ele>
        <time>2017-05-25T07:33:39Z</time>
      </trkpt>
      <trkpt lat="44.58291" lon="5.75396">
        <ele>1111.9</ele>
        <time>2017-05-25T07:33:57Z</time>
      </trkpt>
      <trkpt lat="44.58294" lon="5.75399">
        <ele>1112.38</ele>
        <time>2017-05-25T07:34:13Z</time>
      </trkpt>
      <trkpt lat="44.583" lon="5.75403">
        <ele>1111.9</ele>
        <time>2017-05-25T07:34:28Z</time>
      </trkpt>
      <trkpt lat="44.5831" lon="5.75406">
        <ele>1108.54</ele>
        <time>2017-05-25T07:34:46Z</time>
      </trkpt>
      <trkpt lat="44.58311" lon="5.75412">
        <ele>1108.54</ele>
        <time>2017-05-25T07:34:52Z</time>
      </trkpt>
      <trkpt lat="44.58319" lon="5.75423">
        <ele>1107.1</ele>
        <time>2017-05-25T07:35:05Z</time>
      </trkpt>
      <trkpt lat="44.58326" lon="5.75427">
        <ele>1107.1</ele>
        <time>2017-05-25T07:35:21Z</time>
      </trkpt>
      <trkpt lat="44.5833" lon="5.75434">
        <ele>1107.1</ele>
        <time>2017-05-25T07:35:35Z</time>
      </trkpt>
      <trkpt lat="44.58336" lon="5.7544">
        <ele>1105.17</ele>
        <time>2017-05-25T07:35:47Z</time>
      </trkpt>
      <trkpt lat="44.58343" lon="5.75446">
        <ele>1102.77</ele>
        <time>2017-05-25T07:36:02Z</time>
      </trkpt>
      <trkpt lat="44.5835" lon="5.75453">
        <ele>1100.85</ele>
        <time>2017-05-25T07:36:16Z</time>
      </trkpt>
      <trkpt lat="44.58357" lon="5.75461">
        <ele>1098.44</ele>
        <time>2017-05-25T07:36:32Z</time>
      </trkpt>
      <trkpt lat="44.58367" lon="5.75463">
        <ele>1097.96</ele>
        <time>2017-05-25T07:36:48Z</time>
      </trkpt>
      <trkpt lat="44.58371" lon="5.75466">
        <ele>1095.08</ele>
        <time>2017-05-25T07:37:02Z</time>
      </trkpt>
      <trkpt lat="44.58373" lon="5.75468">
        <ele>1094.6</ele>
        <time>2017-05-25T07:37:07Z</time>
      </trkpt>
      <trkpt lat="44.58389" lon="5.75471">
        <ele>1091.71</ele>
        <time>2017-05-25T07:37:20Z</time>
      </trkpt>
      <trkpt lat="44.58401" lon="5.75471">
        <ele>1091.23</ele>
        <time>2017-05-25T07:37:32Z</time>
      </trkpt>
      <trkpt lat="44.58413" lon="5.75476">
        <ele>1091.71</ele>
        <time>2017-05-25T07:37:46Z</time>
      </trkpt>
      <trkpt lat="44.58427" lon="5.75494">
        <ele>1093.64</ele>
        <time>2017-05-25T07:38:03Z</time>
      </trkpt>
      <trkpt lat="44.58439" lon="5.75493">
        <ele>1095.08</ele>
        <time>2017-05-25T07:38:20Z</time>
      </trkpt>
      <trkpt lat="44.58452" lon="5.75503">
        <ele>1095.56</ele>
        <time>2017-05-25T07:38:37Z</time>
      </trkpt>
      <trkpt lat="44.58466" lon="5.75508">
        <ele>1096.52</ele>
        <time>2017-05-25T07:38:54Z</time>
      </trkpt>
      <trkpt lat="44.58473" lon="5.75517">
        <ele>1097.96</ele>
        <time>2017-05-25T07:39:07Z</time>
      </trkpt>
      <trkpt lat="44.5848" lon="5.75529">
        <ele>1099.4</ele>
        <time>2017-05-25T07:39:23Z</time>
      </trkpt>
      <trkpt lat="44.58484" lon="5.75541">
        <ele>1100.85</ele>
        <time>2017-05-25T07:39:37Z</time>
      </trkpt>
      <trkpt lat="44.5849" lon="5.75542">
        <ele>1100.85</ele>
        <time>2017-05-25T07:39:44Z</time>
      </trkpt>
      <trkpt lat="44.58501" lon="5.75545">
        <ele>1103.25</ele>
        <time>2017-05-25T07:40:00Z</time>
      </trkpt>
      <trkpt lat="44.58511" lon="5.75547">
        <ele>1106.13</ele>
        <time>2017-05-25T07:40:15Z</time>
      </trkpt>
      <trkpt lat="44.58521" lon="5.75543">
        <ele>1109.02</ele>
        <time>2017-05-25T07:40:33Z</time>
      </trkpt>
      <trkpt lat="44.58532" lon="5.75536">
        <ele>1111.9</ele>
        <time>2017-05-25T07:40:51Z</time>
      </trkpt>
      <trkpt lat="44.58539" lon="5.75528">
        <ele>1113.82</ele>
        <time>2017-05-25T07:41:07Z</time>
      </trkpt>
      <trkpt lat="44.58538" lon="5.75522">
        <ele>1116.71</ele>
        <time>2017-05-25T07:41:20Z</time>
      </trkpt>
      <trkpt lat="44.58543" lon="5.75512">
        <ele>1119.11</ele>
        <time>2017-05-25T07:41:38Z</time>
      </trkpt>
      <trkpt lat="44.58545" lon="5.75506">
        <ele>1121.52</ele>
        <time>2017-05-25T07:41:52Z</time>
      </trkpt>
      <trkpt lat="44.58542" lon="5.75496">
        <ele>1122</ele>
        <time>2017-05-25T07:42:07Z</time>
      </trkpt>
      <trkpt lat="44.58541" lon="5.75489">
        <ele>1123.44</ele>
        <time>2017-05-25T07:42:20Z</time>
      </trkpt>
      <trkpt lat="44.58549" lon="5.75485">
        <ele>1125.36</ele>
        <time>2017-05-25T07:42:37Z</time>
      </trkpt>
      <trkpt lat="44.58551" lon="5.7548">
        <ele>1128.24</ele>
        <time>2017-05-25T07:42:53Z</time>
      </trkpt>
      <trkpt lat="44.58563" lon="5.75485">
        <ele>1131.13</ele>
        <time>2017-05-25T07:43:12Z</time>
      </trkpt>
      <trkpt lat="44.58575" lon="5.7548">
        <ele>1133.53</ele>
        <time>2017-05-25T07:43:28Z</time>
      </trkpt>
      <trkpt lat="44.58587" lon="5.75477">
        <ele>1135.45</ele>
        <time>2017-05-25T07:43:46Z</time>
      </trkpt>
      <trkpt lat="44.58596" lon="5.75473">
        <ele>1137.38</ele>
        <time>2017-05-25T07:44:03Z</time>
      </trkpt>
      <trkpt lat="44.58603" lon="5.75466">
        <ele>1139.3</ele>
        <time>2017-05-25T07:44:20Z</time>
      </trkpt>
      <trkpt lat="44.5861" lon="5.75457">
        <ele>1141.22</ele>
        <time>2017-05-25T07:44:35Z</time>
      </trkpt>
      <trkpt lat="44.58616" lon="5.75448">
        <ele>1143.14</ele>
        <time>2017-05-25T07:44:50Z</time>
      </trkpt>
      <trkpt lat="44.58619" lon="5.7544">
        <ele>1144.59</ele>
        <time>2017-05-25T07:45:06Z</time>
      </trkpt>
      <trkpt lat="44.58628" lon="5.75433">
        <ele>1146.99</ele>
        <time>2017-05-25T07:45:22Z</time>
      </trkpt>
      <trkpt lat="44.58626" lon="5.75422">
        <ele>1148.91</ele>
        <time>2017-05-25T07:45:38Z</time>
      </trkpt>
      <trkpt lat="44.58617" lon="5.75411">
        <ele>1151.32</ele>
        <time>2017-05-25T07:45:55Z</time>
      </trkpt>
      <trkpt lat="44.58607" lon="5.75401">
        <ele>1152.28</ele>
        <time>2017-05-25T07:46:08Z</time>
      </trkpt>
      <trkpt lat="44.58602" lon="5.754">
        <ele>1152.28</ele>
        <time>2017-05-25T07:46:22Z</time>
      </trkpt>
      <trkpt lat="44.58602" lon="5.754">
        <ele>1152.76</ele>
        <time>2017-05-25T07:46:42Z</time>
      </trkpt>
      <trkpt lat="44.58595" lon="5.75389">
        <ele>1153.72</ele>
        <time>2017-05-25T07:46:58Z</time>
      </trkpt>
      <trkpt lat="44.58584" lon="5.75376">
        <ele>1155.64</ele>
        <time>2017-05-25T07:47:13Z</time>
      </trkpt>
      <trkpt lat="44.58582" lon="5.75377">
        <ele>1156.12</ele>
        <time>2017-05-25T07:47:25Z</time>
      </trkpt>
      <trkpt lat="44.58574" lon="5.75366">
        <ele>1157.08</ele>
        <time>2017-05-25T07:47:37Z</time>
      </trkpt>
      <trkpt lat="44.58564" lon="5.75353">
        <ele>1159.01</ele>
        <time>2017-05-25T07:47:52Z</time>
      </trkpt>
      <trkpt lat="44.58558" lon="5.75344">
        <ele>1160.93</ele>
        <time>2017-05-25T07:48:08Z</time>
      </trkpt>
      <trkpt lat="44.58544" lon="5.75329">
        <ele>1162.85</ele>
        <time>2017-05-25T07:48:24Z</time>
      </trkpt>
      <trkpt lat="44.58534" lon="5.7532">
        <ele>1164.29</ele>
        <time>2017-05-25T07:48:38Z</time>
      </trkpt>
      <trkpt lat="44.58538" lon="5.75312">
        <ele>1166.22</ele>
        <time>2017-05-25T07:48:53Z</time>
      </trkpt>
      <trkpt lat="44.58548" lon="5.75315">
        <ele>1166.22</ele>
        <time>2017-05-25T07:49:02Z</time>
      </trkpt>
      <trkpt lat="44.58557" lon="5.75319">
        <ele>1166.22</ele>
        <time>2017-05-25T07:49:18Z</time>
      </trkpt>
      <trkpt lat="44.58557" lon="5.75316">
        <ele>1166.22</ele>
        <time>2017-05-25T07:49:35Z</time>
      </trkpt>
      <trkpt lat="44.58555" lon="5.75318">
        <ele>1166.7</ele>
        <time>2017-05-25T07:49:56Z</time>
      </trkpt>
      <trkpt lat="44.58555" lon="5.75318">
        <ele>1166.7</ele>
        <time>2017-05-25T07:50:11Z</time>
      </trkpt>
      <trkpt lat="44.58553" lon="5.75315">
        <ele>1166.7</ele>
        <time>2017-05-25T07:50:25Z</time>
      </trkpt>
      <trkpt lat="44.58552" lon="5.75311">
        <ele>1166.7</ele>
        <time>2017-05-25T07:50:52Z</time>
      </trkpt>
      <trkpt lat="44.58551" lon="5.75314">
        <ele>1166.7</ele>
        <time>2017-05-25T07:51:12Z</time>
      </trkpt>
      <trkpt lat="44.58552" lon="5.75314">
        <ele>1167.18</ele>
        <time>2017-05-25T07:51:32Z</time>
      </trkpt>
      <trkpt lat="44.58554" lon="5.75324">
        <ele>1166.22</ele>
        <time>2017-05-25T07:51:47Z</time>
      </trkpt>
      <trkpt lat="44.5855" lon="5.75322">
        <ele>1166.7</ele>
        <time>2017-05-25T07:52:10Z</time>
      </trkpt>
      <trkpt lat="44.58551" lon="5.75317">
        <ele>1166.7</ele>
        <time>2017-05-25T07:52:45Z</time>
      </trkpt>
      <trkpt lat="44.58545" lon="5.75316">
        <ele>1166.7</ele>
        <time>2017-05-25T07:53:21Z</time>
      </trkpt>
      <trkpt lat="44.58552" lon="5.75321">
        <ele>1166.7</ele>
        <time>2017-05-25T07:53:53Z</time>
      </trkpt>
      <trkpt lat="44.58553" lon="5.7532">
        <ele>1166.7</ele>
        <time>2017-05-25T07:54:34Z</time>
      </trkpt>
      <trkpt lat="44.58551" lon="5.75318">
        <ele>1166.7</ele>
        <time>2017-05-25T07:55:07Z</time>
      </trkpt>
      <trkpt lat="44.58549" lon="5.7532">
        <ele>1166.7</ele>
        <time>2017-05-25T07:55:45Z</time>
      </trkpt>
      <trkpt lat="44.58554" lon="5.7532">
        <ele>1166.7</ele>
        <time>2017-05-25T07:56:18Z</time>
      </trkpt>
      <trkpt lat="44.58553" lon="5.75319">
        <ele>1167.18</ele>
        <time>2017-05-25T07:56:55Z</time>
      </trkpt>
      <trkpt lat="44.5855" lon="5.75321">
        <ele>1167.18</ele>
        <time>2017-05-25T07:57:27Z</time>
      </trkpt>
      <trkpt lat="44.58549" lon="5.7532">
        <ele>1167.18</ele>
        <time>2017-05-25T07:57:55Z</time>
      </trkpt>
      <trkpt lat="44.58553" lon="5.75317">
        <ele>1168.14</ele>
        <time>2017-05-25T07:58:23Z</time>
      </trkpt>
      <trkpt lat="44.58554" lon="5.75314">
        <ele>1168.62</ele>
        <time>2017-05-25T07:58:37Z</time>
      </trkpt>
      <trkpt lat="44.58552" lon="5.75307">
        <ele>1168.62</ele>
        <time>2017-05-25T07:59:01Z</time>
      </trkpt>
      <trkpt lat="44.58551" lon="5.75309">
        <ele>1168.62</ele>
        <time>2017-05-25T07:59:31Z</time>
      </trkpt>
      <trkpt lat="44.58554" lon="5.75309">
        <ele>1169.1</ele>
        <time>2017-05-25T08:00:03Z</time>
      </trkpt>
      <trkpt lat="44.58549" lon="5.7531">
        <ele>1169.1</ele>
        <time>2017-05-25T08:00:17Z</time>
      </trkpt>
      <trkpt lat="44.58555" lon="5.75324">
        <ele>1168.14</ele>
        <time>2017-05-25T08:00:35Z</time>
      </trkpt>
      <trkpt lat="44.58554" lon="5.75329">
        <ele>1168.14</ele>
        <time>2017-05-25T08:00:57Z</time>
      </trkpt>
      <trkpt lat="44.58553" lon="5.75328">
        <ele>1168.14</ele>
        <time>2017-05-25T08:01:25Z</time>
      </trkpt>
      <trkpt lat="44.58553" lon="5.75326">
        <ele>1168.62</ele>
        <time>2017-05-25T08:01:59Z</time>
      </trkpt>
      <trkpt lat="44.58553" lon="5.75326">
        <ele>1168.62</ele>
        <time>2017-05-25T08:02:26Z</time>
      </trkpt>
      <trkpt lat="44.58556" lon="5.75326">
        <ele>1169.1</ele>
        <time>2017-05-25T08:02:56Z</time>
      </trkpt>
      <trkpt lat="44.58553" lon="5.75317">
        <ele>1170.06</ele>
        <time>2017-05-25T08:03:08Z</time>
      </trkpt>
      <trkpt lat="44.58559" lon="5.75317">
        <ele>1170.06</ele>
        <time>2017-05-25T08:03:22Z</time>
      </trkpt>
      <trkpt lat="44.58561" lon="5.7532">
        <ele>1170.06</ele>
        <time>2017-05-25T08:03:40Z</time>
      </trkpt>
      <trkpt lat="44.58565" lon="5.7532">
        <ele>1170.06</ele>
        <time>2017-05-25T08:04:10Z</time>
      </trkpt>
      <trkpt lat="44.5857" lon="5.75321">
        <ele>1170.54</ele>
        <time>2017-05-25T08:04:26Z</time>
      </trkpt>
      <trkpt lat="44.58576" lon="5.75322">
        <ele>1170.54</ele>
        <time>2017-05-25T08:04:33Z</time>
      </trkpt>
      <trkpt lat="44.58579" lon="5.75323">
        <ele>1170.54</ele>
        <time>2017-05-25T08:04:37Z</time>
      </trkpt>
      <trkpt lat="44.58593" lon="5.75326">
        <ele>1171.02</ele>
        <time>2017-05-25T08:04:51Z</time>
      </trkpt>
      <trkpt lat="44.58608" lon="5.75327">
        <ele>1171.98</ele>
        <time>2017-05-25T08:05:05Z</time>
      </trkpt>
      <trkpt lat="44.58623" lon="5.75328">
        <ele>1172.47</ele>
        <time>2017-05-25T08:05:19Z</time>
      </trkpt>
      <trkpt lat="44.5864" lon="5.7533">
        <ele>1172.95</ele>
        <time>2017-05-25T08:05:34Z</time>
      </trkpt>
      <trkpt lat="44.58657" lon="5.75333">
        <ele>1172.47</ele>
        <time>2017-05-25T08:05:50Z</time>
      </trkpt>
      <trkpt lat="44.58666" lon="5.75341">
        <ele>1172.47</ele>
        <time>2017-05-25T08:05:58Z</time>
      </trkpt>
      <trkpt lat="44.58679" lon="5.75356">
        <ele>1172.95</ele>
        <time>2017-05-25T08:06:13Z</time>
      </trkpt>
      <trkpt lat="44.58688" lon="5.75376">
        <ele>1173.91</ele>
        <time>2017-05-25T08:06:28Z</time>
      </trkpt>
      <trkpt lat="44.58696" lon="5.75394">
        <ele>1174.87</ele>
        <time>2017-05-25T08:06:42Z</time>
      </trkpt>
      <trkpt lat="44.58705" lon="5.75417">
        <ele>1176.31</ele>
        <time>2017-05-25T08:06:59Z</time>
      </trkpt>
      <trkpt lat="44.58714" lon="5.75432">
        <ele>1178.23</ele>
        <time>2017-05-25T08:07:14Z</time>
      </trkpt>
      <trkpt lat="44.58725" lon="5.75445">
        <ele>1179.19</ele>
        <time>2017-05-25T08:07:30Z</time>
      </trkpt>
      <trkpt lat="44.58739" lon="5.75455">
        <ele>1180.64</ele>
        <time>2017-05-25T08:07:46Z</time>
      </trkpt>
      <trkpt lat="44.5875" lon="5.75457">
        <ele>1182.08</ele>
        <time>2017-05-25T08:07:58Z</time>
      </trkpt>
      <trkpt lat="44.58766" lon="5.75463">
        <ele>1186.4</ele>
        <time>2017-05-25T08:08:17Z</time>
      </trkpt>
      <trkpt lat="44.58777" lon="5.75464">
        <ele>1186.88</ele>
        <time>2017-05-25T08:08:32Z</time>
      </trkpt>
      <trkpt lat="44.58785" lon="5.75465">
        <ele>1187.85</ele>
        <time>2017-05-25T08:08:41Z</time>
      </trkpt>
      <trkpt lat="44.58806" lon="5.75478">
        <ele>1186.4</ele>
        <time>2017-05-25T08:08:59Z</time>
      </trkpt>
      <trkpt lat="44.58818" lon="5.75486">
        <ele>1185.92</ele>
        <time>2017-05-25T08:09:13Z</time>
      </trkpt>
      <trkpt lat="44.58834" lon="5.75493">
        <ele>1188.33</ele>
        <time>2017-05-25T08:09:28Z</time>
      </trkpt>
      <trkpt lat="44.58853" lon="5.75503">
        <ele>1185.92</ele>
        <time>2017-05-25T08:09:44Z</time>
      </trkpt>
      <trkpt lat="44.58869" lon="5.75514">
        <ele>1184</ele>
        <time>2017-05-25T08:09:59Z</time>
      </trkpt>
      <trkpt lat="44.58884" lon="5.75517">
        <ele>1184</ele>
        <time>2017-05-25T08:10:13Z</time>
      </trkpt>
      <trkpt lat="44.58886" lon="5.75515">
        <ele>1184</ele>
        <time>2017-05-25T08:10:15Z</time>
      </trkpt>
      <trkpt lat="44.58899" lon="5.75502">
        <ele>1182.08</ele>
        <time>2017-05-25T08:10:30Z</time>
      </trkpt>
      <trkpt lat="44.58904" lon="5.75492">
        <ele>1180.16</ele>
        <time>2017-05-25T08:10:41Z</time>
      </trkpt>
      <trkpt lat="44.58918" lon="5.75483">
        <ele>1178.71</ele>
        <time>2017-05-25T08:10:54Z</time>
      </trkpt>
      <trkpt lat="44.58935" lon="5.75481">
        <ele>1178.71</ele>
        <time>2017-05-25T08:11:07Z</time>
      </trkpt>
      <trkpt lat="44.58948" lon="5.75485">
        <ele>1178.23</ele>
        <time>2017-05-25T08:11:15Z</time>
      </trkpt>
      <trkpt lat="44.5895" lon="5.75486">
        <ele>1178.23</ele>
        <time>2017-05-25T08:11:17Z</time>
      </trkpt>
      <trkpt lat="44.58961" lon="5.75508">
        <ele>1181.12</ele>
        <time>2017-05-25T08:11:32Z</time>
      </trkpt>
      <trkpt lat="44.58969" lon="5.75522">
        <ele>1184</ele>
        <time>2017-05-25T08:11:47Z</time>
      </trkpt>
      <trkpt lat="44.58977" lon="5.75532">
        <ele>1185.44</ele>
        <time>2017-05-25T08:12:00Z</time>
      </trkpt>
      <trkpt lat="44.58991" lon="5.75534">
        <ele>1186.88</ele>
        <time>2017-05-25T08:12:15Z</time>
      </trkpt>
      <trkpt lat="44.59007" lon="5.75544">
        <ele>1187.85</ele>
        <time>2017-05-25T08:12:30Z</time>
      </trkpt>
      <trkpt lat="44.5902" lon="5.75552">
        <ele>1188.81</ele>
        <time>2017-05-25T08:12:44Z</time>
      </trkpt>
      <trkpt lat="44.59036" lon="5.75554">
        <ele>1189.29</ele>
        <time>2017-05-25T08:12:59Z</time>
      </trkpt>
      <trkpt lat="44.59055" lon="5.75559">
        <ele>1189.29</ele>
        <time>2017-05-25T08:13:15Z</time>
      </trkpt>
      <trkpt lat="44.59066" lon="5.75575">
        <ele>1190.25</ele>
        <time>2017-05-25T08:13:30Z</time>
      </trkpt>
      <trkpt lat="44.59077" lon="5.75592">
        <ele>1191.69</ele>
        <time>2017-05-25T08:13:46Z</time>
      </trkpt>
      <trkpt lat="44.59087" lon="5.75603">
        <ele>1193.61</ele>
        <time>2017-05-25T08:14:01Z</time>
      </trkpt>
      <trkpt lat="44.59091" lon="5.75604">
        <ele>1194.09</ele>
        <time>2017-05-25T08:14:05Z</time>
      </trkpt>
      <trkpt lat="44.59102" lon="5.7561">
        <ele>1196.02</ele>
        <time>2017-05-25T08:14:20Z</time>
      </trkpt>
      <trkpt lat="44.59114" lon="5.7561">
        <ele>1198.42</ele>
        <time>2017-05-25T08:14:36Z</time>
      </trkpt>
      <trkpt lat="44.59128" lon="5.75617">
        <ele>1200.34</ele>
        <time>2017-05-25T08:14:52Z</time>
      </trkpt>
      <trkpt lat="44.59141" lon="5.75625">
        <ele>1202.75</ele>
        <time>2017-05-25T08:15:09Z</time>
      </trkpt>
      <trkpt lat="44.59152" lon="5.75636">
        <ele>1203.71</ele>
        <time>2017-05-25T08:15:23Z</time>
      </trkpt>
      <trkpt lat="44.59163" lon="5.75647">
        <ele>1205.63</ele>
        <time>2017-05-25T08:15:40Z</time>
      </trkpt>
      <trkpt lat="44.59171" lon="5.75659">
        <ele>1207.55</ele>
        <time>2017-05-25T08:15:55Z</time>
      </trkpt>
      <trkpt lat="44.59173" lon="5.75662">
        <ele>1208.03</ele>
        <time>2017-05-25T08:16:00Z</time>
      </trkpt>
      <trkpt lat="44.59181" lon="5.75671">
        <ele>1209.48</ele>
        <time>2017-05-25T08:16:15Z</time>
      </trkpt>
      <trkpt lat="44.59188" lon="5.75681">
        <ele>1210.92</ele>
        <time>2017-05-25T08:16:29Z</time>
      </trkpt>
      <trkpt lat="44.59194" lon="5.75691">
        <ele>1212.84</ele>
        <time>2017-05-25T08:16:45Z</time>
      </trkpt>
      <trkpt lat="44.59202" lon="5.757">
        <ele>1214.76</ele>
        <time>2017-05-25T08:17:02Z</time>
      </trkpt>
      <trkpt lat="44.59216" lon="5.75709">
        <ele>1217.65</ele>
        <time>2017-05-25T08:17:18Z</time>
      </trkpt>
      <trkpt lat="44.59226" lon="5.75716">
        <ele>1219.57</ele>
        <time>2017-05-25T08:17:34Z</time>
      </trkpt>
      <trkpt lat="44.5924" lon="5.75726">
        <ele>1221.97</ele>
        <time>2017-05-25T08:17:52Z</time>
      </trkpt>
      <trkpt lat="44.59244" lon="5.75726">
        <ele>1222.93</ele>
        <time>2017-05-25T08:17:58Z</time>
      </trkpt>
      <trkpt lat="44.59258" lon="5.75736">
        <ele>1223.9</ele>
        <time>2017-05-25T08:18:14Z</time>
      </trkpt>
      <trkpt lat="44.59261" lon="5.75758">
        <ele>1225.34</ele>
        <time>2017-05-25T08:18:30Z</time>
      </trkpt>
      <trkpt lat="44.59256" lon="5.7577">
        <ele>1225.82</ele>
        <time>2017-05-25T08:18:45Z</time>
      </trkpt>
      <trkpt lat="44.59246" lon="5.75774">
        <ele>1225.82</ele>
        <time>2017-05-25T08:18:59Z</time>
      </trkpt>
      <trkpt lat="44.59233" lon="5.75777">
        <ele>1226.3</ele>
        <time>2017-05-25T08:19:12Z</time>
      </trkpt>
      <trkpt lat="44.59219" lon="5.75775">
        <ele>1228.7</ele>
        <time>2017-05-25T08:19:26Z</time>
      </trkpt>
      <trkpt lat="44.5921" lon="5.75772">
        <ele>1230.62</ele>
        <time>2017-05-25T08:19:39Z</time>
      </trkpt>
      <trkpt lat="44.59204" lon="5.75776">
        <ele>1231.11</ele>
        <time>2017-05-25T08:19:45Z</time>
      </trkpt>
      <trkpt lat="44.59199" lon="5.75789">
        <ele>1233.03</ele>
        <time>2017-05-25T08:19:59Z</time>
      </trkpt>
      <trkpt lat="44.59198" lon="5.75799">
        <ele>1235.43</ele>
        <time>2017-05-25T08:20:11Z</time>
      </trkpt>
      <trkpt lat="44.59205" lon="5.75807">
        <ele>1236.87</ele>
        <time>2017-05-25T08:20:26Z</time>
      </trkpt>
      <trkpt lat="44.59221" lon="5.75812">
        <ele>1238.32</ele>
        <time>2017-05-25T08:20:45Z</time>
      </trkpt>
      <trkpt lat="44.59231" lon="5.75821">
        <ele>1240.72</ele>
        <time>2017-05-25T08:21:02Z</time>
      </trkpt>
      <trkpt lat="44.59239" lon="5.75823">
        <ele>1242.64</ele>
        <time>2017-05-25T08:21:19Z</time>
      </trkpt>
      <trkpt lat="44.59248" lon="5.7583">
        <ele>1244.08</ele>
        <time>2017-05-25T08:21:34Z</time>
      </trkpt>
      <trkpt lat="44.59257" lon="5.75841">
        <ele>1246.97</ele>
        <time>2017-05-25T08:21:50Z</time>
      </trkpt>
      <trkpt lat="44.5926" lon="5.75853">
        <ele>1249.37</ele>
        <time>2017-05-25T08:22:06Z</time>
      </trkpt>
      <trkpt lat="44.59264" lon="5.75863">
        <ele>1251.77</ele>
        <time>2017-05-25T08:22:20Z</time>
      </trkpt>
      <trkpt lat="44.59269" lon="5.75876">
        <ele>1254.18</ele>
        <time>2017-05-25T08:22:37Z</time>
      </trkpt>
      <trkpt lat="44.59278" lon="5.75887">
        <ele>1256.58</ele>
        <time>2017-05-25T08:22:55Z</time>
      </trkpt>
      <trkpt lat="44.59289" lon="5.75893">
        <ele>1258.98</ele>
        <time>2017-05-25T08:23:12Z</time>
      </trkpt>
      <trkpt lat="44.59298" lon="5.75881">
        <ele>1261.39</ele>
        <time>2017-05-25T08:23:28Z</time>
      </trkpt>
      <trkpt lat="44.59307" lon="5.7587">
        <ele>1262.83</ele>
        <time>2017-05-25T08:23:43Z</time>
      </trkpt>
      <trkpt lat="44.59316" lon="5.75864">
        <ele>1263.79</ele>
        <time>2017-05-25T08:23:54Z</time>
      </trkpt>
      <trkpt lat="44.59324" lon="5.75855">
        <ele>1265.23</ele>
        <time>2017-05-25T08:24:07Z</time>
      </trkpt>
      <trkpt lat="44.59326" lon="5.75854">
        <ele>1265.71</ele>
        <time>2017-05-25T08:24:09Z</time>
      </trkpt>
      <trkpt lat="44.59336" lon="5.75847">
        <ele>1266.67</ele>
        <time>2017-05-25T08:24:20Z</time>
      </trkpt>
      <trkpt lat="44.59349" lon="5.75843">
        <ele>1269.08</ele>
        <time>2017-05-25T08:24:38Z</time>
      </trkpt>
      <trkpt lat="44.59363" lon="5.75839">
        <ele>1271</ele>
        <time>2017-05-25T08:24:54Z</time>
      </trkpt>
      <trkpt lat="44.59377" lon="5.75834">
        <ele>1272.44</ele>
        <time>2017-05-25T08:25:10Z</time>
      </trkpt>
      <trkpt lat="44.59391" lon="5.75833">
        <ele>1274.85</ele>
        <time>2017-05-25T08:25:27Z</time>
      </trkpt>
      <trkpt lat="44.59396" lon="5.75855">
        <ele>1277.25</ele>
        <time>2017-05-25T08:25:45Z</time>
      </trkpt>
      <trkpt lat="44.59392" lon="5.75869">
        <ele>1280.13</ele>
        <time>2017-05-25T08:26:01Z</time>
      </trkpt>
      <trkpt lat="44.5939" lon="5.75886">
        <ele>1282.54</ele>
        <time>2017-05-25T08:26:16Z</time>
      </trkpt>
      <trkpt lat="44.59388" lon="5.75899">
        <ele>1283.98</ele>
        <time>2017-05-25T08:26:29Z</time>
      </trkpt>
      <trkpt lat="44.59387" lon="5.75911">
        <ele>1285.9</ele>
        <time>2017-05-25T08:26:44Z</time>
      </trkpt>
      <trkpt lat="44.59383" lon="5.75927">
        <ele>1287.34</ele>
        <time>2017-05-25T08:27:00Z</time>
      </trkpt>
      <trkpt lat="44.59382" lon="5.7594">
        <ele>1290.23</ele>
        <time>2017-05-25T08:27:16Z</time>
      </trkpt>
      <trkpt lat="44.59382" lon="5.75957">
        <ele>1291.67</ele>
        <time>2017-05-25T08:27:31Z</time>
      </trkpt>
      <trkpt lat="44.59386" lon="5.75972">
        <ele>1293.59</ele>
        <time>2017-05-25T08:27:46Z</time>
      </trkpt>
      <trkpt lat="44.59393" lon="5.75981">
        <ele>1295.51</ele>
        <time>2017-05-25T08:28:01Z</time>
      </trkpt>
      <trkpt lat="44.594" lon="5.75972">
        <ele>1297.92</ele>
        <time>2017-05-25T08:28:17Z</time>
      </trkpt>
      <trkpt lat="44.59407" lon="5.75959">
        <ele>1299.36</ele>
        <time>2017-05-25T08:28:31Z</time>
      </trkpt>
      <trkpt lat="44.59415" lon="5.75949">
        <ele>1301.28</ele>
        <time>2017-05-25T08:28:46Z</time>
      </trkpt>
      <trkpt lat="44.59426" lon="5.75944">
        <ele>1302.72</ele>
        <time>2017-05-25T08:29:02Z</time>
      </trkpt>
      <trkpt lat="44.59435" lon="5.75937">
        <ele>1304.17</ele>
        <time>2017-05-25T08:29:16Z</time>
      </trkpt>
      <trkpt lat="44.59446" lon="5.75941">
        <ele>1306.09</ele>
        <time>2017-05-25T08:29:32Z</time>
      </trkpt>
      <trkpt lat="44.59459" lon="5.75943">
        <ele>1308.49</ele>
        <time>2017-05-25T08:29:48Z</time>
      </trkpt>
      <trkpt lat="44.59469" lon="5.75945">
        <ele>1310.9</ele>
        <time>2017-05-25T08:30:03Z</time>
      </trkpt>
      <trkpt lat="44.59478" lon="5.75959">
        <ele>1313.3</ele>
        <time>2017-05-25T08:30:21Z</time>
      </trkpt>
      <trkpt lat="44.59485" lon="5.75972">
        <ele>1316.18</ele>
        <time>2017-05-25T08:30:39Z</time>
      </trkpt>
      <trkpt lat="44.59488" lon="5.75985">
        <ele>1318.59</ele>
        <time>2017-05-25T08:30:56Z</time>
      </trkpt>
      <trkpt lat="44.59493" lon="5.76001">
        <ele>1320.99</ele>
        <time>2017-05-25T08:31:14Z</time>
      </trkpt>
      <trkpt lat="44.59494" lon="5.76013">
        <ele>1323.39</ele>
        <time>2017-05-25T08:31:34Z</time>
      </trkpt>
      <trkpt lat="44.59502" lon="5.76026">
        <ele>1326.28</ele>
        <time>2017-05-25T08:31:52Z</time>
      </trkpt>
      <trkpt lat="44.59509" lon="5.76041">
        <ele>1329.16</ele>
        <time>2017-05-25T08:32:12Z</time>
      </trkpt>
      <trkpt lat="44.59519" lon="5.76054">
        <ele>1331.56</ele>
        <time>2017-05-25T08:32:29Z</time>
      </trkpt>
      <trkpt lat="44.59525" lon="5.76067">
        <ele>1333.97</ele>
        <time>2017-05-25T08:32:47Z</time>
      </trkpt>
      <trkpt lat="44.59539" lon="5.76071">
        <ele>1336.85</ele>
        <time>2017-05-25T08:33:06Z</time>
      </trkpt>
      <trkpt lat="44.59548" lon="5.76078">
        <ele>1339.73</ele>
        <time>2017-05-25T08:33:23Z</time>
      </trkpt>
      <trkpt lat="44.59556" lon="5.76087">
        <ele>1342.14</ele>
        <time>2017-05-25T08:33:40Z</time>
      </trkpt>
      <trkpt lat="44.59562" lon="5.76096">
        <ele>1344.06</ele>
        <time>2017-05-25T08:33:52Z</time>
      </trkpt>
      <trkpt lat="44.59571" lon="5.76097">
        <ele>1345.98</ele>
        <time>2017-05-25T08:34:10Z</time>
      </trkpt>
      <trkpt lat="44.59572" lon="5.76098">
        <ele>1346.46</ele>
        <time>2017-05-25T08:34:12Z</time>
      </trkpt>
      <trkpt lat="44.59582" lon="5.76102">
        <ele>1349.35</ele>
        <time>2017-05-25T08:34:30Z</time>
      </trkpt>
      <trkpt lat="44.59591" lon="5.76108">
        <ele>1351.75</ele>
        <time>2017-05-25T08:34:46Z</time>
      </trkpt>
      <trkpt lat="44.59601" lon="5.76117">
        <ele>1354.15</ele>
        <time>2017-05-25T08:35:06Z</time>
      </trkpt>
      <trkpt lat="44.5961" lon="5.76129">
        <ele>1356.56</ele>
        <time>2017-05-25T08:35:24Z</time>
      </trkpt>
      <trkpt lat="44.5962" lon="5.76137">
        <ele>1358.96</ele>
        <time>2017-05-25T08:35:41Z</time>
      </trkpt>
      <trkpt lat="44.59626" lon="5.76143">
        <ele>1361.84</ele>
        <time>2017-05-25T08:35:58Z</time>
      </trkpt>
      <trkpt lat="44.59636" lon="5.76149">
        <ele>1364.25</ele>
        <time>2017-05-25T08:36:16Z</time>
      </trkpt>
      <trkpt lat="44.59645" lon="5.76151">
        <ele>1367.61</ele>
        <time>2017-05-25T08:36:34Z</time>
      </trkpt>
      <trkpt lat="44.59655" lon="5.76158">
        <ele>1369.54</ele>
        <time>2017-05-25T08:36:48Z</time>
      </trkpt>
      <trkpt lat="44.59664" lon="5.76165">
        <ele>1372.42</ele>
        <time>2017-05-25T08:37:08Z</time>
      </trkpt>
      <trkpt lat="44.59674" lon="5.76175">
        <ele>1375.3</ele>
        <time>2017-05-25T08:37:27Z</time>
      </trkpt>
      <trkpt lat="44.59684" lon="5.76181">
        <ele>1377.23</ele>
        <time>2017-05-25T08:37:43Z</time>
      </trkpt>
      <trkpt lat="44.59689" lon="5.7619">
        <ele>1379.63</ele>
        <time>2017-05-25T08:38:00Z</time>
      </trkpt>
      <trkpt lat="44.59694" lon="5.76191">
        <ele>1381.07</ele>
        <time>2017-05-25T08:38:17Z</time>
      </trkpt>
      <trkpt lat="44.5969" lon="5.76195">
        <ele>1381.55</ele>
        <time>2017-05-25T08:38:38Z</time>
      </trkpt>
      <trkpt lat="44.5969" lon="5.76192">
        <ele>1381.55</ele>
        <time>2017-05-25T08:38:59Z</time>
      </trkpt>
      <trkpt lat="44.59692" lon="5.76192">
        <ele>1381.55</ele>
        <time>2017-05-25T08:39:17Z</time>
      </trkpt>
      <trkpt lat="44.59694" lon="5.76188">
        <ele>1382.03</ele>
        <time>2017-05-25T08:39:47Z</time>
      </trkpt>
      <trkpt lat="44.59692" lon="5.76183">
        <ele>1382.03</ele>
        <time>2017-05-25T08:40:08Z</time>
      </trkpt>
      <trkpt lat="44.59695" lon="5.76181">
        <ele>1383.47</ele>
        <time>2017-05-25T08:40:36Z</time>
      </trkpt>
      <trkpt lat="44.59695" lon="5.76186">
        <ele>1382.51</ele>
        <time>2017-05-25T08:41:06Z</time>
      </trkpt>
      <trkpt lat="44.597" lon="5.76196">
        <ele>1382.99</ele>
        <time>2017-05-25T08:41:33Z</time>
      </trkpt>
      <trkpt lat="44.597" lon="5.76193">
        <ele>1382.99</ele>
        <time>2017-05-25T08:42:06Z</time>
      </trkpt>
      <trkpt lat="44.59696" lon="5.76186">
        <ele>1382.99</ele>
        <time>2017-05-25T08:42:36Z</time>
      </trkpt>
      <trkpt lat="44.5969" lon="5.76188">
        <ele>1383.47</ele>
        <time>2017-05-25T08:43:08Z</time>
      </trkpt>
      <trkpt lat="44.59698" lon="5.76195">
        <ele>1384.44</ele>
        <time>2017-05-25T08:43:40Z</time>
      </trkpt>
      <trkpt lat="44.59708" lon="5.76209">
        <ele>1387.32</ele>
        <time>2017-05-25T08:43:57Z</time>
      </trkpt>
      <trkpt lat="44.59716" lon="5.76211">
        <ele>1389.24</ele>
        <time>2017-05-25T08:44:12Z</time>
      </trkpt>
      <trkpt lat="44.59726" lon="5.76219">
        <ele>1392.13</ele>
        <time>2017-05-25T08:44:28Z</time>
      </trkpt>
      <trkpt lat="44.59736" lon="5.76222">
        <ele>1394.53</ele>
        <time>2017-05-25T08:44:41Z</time>
      </trkpt>
      <trkpt lat="44.59743" lon="5.76226">
        <ele>1397.41</ele>
        <time>2017-05-25T08:45:00Z</time>
      </trkpt>
      <trkpt lat="44.59754" lon="5.76231">
        <ele>1400.78</ele>
        <time>2017-05-25T08:45:21Z</time>
      </trkpt>
      <trkpt lat="44.59763" lon="5.76241">
        <ele>1403.66</ele>
        <time>2017-05-25T08:45:41Z</time>
      </trkpt>
      <trkpt lat="44.59776" lon="5.76248">
        <ele>1406.07</ele>
        <time>2017-05-25T08:45:58Z</time>
      </trkpt>
      <trkpt lat="44.59782" lon="5.76256">
        <ele>1407.99</ele>
        <time>2017-05-25T08:46:13Z</time>
      </trkpt>
      <trkpt lat="44.59792" lon="5.76264">
        <ele>1410.87</ele>
        <time>2017-05-25T08:46:32Z</time>
      </trkpt>
      <trkpt lat="44.59801" lon="5.76273">
        <ele>1413.28</ele>
        <time>2017-05-25T08:46:51Z</time>
      </trkpt>
      <trkpt lat="44.59812" lon="5.7628">
        <ele>1416.16</ele>
        <time>2017-05-25T08:47:10Z</time>
      </trkpt>
      <trkpt lat="44.59823" lon="5.76287">
        <ele>1418.56</ele>
        <time>2017-05-25T08:47:25Z</time>
      </trkpt>
      <trkpt lat="44.59834" lon="5.76297">
        <ele>1420.97</ele>
        <time>2017-05-25T08:47:45Z</time>
      </trkpt>
      <trkpt lat="44.59845" lon="5.76303">
        <ele>1422.89</ele>
        <time>2017-05-25T08:48:00Z</time>
      </trkpt>
      <trkpt lat="44.59854" lon="5.76303">
        <ele>1425.77</ele>
        <time>2017-05-25T08:48:15Z</time>
      </trkpt>
      <trkpt lat="44.59865" lon="5.76299">
        <ele>1427.7</ele>
        <time>2017-05-25T08:48:32Z</time>
      </trkpt>
      <trkpt lat="44.59872" lon="5.76305">
        <ele>1430.1</ele>
        <time>2017-05-25T08:48:45Z</time>
      </trkpt>
      <trkpt lat="44.59881" lon="5.76321">
        <ele>1432.5</ele>
        <time>2017-05-25T08:49:01Z</time>
      </trkpt>
      <trkpt lat="44.59886" lon="5.7633">
        <ele>1434.91</ele>
        <time>2017-05-25T08:49:16Z</time>
      </trkpt>
      <trkpt lat="44.59889" lon="5.76341">
        <ele>1437.31</ele>
        <time>2017-05-25T08:49:31Z</time>
      </trkpt>
      <trkpt lat="44.59887" lon="5.76355">
        <ele>1439.71</ele>
        <time>2017-05-25T08:49:51Z</time>
      </trkpt>
      <trkpt lat="44.59883" lon="5.76369">
        <ele>1441.63</ele>
        <time>2017-05-25T08:50:06Z</time>
      </trkpt>
      <trkpt lat="44.59878" lon="5.7638">
        <ele>1443.56</ele>
        <time>2017-05-25T08:50:20Z</time>
      </trkpt>
      <trkpt lat="44.59875" lon="5.76396">
        <ele>1445.96</ele>
        <time>2017-05-25T08:50:38Z</time>
      </trkpt>
      <trkpt lat="44.5987" lon="5.76412">
        <ele>1447.4</ele>
        <time>2017-05-25T08:50:53Z</time>
      </trkpt>
      <trkpt lat="44.59865" lon="5.76425">
        <ele>1449.32</ele>
        <time>2017-05-25T08:51:10Z</time>
      </trkpt>
      <trkpt lat="44.59862" lon="5.76439">
        <ele>1451.73</ele>
        <time>2017-05-25T08:51:29Z</time>
      </trkpt>
      <trkpt lat="44.59857" lon="5.76456">
        <ele>1454.61</ele>
        <time>2017-05-25T08:51:48Z</time>
      </trkpt>
      <trkpt lat="44.59852" lon="5.76471">
        <ele>1456.53</ele>
        <time>2017-05-25T08:52:05Z</time>
      </trkpt>
      <trkpt lat="44.59845" lon="5.76484">
        <ele>1458.94</ele>
        <time>2017-05-25T08:52:20Z</time>
      </trkpt>
      <trkpt lat="44.5984" lon="5.76498">
        <ele>1461.82</ele>
        <time>2017-05-25T08:52:40Z</time>
      </trkpt>
      <trkpt lat="44.59835" lon="5.76512">
        <ele>1464.71</ele>
        <time>2017-05-25T08:52:57Z</time>
      </trkpt>
      <trkpt lat="44.59829" lon="5.76526">
        <ele>1466.63</ele>
        <time>2017-05-25T08:53:14Z</time>
      </trkpt>
      <trkpt lat="44.59825" lon="5.76538">
        <ele>1469.03</ele>
        <time>2017-05-25T08:53:29Z</time>
      </trkpt>
      <trkpt lat="44.59821" lon="5.76549">
        <ele>1471.92</ele>
        <time>2017-05-25T08:53:45Z</time>
      </trkpt>
      <trkpt lat="44.59815" lon="5.76557">
        <ele>1474.8</ele>
        <time>2017-05-25T08:54:00Z</time>
      </trkpt>
      <trkpt lat="44.5981" lon="5.76565">
        <ele>1476.24</ele>
        <time>2017-05-25T08:54:15Z</time>
      </trkpt>
      <trkpt lat="44.59811" lon="5.76566">
        <ele>1477.2</ele>
        <time>2017-05-25T08:54:31Z</time>
      </trkpt>
      <trkpt lat="44.59811" lon="5.76564">
        <ele>1476.72</ele>
        <time>2017-05-25T08:54:55Z</time>
      </trkpt>
      <trkpt lat="44.59813" lon="5.76565">
        <ele>1477.2</ele>
        <time>2017-05-25T08:55:13Z</time>
      </trkpt>
      <trkpt lat="44.5981" lon="5.76565">
        <ele>1477.2</ele>
        <time>2017-05-25T08:55:36Z</time>
      </trkpt>
      <trkpt lat="44.59813" lon="5.76563">
        <ele>1476.24</ele>
        <time>2017-05-25T08:55:56Z</time>
      </trkpt>
      <trkpt lat="44.59813" lon="5.76566">
        <ele>1477.68</ele>
        <time>2017-05-25T08:56:15Z</time>
      </trkpt>
      <trkpt lat="44.59811" lon="5.76566">
        <ele>1477.68</ele>
        <time>2017-05-25T08:56:36Z</time>
      </trkpt>
      <trkpt lat="44.59813" lon="5.76565">
        <ele>1477.68</ele>
        <time>2017-05-25T08:56:58Z</time>
      </trkpt>
      <trkpt lat="44.59812" lon="5.76565">
        <ele>1477.68</ele>
        <time>2017-05-25T08:57:22Z</time>
      </trkpt>
      <trkpt lat="44.59812" lon="5.76566">
        <ele>1478.16</ele>
        <time>2017-05-25T08:57:41Z</time>
      </trkpt>
      <trkpt lat="44.59814" lon="5.76567">
        <ele>1478.16</ele>
        <time>2017-05-25T08:57:57Z</time>
      </trkpt>
      <trkpt lat="44.59812" lon="5.76566">
        <ele>1478.65</ele>
        <time>2017-05-25T08:58:19Z</time>
      </trkpt>
      <trkpt lat="44.59811" lon="5.76563">
        <ele>1478.65</ele>
        <time>2017-05-25T08:58:44Z</time>
      </trkpt>
      <trkpt lat="44.59812" lon="5.76563">
        <ele>1478.65</ele>
        <time>2017-05-25T08:59:16Z</time>
      </trkpt>
      <trkpt lat="44.59808" lon="5.76567">
        <ele>1479.13</ele>
        <time>2017-05-25T08:59:39Z</time>
      </trkpt>
      <trkpt lat="44.5981" lon="5.76569">
        <ele>1479.13</ele>
        <time>2017-05-25T09:00:02Z</time>
      </trkpt>
      <trkpt lat="44.59809" lon="5.76562">
        <ele>1479.13</ele>
        <time>2017-05-25T09:00:30Z</time>
      </trkpt>
      <trkpt lat="44.59809" lon="5.76566">
        <ele>1479.61</ele>
        <time>2017-05-25T09:00:56Z</time>
      </trkpt>
      <trkpt lat="44.59811" lon="5.76563">
        <ele>1479.61</ele>
        <time>2017-05-25T09:01:23Z</time>
      </trkpt>
      <trkpt lat="44.59813" lon="5.76574">
        <ele>1480.09</ele>
        <time>2017-05-25T09:01:45Z</time>
      </trkpt>
      <trkpt lat="44.59813" lon="5.76576">
        <ele>1479.61</ele>
        <time>2017-05-25T09:02:14Z</time>
      </trkpt>
      <trkpt lat="44.59813" lon="5.76575">
        <ele>1480.09</ele>
        <time>2017-05-25T09:02:37Z</time>
      </trkpt>
      <trkpt lat="44.5981" lon="5.7657">
        <ele>1480.09</ele>
        <time>2017-05-25T09:02:56Z</time>
      </trkpt>
      <trkpt lat="44.5981" lon="5.76565">
        <ele>1480.09</ele>
        <time>2017-05-25T09:03:13Z</time>
      </trkpt>
      <trkpt lat="44.5981" lon="5.76564">
        <ele>1480.57</ele>
        <time>2017-05-25T09:03:31Z</time>
      </trkpt>
      <trkpt lat="44.59812" lon="5.76562">
        <ele>1480.09</ele>
        <time>2017-05-25T09:03:33Z</time>
      </trkpt>
      <trkpt lat="44.59815" lon="5.76561">
        <ele>1480.09</ele>
        <time>2017-05-25T09:03:35Z</time>
      </trkpt>
      <trkpt lat="44.59825" lon="5.76564">
        <ele>1482.49</ele>
        <time>2017-05-25T09:03:48Z</time>
      </trkpt>
      <trkpt lat="44.59836" lon="5.76563">
        <ele>1485.37</ele>
        <time>2017-05-25T09:04:03Z</time>
      </trkpt>
      <trkpt lat="44.59845" lon="5.76563">
        <ele>1487.78</ele>
        <time>2017-05-25T09:04:18Z</time>
      </trkpt>
      <trkpt lat="44.59857" lon="5.7656">
        <ele>1490.66</ele>
        <time>2017-05-25T09:04:37Z</time>
      </trkpt>
      <trkpt lat="44.59866" lon="5.76561">
        <ele>1492.58</ele>
        <time>2017-05-25T09:04:53Z</time>
      </trkpt>
      <trkpt lat="44.59875" lon="5.76558">
        <ele>1494.51</ele>
        <time>2017-05-25T09:05:07Z</time>
      </trkpt>
      <trkpt lat="44.59886" lon="5.7656">
        <ele>1495.47</ele>
        <time>2017-05-25T09:05:22Z</time>
      </trkpt>
      <trkpt lat="44.59886" lon="5.76563">
        <ele>1495.95</ele>
        <time>2017-05-25T09:05:36Z</time>
      </trkpt>
      <trkpt lat="44.59886" lon="5.76565">
        <ele>1495.95</ele>
        <time>2017-05-25T09:05:50Z</time>
      </trkpt>
      <trkpt lat="44.59884" lon="5.76566">
        <ele>1495.95</ele>
        <time>2017-05-25T09:06:05Z</time>
      </trkpt>
      <trkpt lat="44.59883" lon="5.76573">
        <ele>1497.39</ele>
        <time>2017-05-25T09:06:18Z</time>
      </trkpt>
      <trkpt lat="44.5988" lon="5.76578">
        <ele>1499.31</ele>
        <time>2017-05-25T09:06:31Z</time>
      </trkpt>
      <trkpt lat="44.59876" lon="5.76591">
        <ele>1501.24</ele>
        <time>2017-05-25T09:06:46Z</time>
      </trkpt>
      <trkpt lat="44.59872" lon="5.76595">
        <ele>1502.2</ele>
        <time>2017-05-25T09:07:00Z</time>
      </trkpt>
      <trkpt lat="44.59873" lon="5.76595">
        <ele>1502.2</ele>
        <time>2017-05-25T09:07:19Z</time>
      </trkpt>
      <trkpt lat="44.59871" lon="5.766">
        <ele>1502.2</ele>
        <time>2017-05-25T09:07:36Z</time>
      </trkpt>
      <trkpt lat="44.59871" lon="5.76608">
        <ele>1504.12</ele>
        <time>2017-05-25T09:07:49Z</time>
      </trkpt>
      <trkpt lat="44.59875" lon="5.76612">
        <ele>1506.04</ele>
        <time>2017-05-25T09:08:04Z</time>
      </trkpt>
      <trkpt lat="44.59884" lon="5.76614">
        <ele>1508.45</ele>
        <time>2017-05-25T09:08:20Z</time>
      </trkpt>
      <trkpt lat="44.59892" lon="5.76617">
        <ele>1510.37</ele>
        <time>2017-05-25T09:08:35Z</time>
      </trkpt>
      <trkpt lat="44.599" lon="5.76618">
        <ele>1512.77</ele>
        <time>2017-05-25T09:08:50Z</time>
      </trkpt>
      <trkpt lat="44.59905" lon="5.76619">
        <ele>1514.21</ele>
        <time>2017-05-25T09:09:01Z</time>
      </trkpt>
      <trkpt lat="44.59906" lon="5.76619">
        <ele>1514.21</ele>
        <time>2017-05-25T09:09:02Z</time>
      </trkpt>
      <trkpt lat="44.59908" lon="5.7662">
        <ele>1515.18</ele>
        <time>2017-05-25T09:09:07Z</time>
      </trkpt>
      <trkpt lat="44.59916" lon="5.76617">
        <ele>1515.66</ele>
        <time>2017-05-25T09:09:15Z</time>
      </trkpt>
      <trkpt lat="44.59925" lon="5.76612">
        <ele>1516.14</ele>
        <time>2017-05-25T09:09:27Z</time>
      </trkpt>
      <trkpt lat="44.59929" lon="5.76611">
        <ele>1518.06</ele>
        <time>2017-05-25T09:09:39Z</time>
      </trkpt>
      <trkpt lat="44.59937" lon="5.76609">
        <ele>1519.5</ele>
        <time>2017-05-25T09:09:53Z</time>
      </trkpt>
      <trkpt lat="44.59944" lon="5.76612">
        <ele>1520.94</ele>
        <time>2017-05-25T09:10:05Z</time>
      </trkpt>
      <trkpt lat="44.59948" lon="5.76607">
        <ele>1522.39</ele>
        <time>2017-05-25T09:10:19Z</time>
      </trkpt>
      <trkpt lat="44.59959" lon="5.76601">
        <ele>1523.35</ele>
        <time>2017-05-25T09:10:33Z</time>
      </trkpt>
      <trkpt lat="44.59965" lon="5.76597">
        <ele>1524.31</ele>
        <time>2017-05-25T09:10:45Z</time>
      </trkpt>
      <trkpt lat="44.59973" lon="5.7659">
        <ele>1525.75</ele>
        <time>2017-05-25T09:10:57Z</time>
      </trkpt>
      <trkpt lat="44.59982" lon="5.76582">
        <ele>1527.19</ele>
        <time>2017-05-25T09:11:12Z</time>
      </trkpt>
      <trkpt lat="44.59988" lon="5.7658">
        <ele>1528.15</ele>
        <time>2017-05-25T09:11:23Z</time>
      </trkpt>
      <trkpt lat="44.59992" lon="5.76577">
        <ele>1528.63</ele>
        <time>2017-05-25T09:11:28Z</time>
      </trkpt>
      <trkpt lat="44.59994" lon="5.76575">
        <ele>1529.11</ele>
        <time>2017-05-25T09:11:31Z</time>
      </trkpt>
      <trkpt lat="44.60001" lon="5.76569">
        <ele>1530.56</ele>
        <time>2017-05-25T09:11:44Z</time>
      </trkpt>
      <trkpt lat="44.60006" lon="5.76564">
        <ele>1532</ele>
        <time>2017-05-25T09:11:55Z</time>
      </trkpt>
      <trkpt lat="44.60005" lon="5.76564">
        <ele>1532</ele>
        <time>2017-05-25T09:12:07Z</time>
      </trkpt>
      <trkpt lat="44.60009" lon="5.76557">
        <ele>1532.96</ele>
        <time>2017-05-25T09:12:19Z</time>
      </trkpt>
      <trkpt lat="44.60019" lon="5.76554">
        <ele>1534.88</ele>
        <time>2017-05-25T09:12:31Z</time>
      </trkpt>
      <trkpt lat="44.60024" lon="5.76549">
        <ele>1536.32</ele>
        <time>2017-05-25T09:12:43Z</time>
      </trkpt>
      <trkpt lat="44.60026" lon="5.76543">
        <ele>1537.29</ele>
        <time>2017-05-25T09:12:55Z</time>
      </trkpt>
      <trkpt lat="44.6003" lon="5.76536">
        <ele>1538.25</ele>
        <time>2017-05-25T09:13:05Z</time>
      </trkpt>
      <trkpt lat="44.60038" lon="5.76531">
        <ele>1540.17</ele>
        <time>2017-05-25T09:13:19Z</time>
      </trkpt>
      <trkpt lat="44.60043" lon="5.76527">
        <ele>1541.61</ele>
        <time>2017-05-25T09:13:32Z</time>
      </trkpt>
      <trkpt lat="44.60049" lon="5.76522">
        <ele>1542.57</ele>
        <time>2017-05-25T09:13:47Z</time>
      </trkpt>
      <trkpt lat="44.60051" lon="5.7652">
        <ele>1544.01</ele>
        <time>2017-05-25T09:13:52Z</time>
      </trkpt>
      <trkpt lat="44.60055" lon="5.76516">
        <ele>1545.46</ele>
        <time>2017-05-25T09:14:04Z</time>
      </trkpt>
      <trkpt lat="44.60059" lon="5.76513">
        <ele>1546.9</ele>
        <time>2017-05-25T09:14:19Z</time>
      </trkpt>
      <trkpt lat="44.60067" lon="5.76509">
        <ele>1549.3</ele>
        <time>2017-05-25T09:14:34Z</time>
      </trkpt>
      <trkpt lat="44.60073" lon="5.76503">
        <ele>1551.22</ele>
        <time>2017-05-25T09:14:47Z</time>
      </trkpt>
      <trkpt lat="44.60078" lon="5.76499">
        <ele>1553.15</ele>
        <time>2017-05-25T09:14:59Z</time>
      </trkpt>
      <trkpt lat="44.60083" lon="5.76495">
        <ele>1554.11</ele>
        <time>2017-05-25T09:15:14Z</time>
      </trkpt>
      <trkpt lat="44.60087" lon="5.76494">
        <ele>1555.55</ele>
        <time>2017-05-25T09:15:28Z</time>
      </trkpt>
      <trkpt lat="44.60092" lon="5.76489">
        <ele>1557.95</ele>
        <time>2017-05-25T09:15:43Z</time>
      </trkpt>
      <trkpt lat="44.601" lon="5.76488">
        <ele>1560.36</ele>
        <time>2017-05-25T09:15:59Z</time>
      </trkpt>
      <trkpt lat="44.60105" lon="5.76475">
        <ele>1561.32</ele>
        <time>2017-05-25T09:16:11Z</time>
      </trkpt>
      <trkpt lat="44.60109" lon="5.7646">
        <ele>1562.76</ele>
        <time>2017-05-25T09:16:26Z</time>
      </trkpt>
      <trkpt lat="44.60109" lon="5.76458">
        <ele>1562.76</ele>
        <time>2017-05-25T09:16:28Z</time>
      </trkpt>
      <trkpt lat="44.60109" lon="5.76455">
        <ele>1563.24</ele>
        <time>2017-05-25T09:16:30Z</time>
      </trkpt>
      <trkpt lat="44.60114" lon="5.76446">
        <ele>1564.68</ele>
        <time>2017-05-25T09:16:43Z</time>
      </trkpt>
      <trkpt lat="44.60118" lon="5.76441">
        <ele>1565.16</ele>
        <time>2017-05-25T09:16:50Z</time>
      </trkpt>
      <trkpt lat="44.60118" lon="5.76438">
        <ele>1565.16</ele>
        <time>2017-05-25T09:16:53Z</time>
      </trkpt>
      <trkpt lat="44.60121" lon="5.76435">
        <ele>1565.16</ele>
        <time>2017-05-25T09:16:57Z</time>
      </trkpt>
      <trkpt lat="44.60124" lon="5.76419">
        <ele>1565.64</ele>
        <time>2017-05-25T09:17:11Z</time>
      </trkpt>
      <trkpt lat="44.60126" lon="5.76417">
        <ele>1565.64</ele>
        <time>2017-05-25T09:17:14Z</time>
      </trkpt>
      <trkpt lat="44.60127" lon="5.76415">
        <ele>1566.12</ele>
        <time>2017-05-25T09:17:16Z</time>
      </trkpt>
      <trkpt lat="44.6013" lon="5.76404">
        <ele>1566.61</ele>
        <time>2017-05-25T09:17:26Z</time>
      </trkpt>
      <trkpt lat="44.60132" lon="5.76401">
        <ele>1567.09</ele>
        <time>2017-05-25T09:17:29Z</time>
      </trkpt>
      <trkpt lat="44.60135" lon="5.76393">
        <ele>1568.05</ele>
        <time>2017-05-25T09:17:37Z</time>
      </trkpt>
      <trkpt lat="44.60139" lon="5.76387">
        <ele>1568.05</ele>
        <time>2017-05-25T09:17:50Z</time>
      </trkpt>
      <trkpt lat="44.60138" lon="5.76386">
        <ele>1568.53</ele>
        <time>2017-05-25T09:18:13Z</time>
      </trkpt>
      <trkpt lat="44.60138" lon="5.76388">
        <ele>1568.53</ele>
        <time>2017-05-25T09:18:31Z</time>
      </trkpt>
      <trkpt lat="44.60136" lon="5.76397">
        <ele>1568.05</ele>
        <time>2017-05-25T09:18:53Z</time>
      </trkpt>
      <trkpt lat="44.60137" lon="5.76396">
        <ele>1568.53</ele>
        <time>2017-05-25T09:19:15Z</time>
      </trkpt>
      <trkpt lat="44.60138" lon="5.76393">
        <ele>1568.53</ele>
        <time>2017-05-25T09:19:42Z</time>
      </trkpt>
      <trkpt lat="44.60133" lon="5.76396">
        <ele>1568.53</ele>
        <time>2017-05-25T09:20:03Z</time>
      </trkpt>
      <trkpt lat="44.60137" lon="5.76398">
        <ele>1568.53</ele>
        <time>2017-05-25T09:20:24Z</time>
      </trkpt>
      <trkpt lat="44.60141" lon="5.76391">
        <ele>1568.53</ele>
        <time>2017-05-25T09:20:50Z</time>
      </trkpt>
      <trkpt lat="44.60137" lon="5.76393">
        <ele>1568.53</ele>
        <time>2017-05-25T09:21:20Z</time>
      </trkpt>
      <trkpt lat="44.6014" lon="5.76392">
        <ele>1568.53</ele>
        <time>2017-05-25T09:21:45Z</time>
      </trkpt>
      <trkpt lat="44.60142" lon="5.76396">
        <ele>1568.53</ele>
        <time>2017-05-25T09:22:18Z</time>
      </trkpt>
      <trkpt lat="44.60138" lon="5.76397">
        <ele>1568.53</ele>
        <time>2017-05-25T09:22:52Z</time>
      </trkpt>
      <trkpt lat="44.60136" lon="5.76393">
        <ele>1568.05</ele>
        <time>2017-05-25T09:23:08Z</time>
      </trkpt>
      <trkpt lat="44.6014" lon="5.76387">
        <ele>1568.05</ele>
        <time>2017-05-25T09:23:27Z</time>
      </trkpt>
      <trkpt lat="44.60147" lon="5.76378">
        <ele>1568.53</ele>
        <time>2017-05-25T09:23:41Z</time>
      </trkpt>
      <trkpt lat="44.60145" lon="5.76382">
        <ele>1568.53</ele>
        <time>2017-05-25T09:24:04Z</time>
      </trkpt>
      <trkpt lat="44.60144" lon="5.76379">
        <ele>1568.53</ele>
        <time>2017-05-25T09:24:20Z</time>
      </trkpt>
      <trkpt lat="44.60143" lon="5.76377">
        <ele>1564.68</ele>
        <time>2017-05-25T09:24:33Z</time>
      </trkpt>
      <trkpt lat="44.60143" lon="5.76377">
        <ele>1570.93</ele>
        <time>2017-05-25T09:24:34Z</time>
      </trkpt>
      <trkpt lat="44.60143" lon="5.76377">
        <ele>1569.97</ele>
        <time>2017-05-25T09:24:35Z</time>
      </trkpt>
      <trkpt lat="44.60143" lon="5.76377">
        <ele>1565.64</ele>
        <time>2017-05-25T09:24:36Z</time>
      </trkpt>
      <trkpt lat="44.60143" lon="5.76377">
        <ele>1569.01</ele>
        <time>2017-05-25T09:24:37Z</time>
      </trkpt>
      <trkpt lat="44.60145" lon="5.7638">
        <ele>1569.01</ele>
        <time>2017-05-25T09:24:52Z</time>
      </trkpt>
      <trkpt lat="44.60138" lon="5.76372">
        <ele>1569.97</ele>
        <time>2017-05-25T09:25:09Z</time>
      </trkpt>
      <trkpt lat="44.60138" lon="5.7637">
        <ele>1569.49</ele>
        <time>2017-05-25T09:25:26Z</time>
      </trkpt>
      <trkpt lat="44.60142" lon="5.76375">
        <ele>1569.97</ele>
        <time>2017-05-25T09:25:41Z</time>
      </trkpt>
      <trkpt lat="44.60144" lon="5.76382">
        <ele>1569.01</ele>
        <time>2017-05-25T09:25:55Z</time>
      </trkpt>
      <trkpt lat="44.60146" lon="5.7638">
        <ele>1569.01</ele>
        <time>2017-05-25T09:26:08Z</time>
      </trkpt>
      <trkpt lat="44.60155" lon="5.76382">
        <ele>1569.49</ele>
        <time>2017-05-25T09:26:23Z</time>
      </trkpt>
      <trkpt lat="44.60158" lon="5.7638">
        <ele>1569.97</ele>
        <time>2017-05-25T09:26:36Z</time>
      </trkpt>
      <trkpt lat="44.60152" lon="5.76387">
        <ele>1568.05</ele>
        <time>2017-05-25T09:26:55Z</time>
      </trkpt>
      <trkpt lat="44.60149" lon="5.76391">
        <ele>1567.57</ele>
        <time>2017-05-25T09:26:59Z</time>
      </trkpt>
      <trkpt lat="44.60146" lon="5.76399">
        <ele>1567.09</ele>
        <time>2017-05-25T09:27:14Z</time>
      </trkpt>
      <trkpt lat="44.60145" lon="5.76405">
        <ele>1565.16</ele>
        <time>2017-05-25T09:27:25Z</time>
      </trkpt>
      <trkpt lat="44.60144" lon="5.76419">
        <ele>1563.24</ele>
        <time>2017-05-25T09:27:40Z</time>
      </trkpt>
      <trkpt lat="44.60153" lon="5.76419">
        <ele>1561.32</ele>
        <time>2017-05-25T09:27:53Z</time>
      </trkpt>
      <trkpt lat="44.60169" lon="5.76421">
        <ele>1559.4</ele>
        <time>2017-05-25T09:28:09Z</time>
      </trkpt>
      <trkpt lat="44.60181" lon="5.76424">
        <ele>1557.95</ele>
        <time>2017-05-25T09:28:22Z</time>
      </trkpt>
      <trkpt lat="44.60192" lon="5.76428">
        <ele>1556.99</ele>
        <time>2017-05-25T09:28:35Z</time>
      </trkpt>
      <trkpt lat="44.60201" lon="5.76428">
        <ele>1556.51</ele>
        <time>2017-05-25T09:28:47Z</time>
      </trkpt>
      <trkpt lat="44.60207" lon="5.76433">
        <ele>1555.07</ele>
        <time>2017-05-25T09:29:04Z</time>
      </trkpt>
      <trkpt lat="44.60215" lon="5.76439">
        <ele>1554.11</ele>
        <time>2017-05-25T09:29:24Z</time>
      </trkpt>
      <trkpt lat="44.60228" lon="5.76446">
        <ele>1552.67</ele>
        <time>2017-05-25T09:29:36Z</time>
      </trkpt>
      <trkpt lat="44.60239" lon="5.76451">
        <ele>1550.26</ele>
        <time>2017-05-25T09:29:49Z</time>
      </trkpt>
      <trkpt lat="44.60248" lon="5.76459">
        <ele>1548.34</ele>
        <time>2017-05-25T09:30:06Z</time>
      </trkpt>
      <trkpt lat="44.60241" lon="5.76463">
        <ele>1545.46</ele>
        <time>2017-05-25T09:30:19Z</time>
      </trkpt>
      <trkpt lat="44.60231" lon="5.7647">
        <ele>1543.53</ele>
        <time>2017-05-25T09:30:32Z</time>
      </trkpt>
      <trkpt lat="44.60234" lon="5.76476">
        <ele>1541.13</ele>
        <time>2017-05-25T09:30:46Z</time>
      </trkpt>
      <trkpt lat="44.60233" lon="5.76482">
        <ele>1539.69</ele>
        <time>2017-05-25T09:31:01Z</time>
      </trkpt>
      <trkpt lat="44.60222" lon="5.76485">
        <ele>1537.29</ele>
        <time>2017-05-25T09:31:15Z</time>
      </trkpt>
      <trkpt lat="44.60212" lon="5.76489">
        <ele>1534.88</ele>
        <time>2017-05-25T09:31:30Z</time>
      </trkpt>
      <trkpt lat="44.602" lon="5.76491">
        <ele>1532.96</ele>
        <time>2017-05-25T09:31:46Z</time>
      </trkpt>
      <trkpt lat="44.60191" lon="5.76498">
        <ele>1530.56</ele>
        <time>2017-05-25T09:32:00Z</time>
      </trkpt>
      <trkpt lat="44.60197" lon="5.76504">
        <ele>1528.63</ele>
        <time>2017-05-25T09:32:14Z</time>
      </trkpt>
      <trkpt lat="44.60189" lon="5.76511">
        <ele>1527.67</ele>
        <time>2017-05-25T09:32:27Z</time>
      </trkpt>
      <trkpt lat="44.60194" lon="5.76515">
        <ele>1524.79</ele>
        <time>2017-05-25T09:32:35Z</time>
      </trkpt>
      <trkpt lat="44.60205" lon="5.76523">
        <ele>1522.39</ele>
        <time>2017-05-25T09:32:50Z</time>
      </trkpt>
      <trkpt lat="44.60216" lon="5.7653">
        <ele>1519.5</ele>
        <time>2017-05-25T09:33:05Z</time>
      </trkpt>
      <trkpt lat="44.60227" lon="5.76534">
        <ele>1517.58</ele>
        <time>2017-05-25T09:33:19Z</time>
      </trkpt>
      <trkpt lat="44.60238" lon="5.76539">
        <ele>1516.62</ele>
        <time>2017-05-25T09:33:34Z</time>
      </trkpt>
      <trkpt lat="44.60248" lon="5.76546">
        <ele>1515.18</ele>
        <time>2017-05-25T09:33:48Z</time>
      </trkpt>
      <trkpt lat="44.60256" lon="5.76548">
        <ele>1514.69</ele>
        <time>2017-05-25T09:33:55Z</time>
      </trkpt>
      <trkpt lat="44.60268" lon="5.76556">
        <ele>1513.25</ele>
        <time>2017-05-25T09:34:11Z</time>
      </trkpt>
      <trkpt lat="44.60276" lon="5.76562">
        <ele>1512.29</ele>
        <time>2017-05-25T09:34:23Z</time>
      </trkpt>
      <trkpt lat="44.60282" lon="5.7657">
        <ele>1510.85</ele>
        <time>2017-05-25T09:34:38Z</time>
      </trkpt>
      <trkpt lat="44.60283" lon="5.76568">
        <ele>1510.37</ele>
        <time>2017-05-25T09:34:52Z</time>
      </trkpt>
      <trkpt lat="44.60272" lon="5.76573">
        <ele>1508.45</ele>
        <time>2017-05-25T09:35:05Z</time>
      </trkpt>
      <trkpt lat="44.60261" lon="5.76578">
        <ele>1505.08</ele>
        <time>2017-05-25T09:35:20Z</time>
      </trkpt>
      <trkpt lat="44.60254" lon="5.76583">
        <ele>1502.68</ele>
        <time>2017-05-25T09:35:35Z</time>
      </trkpt>
      <trkpt lat="44.6027" lon="5.76595">
        <ele>1499.79</ele>
        <time>2017-05-25T09:35:53Z</time>
      </trkpt>
      <trkpt lat="44.60278" lon="5.76605">
        <ele>1497.87</ele>
        <time>2017-05-25T09:36:06Z</time>
      </trkpt>
      <trkpt lat="44.60283" lon="5.76614">
        <ele>1495.47</ele>
        <time>2017-05-25T09:36:21Z</time>
      </trkpt>
      <trkpt lat="44.60275" lon="5.76613">
        <ele>1492.58</ele>
        <time>2017-05-25T09:36:31Z</time>
      </trkpt>
      <trkpt lat="44.60265" lon="5.76612">
        <ele>1489.7</ele>
        <time>2017-05-25T09:36:45Z</time>
      </trkpt>
      <trkpt lat="44.60253" lon="5.76617">
        <ele>1487.3</ele>
        <time>2017-05-25T09:36:59Z</time>
      </trkpt>
      <trkpt lat="44.60243" lon="5.76621">
        <ele>1484.41</ele>
        <time>2017-05-25T09:37:12Z</time>
      </trkpt>
      <trkpt lat="44.60234" lon="5.76622">
        <ele>1482.97</ele>
        <time>2017-05-25T09:37:26Z</time>
      </trkpt>
      <trkpt lat="44.60238" lon="5.76632">
        <ele>1481.05</ele>
        <time>2017-05-25T09:37:44Z</time>
      </trkpt>
      <trkpt lat="44.60246" lon="5.7664">
        <ele>1478.16</ele>
        <time>2017-05-25T09:37:54Z</time>
      </trkpt>
      <trkpt lat="44.60254" lon="5.76649">
        <ele>1476.24</ele>
        <time>2017-05-25T09:38:06Z</time>
      </trkpt>
      <trkpt lat="44.60254" lon="5.76659">
        <ele>1474.8</ele>
        <time>2017-05-25T09:38:19Z</time>
      </trkpt>
      <trkpt lat="44.60252" lon="5.76655">
        <ele>1474.32</ele>
        <time>2017-05-25T09:38:31Z</time>
      </trkpt>
      <trkpt lat="44.60248" lon="5.76661">
        <ele>1472.88</ele>
        <time>2017-05-25T09:38:47Z</time>
      </trkpt>
      <trkpt lat="44.60236" lon="5.76664">
        <ele>1469.99</ele>
        <time>2017-05-25T09:39:01Z</time>
      </trkpt>
      <trkpt lat="44.60232" lon="5.76665">
        <ele>1468.07</ele>
        <time>2017-05-25T09:39:15Z</time>
      </trkpt>
      <trkpt lat="44.60225" lon="5.76672">
        <ele>1465.19</ele>
        <time>2017-05-25T09:39:27Z</time>
      </trkpt>
      <trkpt lat="44.60221" lon="5.76676">
        <ele>1463.74</ele>
        <time>2017-05-25T09:39:31Z</time>
      </trkpt>
      <trkpt lat="44.60208" lon="5.76687">
        <ele>1461.34</ele>
        <time>2017-05-25T09:39:46Z</time>
      </trkpt>
      <trkpt lat="44.60213" lon="5.76694">
        <ele>1459.9</ele>
        <time>2017-05-25T09:39:58Z</time>
      </trkpt>
      <trkpt lat="44.60223" lon="5.767">
        <ele>1457.02</ele>
        <time>2017-05-25T09:40:10Z</time>
      </trkpt>
      <trkpt lat="44.60236" lon="5.76708">
        <ele>1455.57</ele>
        <time>2017-05-25T09:40:23Z</time>
      </trkpt>
      <trkpt lat="44.60235" lon="5.76716">
        <ele>1453.17</ele>
        <time>2017-05-25T09:40:33Z</time>
      </trkpt>
      <trkpt lat="44.60232" lon="5.76718">
        <ele>1451.73</ele>
        <time>2017-05-25T09:40:36Z</time>
      </trkpt>
      <trkpt lat="44.60223" lon="5.76724">
        <ele>1448.36</ele>
        <time>2017-05-25T09:40:48Z</time>
      </trkpt>
      <trkpt lat="44.60218" lon="5.7673">
        <ele>1446.92</ele>
        <time>2017-05-25T09:41:04Z</time>
      </trkpt>
      <trkpt lat="44.60211" lon="5.76743">
        <ele>1444.52</ele>
        <time>2017-05-25T09:41:17Z</time>
      </trkpt>
      <trkpt lat="44.60202" lon="5.76751">
        <ele>1441.15</ele>
        <time>2017-05-25T09:41:28Z</time>
      </trkpt>
      <trkpt lat="44.60195" lon="5.76756">
        <ele>1438.75</ele>
        <time>2017-05-25T09:41:40Z</time>
      </trkpt>
      <trkpt lat="44.60191" lon="5.76765">
        <ele>1435.87</ele>
        <time>2017-05-25T09:41:52Z</time>
      </trkpt>
      <trkpt lat="44.60184" lon="5.76776">
        <ele>1432.98</ele>
        <time>2017-05-25T09:42:06Z</time>
      </trkpt>
      <trkpt lat="44.60175" lon="5.76788">
        <ele>1430.1</ele>
        <time>2017-05-25T09:42:20Z</time>
      </trkpt>
      <trkpt lat="44.6017" lon="5.76797">
        <ele>1427.7</ele>
        <time>2017-05-25T09:42:36Z</time>
      </trkpt>
      <trkpt lat="44.60162" lon="5.7681">
        <ele>1425.29</ele>
        <time>2017-05-25T09:42:49Z</time>
      </trkpt>
      <trkpt lat="44.60155" lon="5.7682">
        <ele>1421.93</ele>
        <time>2017-05-25T09:43:02Z</time>
      </trkpt>
      <trkpt lat="44.60149" lon="5.7683">
        <ele>1419.04</ele>
        <time>2017-05-25T09:43:17Z</time>
      </trkpt>
      <trkpt lat="44.60145" lon="5.76838">
        <ele>1415.68</ele>
        <time>2017-05-25T09:43:30Z</time>
      </trkpt>
      <trkpt lat="44.60138" lon="5.76848">
        <ele>1412.31</ele>
        <time>2017-05-25T09:43:46Z</time>
      </trkpt>
      <trkpt lat="44.60132" lon="5.76861">
        <ele>1408.95</ele>
        <time>2017-05-25T09:44:01Z</time>
      </trkpt>
      <trkpt lat="44.60128" lon="5.76869">
        <ele>1406.07</ele>
        <time>2017-05-25T09:44:14Z</time>
      </trkpt>
      <trkpt lat="44.60124" lon="5.76881">
        <ele>1402.7</ele>
        <time>2017-05-25T09:44:26Z</time>
      </trkpt>
      <trkpt lat="44.60119" lon="5.76885">
        <ele>1400.78</ele>
        <time>2017-05-25T09:44:40Z</time>
      </trkpt>
      <trkpt lat="44.60114" lon="5.76894">
        <ele>1397.89</ele>
        <time>2017-05-25T09:44:52Z</time>
      </trkpt>
      <trkpt lat="44.60112" lon="5.76899">
        <ele>1396.45</ele>
        <time>2017-05-25T09:45:05Z</time>
      </trkpt>
      <trkpt lat="44.6011" lon="5.76902">
        <ele>1395.97</ele>
        <time>2017-05-25T09:45:07Z</time>
      </trkpt>
      <trkpt lat="44.60102" lon="5.76913">
        <ele>1392.61</ele>
        <time>2017-05-25T09:45:18Z</time>
      </trkpt>
      <trkpt lat="44.60097" lon="5.7692">
        <ele>1390.2</ele>
        <time>2017-05-25T09:45:31Z</time>
      </trkpt>
      <trkpt lat="44.60093" lon="5.76928">
        <ele>1387.32</ele>
        <time>2017-05-25T09:45:46Z</time>
      </trkpt>
      <trkpt lat="44.60086" lon="5.76934">
        <ele>1384.92</ele>
        <time>2017-05-25T09:45:58Z</time>
      </trkpt>
      <trkpt lat="44.60078" lon="5.76946">
        <ele>1381.55</ele>
        <time>2017-05-25T09:46:10Z</time>
      </trkpt>
      <trkpt lat="44.60072" lon="5.76955">
        <ele>1378.67</ele>
        <time>2017-05-25T09:46:24Z</time>
      </trkpt>
      <trkpt lat="44.60066" lon="5.76965">
        <ele>1375.3</ele>
        <time>2017-05-25T09:46:37Z</time>
      </trkpt>
      <trkpt lat="44.6006" lon="5.76968">
        <ele>1373.38</ele>
        <time>2017-05-25T09:46:50Z</time>
      </trkpt>
      <trkpt lat="44.60054" lon="5.76976">
        <ele>1371.46</ele>
        <time>2017-05-25T09:47:02Z</time>
      </trkpt>
      <trkpt lat="44.60049" lon="5.76982">
        <ele>1368.09</ele>
        <time>2017-05-25T09:47:15Z</time>
      </trkpt>
      <trkpt lat="44.6004" lon="5.76992">
        <ele>1365.21</ele>
        <time>2017-05-25T09:47:29Z</time>
      </trkpt>
      <trkpt lat="44.60034" lon="5.77001">
        <ele>1362.33</ele>
        <time>2017-05-25T09:47:44Z</time>
      </trkpt>
      <trkpt lat="44.60027" lon="5.77011">
        <ele>1359.92</ele>
        <time>2017-05-25T09:47:57Z</time>
      </trkpt>
      <trkpt lat="44.60021" lon="5.77021">
        <ele>1356.56</ele>
        <time>2017-05-25T09:48:09Z</time>
      </trkpt>
      <trkpt lat="44.60013" lon="5.7703">
        <ele>1354.15</ele>
        <time>2017-05-25T09:48:19Z</time>
      </trkpt>
      <trkpt lat="44.60002" lon="5.77046">
        <ele>1350.79</ele>
        <time>2017-05-25T09:48:33Z</time>
      </trkpt>
      <trkpt lat="44.59997" lon="5.77056">
        <ele>1347.43</ele>
        <time>2017-05-25T09:48:45Z</time>
      </trkpt>
      <trkpt lat="44.59991" lon="5.77067">
        <ele>1344.06</ele>
        <time>2017-05-25T09:48:58Z</time>
      </trkpt>
      <trkpt lat="44.59986" lon="5.77075">
        <ele>1340.7</ele>
        <time>2017-05-25T09:49:08Z</time>
      </trkpt>
      <trkpt lat="44.5998" lon="5.7709">
        <ele>1338.29</ele>
        <time>2017-05-25T09:49:21Z</time>
      </trkpt>
      <trkpt lat="44.59976" lon="5.77099">
        <ele>1336.85</ele>
        <time>2017-05-25T09:49:29Z</time>
      </trkpt>
      <trkpt lat="44.59974" lon="5.7711">
        <ele>1334.45</ele>
        <time>2017-05-25T09:49:42Z</time>
      </trkpt>
      <trkpt lat="44.59971" lon="5.77123">
        <ele>1331.08</ele>
        <time>2017-05-25T09:49:54Z</time>
      </trkpt>
      <trkpt lat="44.59969" lon="5.77134">
        <ele>1329.64</ele>
        <time>2017-05-25T09:50:07Z</time>
      </trkpt>
      <trkpt lat="44.59965" lon="5.77141">
        <ele>1328.68</ele>
        <time>2017-05-25T09:50:20Z</time>
      </trkpt>
      <trkpt lat="44.59967" lon="5.77146">
        <ele>1327.72</ele>
        <time>2017-05-25T09:50:24Z</time>
      </trkpt>
      <trkpt lat="44.59957" lon="5.77162">
        <ele>1324.83</ele>
        <time>2017-05-25T09:50:38Z</time>
      </trkpt>
      <trkpt lat="44.59958" lon="5.77176">
        <ele>1321.47</ele>
        <time>2017-05-25T09:50:52Z</time>
      </trkpt>
      <trkpt lat="44.59965" lon="5.77182">
        <ele>1320.03</ele>
        <time>2017-05-25T09:51:04Z</time>
      </trkpt>
      <trkpt lat="44.59966" lon="5.77188">
        <ele>1319.07</ele>
        <time>2017-05-25T09:51:16Z</time>
      </trkpt>
      <trkpt lat="44.59962" lon="5.77198">
        <ele>1318.59</ele>
        <time>2017-05-25T09:51:29Z</time>
      </trkpt>
      <trkpt lat="44.59961" lon="5.77194">
        <ele>1318.59</ele>
        <time>2017-05-25T09:51:47Z</time>
      </trkpt>
      <trkpt lat="44.59957" lon="5.77196">
        <ele>1318.59</ele>
        <time>2017-05-25T09:51:52Z</time>
      </trkpt>
      <trkpt lat="44.59951" lon="5.77201">
        <ele>1317.62</ele>
        <time>2017-05-25T09:51:57Z</time>
      </trkpt>
      <trkpt lat="44.59943" lon="5.77208">
        <ele>1316.66</ele>
        <time>2017-05-25T09:52:07Z</time>
      </trkpt>
      <trkpt lat="44.5994" lon="5.77209">
        <ele>1316.18</ele>
        <time>2017-05-25T09:52:09Z</time>
      </trkpt>
      <trkpt lat="44.5992" lon="5.77217">
        <ele>1314.26</ele>
        <time>2017-05-25T09:52:27Z</time>
      </trkpt>
      <trkpt lat="44.5991" lon="5.77217">
        <ele>1313.3</ele>
        <time>2017-05-25T09:52:37Z</time>
      </trkpt>
      <trkpt lat="44.59891" lon="5.77217">
        <ele>1311.38</ele>
        <time>2017-05-25T09:52:54Z</time>
      </trkpt>
      <trkpt lat="44.59875" lon="5.77216">
        <ele>1309.45</ele>
        <time>2017-05-25T09:53:09Z</time>
      </trkpt>
      <trkpt lat="44.59859" lon="5.77215">
        <ele>1308.49</ele>
        <time>2017-05-25T09:53:24Z</time>
      </trkpt>
      <trkpt lat="44.59838" lon="5.7722">
        <ele>1306.57</ele>
        <time>2017-05-25T09:53:42Z</time>
      </trkpt>
      <trkpt lat="44.59831" lon="5.77223">
        <ele>1306.09</ele>
        <time>2017-05-25T09:53:48Z</time>
      </trkpt>
      <trkpt lat="44.59817" lon="5.77231">
        <ele>1305.61</ele>
        <time>2017-05-25T09:54:01Z</time>
      </trkpt>
      <trkpt lat="44.59799" lon="5.77239">
        <ele>1304.65</ele>
        <time>2017-05-25T09:54:17Z</time>
      </trkpt>
      <trkpt lat="44.59789" lon="5.77239">
        <ele>1303.69</ele>
        <time>2017-05-25T09:54:28Z</time>
      </trkpt>
      <trkpt lat="44.59778" lon="5.77234">
        <ele>1302.72</ele>
        <time>2017-05-25T09:54:39Z</time>
      </trkpt>
      <trkpt lat="44.59764" lon="5.77229">
        <ele>1302.24</ele>
        <time>2017-05-25T09:54:53Z</time>
      </trkpt>
      <trkpt lat="44.59752" lon="5.77225">
        <ele>1301.28</ele>
        <time>2017-05-25T09:55:05Z</time>
      </trkpt>
      <trkpt lat="44.59745" lon="5.77231">
        <ele>1300.32</ele>
        <time>2017-05-25T09:55:17Z</time>
      </trkpt>
      <trkpt lat="44.59742" lon="5.77243">
        <ele>1299.84</ele>
        <time>2017-05-25T09:55:25Z</time>
      </trkpt>
      <trkpt lat="44.59733" lon="5.77275">
        <ele>1298.4</ele>
        <time>2017-05-25T09:55:39Z</time>
      </trkpt>
      <trkpt lat="44.59727" lon="5.77301">
        <ele>1296.96</ele>
        <time>2017-05-25T09:55:51Z</time>
      </trkpt>
      <trkpt lat="44.59725" lon="5.77324">
        <ele>1295.99</ele>
        <time>2017-05-25T09:56:06Z</time>
      </trkpt>
      <trkpt lat="44.59721" lon="5.77347">
        <ele>1294.55</ele>
        <time>2017-05-25T09:56:20Z</time>
      </trkpt>
      <trkpt lat="44.59717" lon="5.77364">
        <ele>1293.11</ele>
        <time>2017-05-25T09:56:32Z</time>
      </trkpt>
      <trkpt lat="44.59711" lon="5.77385">
        <ele>1291.67</ele>
        <time>2017-05-25T09:56:45Z</time>
      </trkpt>
      <trkpt lat="44.59712" lon="5.77392">
        <ele>1290.71</ele>
        <time>2017-05-25T09:56:52Z</time>
      </trkpt>
      <trkpt lat="44.59711" lon="5.77403">
        <ele>1290.71</ele>
        <time>2017-05-25T09:56:59Z</time>
      </trkpt>
      <trkpt lat="44.59707" lon="5.77429">
        <ele>1289.27</ele>
        <time>2017-05-25T09:57:13Z</time>
      </trkpt>
      <trkpt lat="44.59698" lon="5.77457">
        <ele>1288.3</ele>
        <time>2017-05-25T09:57:29Z</time>
      </trkpt>
      <trkpt lat="44.59688" lon="5.77477">
        <ele>1287.82</ele>
        <time>2017-05-25T09:57:43Z</time>
      </trkpt>
      <trkpt lat="44.59671" lon="5.775">
        <ele>1286.38</ele>
        <time>2017-05-25T09:57:56Z</time>
      </trkpt>
      <trkpt lat="44.59662" lon="5.7751">
        <ele>1285.9</ele>
        <time>2017-05-25T09:58:05Z</time>
      </trkpt>
      <trkpt lat="44.59647" lon="5.7752">
        <ele>1284.94</ele>
        <time>2017-05-25T09:58:20Z</time>
      </trkpt>
      <trkpt lat="44.59629" lon="5.77528">
        <ele>1283.5</ele>
        <time>2017-05-25T09:58:36Z</time>
      </trkpt>
      <trkpt lat="44.59612" lon="5.77537">
        <ele>1282.54</ele>
        <time>2017-05-25T09:58:53Z</time>
      </trkpt>
      <trkpt lat="44.59599" lon="5.77542">
        <ele>1281.57</ele>
        <time>2017-05-25T09:59:07Z</time>
      </trkpt>
      <trkpt lat="44.59587" lon="5.77548">
        <ele>1280.13</ele>
        <time>2017-05-25T09:59:22Z</time>
      </trkpt>
      <trkpt lat="44.59586" lon="5.77548">
        <ele>1279.65</ele>
        <time>2017-05-25T09:59:23Z</time>
      </trkpt>
      <trkpt lat="44.59567" lon="5.77567">
        <ele>1278.21</ele>
        <time>2017-05-25T09:59:39Z</time>
      </trkpt>
      <trkpt lat="44.59551" lon="5.77578">
        <ele>1276.77</ele>
        <time>2017-05-25T09:59:54Z</time>
      </trkpt>
      <trkpt lat="44.5954" lon="5.77581">
        <ele>1275.81</ele>
        <time>2017-05-25T10:00:04Z</time>
      </trkpt>
      <trkpt lat="44.59519" lon="5.77595">
        <ele>1275.33</ele>
        <time>2017-05-25T10:00:19Z</time>
      </trkpt>
      <trkpt lat="44.59516" lon="5.77596">
        <ele>1275.33</ele>
        <time>2017-05-25T10:00:21Z</time>
      </trkpt>
      <trkpt lat="44.59508" lon="5.77599">
        <ele>1273.88</ele>
        <time>2017-05-25T10:00:28Z</time>
      </trkpt>
      <trkpt lat="44.5949" lon="5.77606">
        <ele>1272.92</ele>
        <time>2017-05-25T10:00:41Z</time>
      </trkpt>
      <trkpt lat="44.59468" lon="5.77611">
        <ele>1272.44</ele>
        <time>2017-05-25T10:00:58Z</time>
      </trkpt>
      <trkpt lat="44.59453" lon="5.77612">
        <ele>1271</ele>
        <time>2017-05-25T10:01:11Z</time>
      </trkpt>
      <trkpt lat="44.59438" lon="5.77611">
        <ele>1270.04</ele>
        <time>2017-05-25T10:01:25Z</time>
      </trkpt>
      <trkpt lat="44.59414" lon="5.77616">
        <ele>1268.6</ele>
        <time>2017-05-25T10:01:42Z</time>
      </trkpt>
      <trkpt lat="44.59396" lon="5.77619">
        <ele>1267.16</ele>
        <time>2017-05-25T10:01:57Z</time>
      </trkpt>
      <trkpt lat="44.59378" lon="5.77613">
        <ele>1266.19</ele>
        <time>2017-05-25T10:02:13Z</time>
      </trkpt>
      <trkpt lat="44.5936" lon="5.77602">
        <ele>1264.75</ele>
        <time>2017-05-25T10:02:30Z</time>
      </trkpt>
      <trkpt lat="44.59347" lon="5.77597">
        <ele>1263.31</ele>
        <time>2017-05-25T10:02:43Z</time>
      </trkpt>
      <trkpt lat="44.59344" lon="5.77596">
        <ele>1262.83</ele>
        <time>2017-05-25T10:02:46Z</time>
      </trkpt>
      <trkpt lat="44.59331" lon="5.77581">
        <ele>1261.39</ele>
        <time>2017-05-25T10:03:01Z</time>
      </trkpt>
      <trkpt lat="44.59318" lon="5.77567">
        <ele>1260.43</ele>
        <time>2017-05-25T10:03:13Z</time>
      </trkpt>
      <trkpt lat="44.59294" lon="5.77555">
        <ele>1258.98</ele>
        <time>2017-05-25T10:03:30Z</time>
      </trkpt>
      <trkpt lat="44.59279" lon="5.77543">
        <ele>1258.5</ele>
        <time>2017-05-25T10:03:45Z</time>
      </trkpt>
      <trkpt lat="44.59259" lon="5.77541">
        <ele>1258.02</ele>
        <time>2017-05-25T10:04:00Z</time>
      </trkpt>
      <trkpt lat="44.59253" lon="5.77563">
        <ele>1258.5</ele>
        <time>2017-05-25T10:04:14Z</time>
      </trkpt>
      <trkpt lat="44.59247" lon="5.77575">
        <ele>1258.98</ele>
        <time>2017-05-25T10:04:22Z</time>
      </trkpt>
      <trkpt lat="44.59234" lon="5.77588">
        <ele>1258.5</ele>
        <time>2017-05-25T10:04:36Z</time>
      </trkpt>
      <trkpt lat="44.59233" lon="5.77588">
        <ele>1258.5</ele>
        <time>2017-05-25T10:04:37Z</time>
      </trkpt>
      <trkpt lat="44.59219" lon="5.77588">
        <ele>1257.54</ele>
        <time>2017-05-25T10:04:50Z</time>
      </trkpt>
      <trkpt lat="44.59215" lon="5.77589">
        <ele>1257.06</ele>
        <time>2017-05-25T10:04:52Z</time>
      </trkpt>
      <trkpt lat="44.59196" lon="5.7759">
        <ele>1255.62</ele>
        <time>2017-05-25T10:05:08Z</time>
      </trkpt>
      <trkpt lat="44.59179" lon="5.77607">
        <ele>1254.18</ele>
        <time>2017-05-25T10:05:23Z</time>
      </trkpt>
      <trkpt lat="44.59166" lon="5.77625">
        <ele>1252.74</ele>
        <time>2017-05-25T10:05:38Z</time>
      </trkpt>
      <trkpt lat="44.59163" lon="5.77629">
        <ele>1252.25</ele>
        <time>2017-05-25T10:05:42Z</time>
      </trkpt>
      <trkpt lat="44.59157" lon="5.77636">
        <ele>1251.29</ele>
        <time>2017-05-25T10:05:52Z</time>
      </trkpt>
      <trkpt lat="44.59145" lon="5.77651">
        <ele>1249.37</ele>
        <time>2017-05-25T10:06:08Z</time>
      </trkpt>
      <trkpt lat="44.59131" lon="5.77664">
        <ele>1247.93</ele>
        <time>2017-05-25T10:06:24Z</time>
      </trkpt>
      <trkpt lat="44.59117" lon="5.77681">
        <ele>1246.49</ele>
        <time>2017-05-25T10:06:39Z</time>
      </trkpt>
      <trkpt lat="44.59104" lon="5.77697">
        <ele>1245.04</ele>
        <time>2017-05-25T10:06:52Z</time>
      </trkpt>
      <trkpt lat="44.59095" lon="5.77707">
        <ele>1244.08</ele>
        <time>2017-05-25T10:07:00Z</time>
      </trkpt>
      <trkpt lat="44.5908" lon="5.77721">
        <ele>1243.12</ele>
        <time>2017-05-25T10:07:14Z</time>
      </trkpt>
      <trkpt lat="44.59062" lon="5.77732">
        <ele>1240.72</ele>
        <time>2017-05-25T10:07:31Z</time>
      </trkpt>
      <trkpt lat="44.59043" lon="5.7774">
        <ele>1238.8</ele>
        <time>2017-05-25T10:07:47Z</time>
      </trkpt>
      <trkpt lat="44.59027" lon="5.77743">
        <ele>1237.35</ele>
        <time>2017-05-25T10:08:02Z</time>
      </trkpt>
      <trkpt lat="44.5901" lon="5.7775">
        <ele>1235.91</ele>
        <time>2017-05-25T10:08:17Z</time>
      </trkpt>
      <trkpt lat="44.58992" lon="5.77757">
        <ele>1233.99</ele>
        <time>2017-05-25T10:08:32Z</time>
      </trkpt>
      <trkpt lat="44.58976" lon="5.77762">
        <ele>1232.55</ele>
        <time>2017-05-25T10:08:46Z</time>
      </trkpt>
      <trkpt lat="44.58958" lon="5.77763">
        <ele>1230.62</ele>
        <time>2017-05-25T10:09:00Z</time>
      </trkpt>
      <trkpt lat="44.58942" lon="5.77767">
        <ele>1229.18</ele>
        <time>2017-05-25T10:09:14Z</time>
      </trkpt>
      <trkpt lat="44.58927" lon="5.7777">
        <ele>1228.22</ele>
        <time>2017-05-25T10:09:27Z</time>
      </trkpt>
      <trkpt lat="44.58916" lon="5.77767">
        <ele>1227.26</ele>
        <time>2017-05-25T10:09:37Z</time>
      </trkpt>
      <trkpt lat="44.58899" lon="5.77758">
        <ele>1225.34</ele>
        <time>2017-05-25T10:09:53Z</time>
      </trkpt>
      <trkpt lat="44.58887" lon="5.77752">
        <ele>1223.9</ele>
        <time>2017-05-25T10:10:04Z</time>
      </trkpt>
      <trkpt lat="44.58871" lon="5.77747">
        <ele>1221.97</ele>
        <time>2017-05-25T10:10:18Z</time>
      </trkpt>
      <trkpt lat="44.58854" lon="5.77753">
        <ele>1220.53</ele>
        <time>2017-05-25T10:10:33Z</time>
      </trkpt>
      <trkpt lat="44.58846" lon="5.77768">
        <ele>1219.09</ele>
        <time>2017-05-25T10:10:48Z</time>
      </trkpt>
      <trkpt lat="44.58843" lon="5.77777">
        <ele>1219.09</ele>
        <time>2017-05-25T10:10:54Z</time>
      </trkpt>
      <trkpt lat="44.58841" lon="5.77782">
        <ele>1218.61</ele>
        <time>2017-05-25T10:10:57Z</time>
      </trkpt>
      <trkpt lat="44.58831" lon="5.77811">
        <ele>1218.13</ele>
        <time>2017-05-25T10:11:13Z</time>
      </trkpt>
      <trkpt lat="44.58827" lon="5.77822">
        <ele>1217.65</ele>
        <time>2017-05-25T10:11:20Z</time>
      </trkpt>
      <trkpt lat="44.58816" lon="5.77835">
        <ele>1215.72</ele>
        <time>2017-05-25T10:11:32Z</time>
      </trkpt>
      <trkpt lat="44.58808" lon="5.77843">
        <ele>1215.72</ele>
        <time>2017-05-25T10:11:39Z</time>
      </trkpt>
      <trkpt lat="44.58794" lon="5.77843">
        <ele>1213.8</ele>
        <time>2017-05-25T10:11:51Z</time>
      </trkpt>
      <trkpt lat="44.5879" lon="5.77839">
        <ele>1213.32</ele>
        <time>2017-05-25T10:11:57Z</time>
      </trkpt>
      <trkpt lat="44.58784" lon="5.77829">
        <ele>1212.36</ele>
        <time>2017-05-25T10:12:06Z</time>
      </trkpt>
      <trkpt lat="44.58779" lon="5.77821">
        <ele>1212.36</ele>
        <time>2017-05-25T10:12:12Z</time>
      </trkpt>
      <trkpt lat="44.58775" lon="5.77815">
        <ele>1211.88</ele>
        <time>2017-05-25T10:12:16Z</time>
      </trkpt>
      <trkpt lat="44.58755" lon="5.77802">
        <ele>1209.48</ele>
        <time>2017-05-25T10:12:32Z</time>
      </trkpt>
      <trkpt lat="44.58753" lon="5.77802">
        <ele>1209.48</ele>
        <time>2017-05-25T10:12:34Z</time>
      </trkpt>
      <trkpt lat="44.5874" lon="5.77808">
        <ele>1207.55</ele>
        <time>2017-05-25T10:12:48Z</time>
      </trkpt>
      <trkpt lat="44.58719" lon="5.77823">
        <ele>1205.63</ele>
        <time>2017-05-25T10:13:07Z</time>
      </trkpt>
      <trkpt lat="44.58695" lon="5.77838">
        <ele>1203.23</ele>
        <time>2017-05-25T10:13:29Z</time>
      </trkpt>
      <trkpt lat="44.58671" lon="5.77863">
        <ele>1201.3</ele>
        <time>2017-05-25T10:13:52Z</time>
      </trkpt>
      <trkpt lat="44.58668" lon="5.77886">
        <ele>1199.86</ele>
        <time>2017-05-25T10:14:07Z</time>
      </trkpt>
      <trkpt lat="44.58667" lon="5.77903">
        <ele>1198.9</ele>
        <time>2017-05-25T10:14:18Z</time>
      </trkpt>
      <trkpt lat="44.58651" lon="5.77934">
        <ele>1196.98</ele>
        <time>2017-05-25T10:14:36Z</time>
      </trkpt>
      <trkpt lat="44.58646" lon="5.77944">
        <ele>1196.5</ele>
        <time>2017-05-25T10:14:42Z</time>
      </trkpt>
      <trkpt lat="44.58635" lon="5.77962">
        <ele>1194.58</ele>
        <time>2017-05-25T10:14:53Z</time>
      </trkpt>
      <trkpt lat="44.5863" lon="5.77968">
        <ele>1194.58</ele>
        <time>2017-05-25T10:14:58Z</time>
      </trkpt>
      <trkpt lat="44.58617" lon="5.77988">
        <ele>1191.69</ele>
        <time>2017-05-25T10:15:15Z</time>
      </trkpt>
      <trkpt lat="44.58606" lon="5.78008">
        <ele>1189.77</ele>
        <time>2017-05-25T10:15:30Z</time>
      </trkpt>
      <trkpt lat="44.58598" lon="5.78025">
        <ele>1188.81</ele>
        <time>2017-05-25T10:15:44Z</time>
      </trkpt>
      <trkpt lat="44.58596" lon="5.78029">
        <ele>1188.33</ele>
        <time>2017-05-25T10:16:02Z</time>
      </trkpt>
      <trkpt lat="44.58596" lon="5.78022">
        <ele>1187.37</ele>
        <time>2017-05-25T10:16:27Z</time>
      </trkpt>
      <trkpt lat="44.58592" lon="5.78025">
        <ele>1187.37</ele>
        <time>2017-05-25T10:16:35Z</time>
      </trkpt>
      <trkpt lat="44.5859" lon="5.78036">
        <ele>1187.37</ele>
        <time>2017-05-25T10:16:53Z</time>
      </trkpt>
      <trkpt lat="44.58587" lon="5.78043">
        <ele>1186.4</ele>
        <time>2017-05-25T10:17:09Z</time>
      </trkpt>
      <trkpt lat="44.58575" lon="5.78049">
        <ele>1185.44</ele>
        <time>2017-05-25T10:17:20Z</time>
      </trkpt>
      <trkpt lat="44.58556" lon="5.78046">
        <ele>1183.04</ele>
        <time>2017-05-25T10:17:37Z</time>
      </trkpt>
      <trkpt lat="44.5855" lon="5.78042">
        <ele>1182.56</ele>
        <time>2017-05-25T10:17:44Z</time>
      </trkpt>
      <trkpt lat="44.5854" lon="5.78018">
        <ele>1180.16</ele>
        <time>2017-05-25T10:18:01Z</time>
      </trkpt>
      <trkpt lat="44.58538" lon="5.78011">
        <ele>1180.16</ele>
        <time>2017-05-25T10:18:06Z</time>
      </trkpt>
      <trkpt lat="44.58533" lon="5.78007">
        <ele>1179.19</ele>
        <time>2017-05-25T10:18:11Z</time>
      </trkpt>
      <trkpt lat="44.58527" lon="5.78012">
        <ele>1178.23</ele>
        <time>2017-05-25T10:18:18Z</time>
      </trkpt>
      <trkpt lat="44.5853" lon="5.78037">
        <ele>1176.79</ele>
        <time>2017-05-25T10:18:36Z</time>
      </trkpt>
      <trkpt lat="44.58531" lon="5.78042">
        <ele>1176.79</ele>
        <time>2017-05-25T10:18:39Z</time>
      </trkpt>
      <trkpt lat="44.5853" lon="5.7807">
        <ele>1174.87</ele>
        <time>2017-05-25T10:18:55Z</time>
      </trkpt>
      <trkpt lat="44.58535" lon="5.78096">
        <ele>1173.43</ele>
        <time>2017-05-25T10:19:12Z</time>
      </trkpt>
      <trkpt lat="44.5854" lon="5.7812">
        <ele>1171.98</ele>
        <time>2017-05-25T10:19:27Z</time>
      </trkpt>
      <trkpt lat="44.58539" lon="5.78138">
        <ele>1170.54</ele>
        <time>2017-05-25T10:19:40Z</time>
      </trkpt>
      <trkpt lat="44.58525" lon="5.78141">
        <ele>1168.62</ele>
        <time>2017-05-25T10:19:56Z</time>
      </trkpt>
      <trkpt lat="44.58514" lon="5.78134">
        <ele>1167.18</ele>
        <time>2017-05-25T10:20:09Z</time>
      </trkpt>
      <trkpt lat="44.58507" lon="5.78131">
        <ele>1166.22</ele>
        <time>2017-05-25T10:20:14Z</time>
      </trkpt>
      <trkpt lat="44.58501" lon="5.78134">
        <ele>1165.74</ele>
        <time>2017-05-25T10:20:18Z</time>
      </trkpt>
      <trkpt lat="44.58496" lon="5.78134">
        <ele>1165.26</ele>
        <time>2017-05-25T10:20:22Z</time>
      </trkpt>
      <trkpt lat="44.58483" lon="5.78133">
        <ele>1162.85</ele>
        <time>2017-05-25T10:20:32Z</time>
      </trkpt>
      <trkpt lat="44.58479" lon="5.78131">
        <ele>1162.85</ele>
        <time>2017-05-25T10:20:36Z</time>
      </trkpt>
      <trkpt lat="44.58471" lon="5.78135">
        <ele>1161.41</ele>
        <time>2017-05-25T10:20:48Z</time>
      </trkpt>
      <trkpt lat="44.5846" lon="5.78142">
        <ele>1159.01</ele>
        <time>2017-05-25T10:20:56Z</time>
      </trkpt>
      <trkpt lat="44.58457" lon="5.78146">
        <ele>1158.05</ele>
        <time>2017-05-25T10:21:01Z</time>
      </trkpt>
      <trkpt lat="44.58456" lon="5.78151">
        <ele>1157.56</ele>
        <time>2017-05-25T10:21:04Z</time>
      </trkpt>
      <trkpt lat="44.58446" lon="5.78158">
        <ele>1155.16</ele>
        <time>2017-05-25T10:21:15Z</time>
      </trkpt>
      <trkpt lat="44.58436" lon="5.78156">
        <ele>1153.24</ele>
        <time>2017-05-25T10:21:27Z</time>
      </trkpt>
      <trkpt lat="44.58426" lon="5.78157">
        <ele>1152.28</ele>
        <time>2017-05-25T10:21:34Z</time>
      </trkpt>
      <trkpt lat="44.58413" lon="5.78157">
        <ele>1151.8</ele>
        <time>2017-05-25T10:21:46Z</time>
      </trkpt>
      <trkpt lat="44.58403" lon="5.78155">
        <ele>1151.32</ele>
        <time>2017-05-25T10:21:54Z</time>
      </trkpt>
      <trkpt lat="44.58391" lon="5.78152">
        <ele>1148.43</ele>
        <time>2017-05-25T10:22:05Z</time>
      </trkpt>
      <trkpt lat="44.58381" lon="5.78153">
        <ele>1146.99</ele>
        <time>2017-05-25T10:22:17Z</time>
      </trkpt>
      <trkpt lat="44.58369" lon="5.78144">
        <ele>1144.11</ele>
        <time>2017-05-25T10:22:31Z</time>
      </trkpt>
      <trkpt lat="44.5836" lon="5.78141">
        <ele>1141.22</ele>
        <time>2017-05-25T10:22:43Z</time>
      </trkpt>
      <trkpt lat="44.5835" lon="5.78144">
        <ele>1138.82</ele>
        <time>2017-05-25T10:22:57Z</time>
      </trkpt>
      <trkpt lat="44.5834" lon="5.78147">
        <ele>1135.45</ele>
        <time>2017-05-25T10:23:09Z</time>
      </trkpt>
      <trkpt lat="44.5833" lon="5.78148">
        <ele>1133.53</ele>
        <time>2017-05-25T10:23:24Z</time>
      </trkpt>
      <trkpt lat="44.5832" lon="5.78142">
        <ele>1130.17</ele>
        <time>2017-05-25T10:23:37Z</time>
      </trkpt>
      <trkpt lat="44.58309" lon="5.78149">
        <ele>1127.28</ele>
        <time>2017-05-25T10:23:52Z</time>
      </trkpt>
      <trkpt lat="44.58299" lon="5.78152">
        <ele>1123.92</ele>
        <time>2017-05-25T10:24:04Z</time>
      </trkpt>
      <trkpt lat="44.58291" lon="5.78153">
        <ele>1122</ele>
        <time>2017-05-25T10:24:13Z</time>
      </trkpt>
      <trkpt lat="44.58279" lon="5.7816">
        <ele>1119.11</ele>
        <time>2017-05-25T10:24:27Z</time>
      </trkpt>
      <trkpt lat="44.58272" lon="5.78172">
        <ele>1117.19</ele>
        <time>2017-05-25T10:24:38Z</time>
      </trkpt>
      <trkpt lat="44.58266" lon="5.78185">
        <ele>1115.27</ele>
        <time>2017-05-25T10:24:50Z</time>
      </trkpt>
      <trkpt lat="44.58259" lon="5.78197">
        <ele>1112.86</ele>
        <time>2017-05-25T10:25:01Z</time>
      </trkpt>
      <trkpt lat="44.58251" lon="5.78208">
        <ele>1110.46</ele>
        <time>2017-05-25T10:25:14Z</time>
      </trkpt>
      <trkpt lat="44.58247" lon="5.78218">
        <ele>1108.06</ele>
        <time>2017-05-25T10:25:25Z</time>
      </trkpt>
      <trkpt lat="44.58247" lon="5.78217">
        <ele>1108.06</ele>
        <time>2017-05-25T10:25:39Z</time>
      </trkpt>
      <trkpt lat="44.58248" lon="5.78222">
        <ele>1108.06</ele>
        <time>2017-05-25T10:25:58Z</time>
      </trkpt>
      <trkpt lat="44.5825" lon="5.78216">
        <ele>1108.06</ele>
        <time>2017-05-25T10:26:14Z</time>
      </trkpt>
      <trkpt lat="44.58246" lon="5.78215">
        <ele>1107.58</ele>
        <time>2017-05-25T10:26:42Z</time>
      </trkpt>
      <trkpt lat="44.5825" lon="5.78206">
        <ele>1109.5</ele>
        <time>2017-05-25T10:26:54Z</time>
      </trkpt>
      <trkpt lat="44.58255" lon="5.78198">
        <ele>1110.94</ele>
        <time>2017-05-25T10:27:05Z</time>
      </trkpt>
      <trkpt lat="44.58257" lon="5.78199">
        <ele>1110.94</ele>
        <time>2017-05-25T10:27:19Z</time>
      </trkpt>
      <trkpt lat="44.58258" lon="5.78199">
        <ele>1110.94</ele>
        <time>2017-05-25T10:27:51Z</time>
      </trkpt>
      <trkpt lat="44.58254" lon="5.78203">
        <ele>1110.94</ele>
        <time>2017-05-25T10:28:23Z</time>
      </trkpt>
      <trkpt lat="44.58257" lon="5.78201">
        <ele>1110.94</ele>
        <time>2017-05-25T10:28:42Z</time>
      </trkpt>
      <trkpt lat="44.58256" lon="5.78203">
        <ele>1110.46</ele>
        <time>2017-05-25T10:29:05Z</time>
      </trkpt>
      <trkpt lat="44.58257" lon="5.78201">
        <ele>1110.46</ele>
        <time>2017-05-25T10:29:21Z</time>
      </trkpt>
      <trkpt lat="44.58254" lon="5.78202">
        <ele>1110.46</ele>
        <time>2017-05-25T10:29:58Z</time>
      </trkpt>
      <trkpt lat="44.58257" lon="5.78195">
        <ele>1110.94</ele>
        <time>2017-05-25T10:30:36Z</time>
      </trkpt>
      <trkpt lat="44.58256" lon="5.78203">
        <ele>1110.46</ele>
        <time>2017-05-25T10:31:21Z</time>
      </trkpt>
      <trkpt lat="44.58258" lon="5.78199">
        <ele>1110.94</ele>
        <time>2017-05-25T10:31:59Z</time>
      </trkpt>
      <trkpt lat="44.58257" lon="5.78198">
        <ele>1110.46</ele>
        <time>2017-05-25T10:32:33Z</time>
      </trkpt>
      <trkpt lat="44.58262" lon="5.78199">
        <ele>1110.94</ele>
        <time>2017-05-25T10:33:03Z</time>
      </trkpt>
      <trkpt lat="44.58257" lon="5.78201">
        <ele>1110.46</ele>
        <time>2017-05-25T10:33:33Z</time>
      </trkpt>
      <trkpt lat="44.58256" lon="5.78202">
        <ele>1110.46</ele>
        <time>2017-05-25T10:33:59Z</time>
      </trkpt>
      <trkpt lat="44.58255" lon="5.78204">
        <ele>1109.98</ele>
        <time>2017-05-25T10:34:35Z</time>
      </trkpt>
      <trkpt lat="44.58259" lon="5.78196">
        <ele>1110.46</ele>
        <time>2017-05-25T10:35:26Z</time>
      </trkpt>
      <trkpt lat="44.58257" lon="5.78195">
        <ele>1110.46</ele>
        <time>2017-05-25T10:35:58Z</time>
      </trkpt>
      <trkpt lat="44.58258" lon="5.78201">
        <ele>1110.94</ele>
        <time>2017-05-25T10:36:30Z</time>
      </trkpt>
      <trkpt lat="44.58252" lon="5.78205">
        <ele>1110.46</ele>
        <time>2017-05-25T10:37:13Z</time>
      </trkpt>
      <trkpt lat="44.58256" lon="5.78201">
        <ele>1110.46</ele>
        <time>2017-05-25T10:37:48Z</time>
      </trkpt>
      <trkpt lat="44.58256" lon="5.78201">
        <ele>1109.98</ele>
        <time>2017-05-25T10:38:28Z</time>
      </trkpt>
      <trkpt lat="44.58257" lon="5.782">
        <ele>1110.46</ele>
        <time>2017-05-25T10:39:09Z</time>
      </trkpt>
      <trkpt lat="44.58256" lon="5.78199">
        <ele>1110.46</ele>
        <time>2017-05-25T10:39:44Z</time>
      </trkpt>
      <trkpt lat="44.58256" lon="5.78196">
        <ele>1110.46</ele>
        <time>2017-05-25T10:40:20Z</time>
      </trkpt>
      <trkpt lat="44.58257" lon="5.78198">
        <ele>1110.46</ele>
        <time>2017-05-25T10:41:00Z</time>
      </trkpt>
      <trkpt lat="44.58256" lon="5.78199">
        <ele>1109.98</ele>
        <time>2017-05-25T10:41:42Z</time>
      </trkpt>
      <trkpt lat="44.58254" lon="5.78203">
        <ele>1110.46</ele>
        <time>2017-05-25T10:42:27Z</time>
      </trkpt>
      <trkpt lat="44.58258" lon="5.78198">
        <ele>1109.98</ele>
        <time>2017-05-25T10:43:06Z</time>
      </trkpt>
      <trkpt lat="44.58263" lon="5.78201">
        <ele>1109.98</ele>
        <time>2017-05-25T10:43:41Z</time>
      </trkpt>
      <trkpt lat="44.58253" lon="5.78202">
        <ele>1109.98</ele>
        <time>2017-05-25T10:44:20Z</time>
      </trkpt>
      <trkpt lat="44.58255" lon="5.78202">
        <ele>1109.98</ele>
        <time>2017-05-25T10:45:05Z</time>
      </trkpt>
      <trkpt lat="44.58255" lon="5.78201">
        <ele>1109.98</ele>
        <time>2017-05-25T10:45:44Z</time>
      </trkpt>
      <trkpt lat="44.58255" lon="5.78199">
        <ele>1109.98</ele>
        <time>2017-05-25T10:46:25Z</time>
      </trkpt>
      <trkpt lat="44.58252" lon="5.78204">
        <ele>1109.98</ele>
        <time>2017-05-25T10:47:03Z</time>
      </trkpt>
      <trkpt lat="44.58252" lon="5.78204">
        <ele>1110.46</ele>
        <time>2017-05-25T10:47:43Z</time>
      </trkpt>
      <trkpt lat="44.58253" lon="5.78199">
        <ele>1110.46</ele>
        <time>2017-05-25T10:48:17Z</time>
      </trkpt>
      <trkpt lat="44.58253" lon="5.782">
        <ele>1110.94</ele>
        <time>2017-05-25T10:48:58Z</time>
      </trkpt>
      <trkpt lat="44.58254" lon="5.78195">
        <ele>1110.46</ele>
        <time>2017-05-25T10:49:43Z</time>
      </trkpt>
      <trkpt lat="44.58254" lon="5.78201">
        <ele>1110.46</ele>
        <time>2017-05-25T10:50:36Z</time>
      </trkpt>
      <trkpt lat="44.58255" lon="5.78198">
        <ele>1110.46</ele>
        <time>2017-05-25T10:51:17Z</time>
      </trkpt>
      <trkpt lat="44.58258" lon="5.78195">
        <ele>1110.46</ele>
        <time>2017-05-25T10:51:57Z</time>
      </trkpt>
      <trkpt lat="44.58257" lon="5.78197">
        <ele>1110.46</ele>
        <time>2017-05-25T10:52:37Z</time>
      </trkpt>
      <trkpt lat="44.58255" lon="5.78197">
        <ele>1110.94</ele>
        <time>2017-05-25T10:53:17Z</time>
      </trkpt>
      <trkpt lat="44.58253" lon="5.78198">
        <ele>1110.94</ele>
        <time>2017-05-25T10:53:58Z</time>
      </trkpt>
      <trkpt lat="44.58254" lon="5.78194">
        <ele>1110.94</ele>
        <time>2017-05-25T10:54:36Z</time>
      </trkpt>
      <trkpt lat="44.58252" lon="5.78199">
        <ele>1110.94</ele>
        <time>2017-05-25T10:55:10Z</time>
      </trkpt>
      <trkpt lat="44.58253" lon="5.78203">
        <ele>1111.42</ele>
        <time>2017-05-25T10:55:52Z</time>
      </trkpt>
      <trkpt lat="44.58255" lon="5.78203">
        <ele>1111.42</ele>
        <time>2017-05-25T10:56:39Z</time>
      </trkpt>
      <trkpt lat="44.58255" lon="5.78203">
        <ele>1110.94</ele>
        <time>2017-05-25T10:57:23Z</time>
      </trkpt>
      <trkpt lat="44.58253" lon="5.78205">
        <ele>1110.94</ele>
        <time>2017-05-25T10:58:03Z</time>
      </trkpt>
      <trkpt lat="44.58252" lon="5.78203">
        <ele>1111.42</ele>
        <time>2017-05-25T10:58:53Z</time>
      </trkpt>
      <trkpt lat="44.58254" lon="5.78202">
        <ele>1111.42</ele>
        <time>2017-05-25T10:59:30Z</time>
      </trkpt>
      <trkpt lat="44.58255" lon="5.78201">
        <ele>1111.42</ele>
        <time>2017-05-25T11:00:06Z</time>
      </trkpt>
      <trkpt lat="44.58253" lon="5.78204">
        <ele>1111.9</ele>
        <time>2017-05-25T11:00:46Z</time>
      </trkpt>
      <trkpt lat="44.58258" lon="5.782">
        <ele>1111.42</ele>
        <time>2017-05-25T11:01:28Z</time>
      </trkpt>
      <trkpt lat="44.58256" lon="5.78201">
        <ele>1111.42</ele>
        <time>2017-05-25T11:02:09Z</time>
      </trkpt>
      <trkpt lat="44.58257" lon="5.782">
        <ele>1111.42</ele>
        <time>2017-05-25T11:02:48Z</time>
      </trkpt>
      <trkpt lat="44.58257" lon="5.78199">
        <ele>1111.42</ele>
        <time>2017-05-25T11:03:28Z</time>
      </trkpt>
      <trkpt lat="44.58258" lon="5.78199">
        <ele>1111.42</ele>
        <time>2017-05-25T11:04:01Z</time>
      </trkpt>
      <trkpt lat="44.58256" lon="5.78201">
        <ele>1111.42</ele>
        <time>2017-05-25T11:04:42Z</time>
      </trkpt>
      <trkpt lat="44.58255" lon="5.782">
        <ele>1111.42</ele>
        <time>2017-05-25T11:05:17Z</time>
      </trkpt>
      <trkpt lat="44.58255" lon="5.78201">
        <ele>1111.42</ele>
        <time>2017-05-25T11:05:55Z</time>
      </trkpt>
      <trkpt lat="44.58258" lon="5.78202">
        <ele>1110.94</ele>
        <time>2017-05-25T11:06:33Z</time>
      </trkpt>
      <trkpt lat="44.58256" lon="5.78197">
        <ele>1110.94</ele>
        <time>2017-05-25T11:07:16Z</time>
      </trkpt>
      <trkpt lat="44.58254" lon="5.78199">
        <ele>1110.94</ele>
        <time>2017-05-25T11:07:55Z</time>
      </trkpt>
      <trkpt lat="44.58255" lon="5.78197">
        <ele>1110.46</ele>
        <time>2017-05-25T11:08:36Z</time>
      </trkpt>
      <trkpt lat="44.58255" lon="5.78197">
        <ele>1110.46</ele>
        <time>2017-05-25T11:09:09Z</time>
      </trkpt>
      <trkpt lat="44.58253" lon="5.782">
        <ele>1110.46</ele>
        <time>2017-05-25T11:09:48Z</time>
      </trkpt>
      <trkpt lat="44.58253" lon="5.782">
        <ele>1110.46</ele>
        <time>2017-05-25T11:10:30Z</time>
      </trkpt>
      <trkpt lat="44.58258" lon="5.78198">
        <ele>1110.94</ele>
        <time>2017-05-25T11:10:48Z</time>
      </trkpt>
      <trkpt lat="44.5826" lon="5.78198">
        <ele>1110.46</ele>
        <time>2017-05-25T11:11:01Z</time>
      </trkpt>
      <trkpt lat="44.58262" lon="5.78198">
        <ele>1110.46</ele>
        <time>2017-05-25T11:11:23Z</time>
      </trkpt>
      <trkpt lat="44.58265" lon="5.78198">
        <ele>1110.46</ele>
        <time>2017-05-25T11:11:54Z</time>
      </trkpt>
      <trkpt lat="44.58271" lon="5.78199">
        <ele>1110.46</ele>
        <time>2017-05-25T11:12:32Z</time>
      </trkpt>
      <trkpt lat="44.58267" lon="5.78197">
        <ele>1110.46</ele>
        <time>2017-05-25T11:13:02Z</time>
      </trkpt>
      <trkpt lat="44.58265" lon="5.78194">
        <ele>1110.94</ele>
        <time>2017-05-25T11:13:45Z</time>
      </trkpt>
      <trkpt lat="44.58262" lon="5.78193">
        <ele>1110.94</ele>
        <time>2017-05-25T11:14:12Z</time>
      </trkpt>
      <trkpt lat="44.58261" lon="5.78193">
        <ele>1110.94</ele>
        <time>2017-05-25T11:14:43Z</time>
      </trkpt>
      <trkpt lat="44.58266" lon="5.78195">
        <ele>1110.94</ele>
        <time>2017-05-25T11:15:19Z</time>
      </trkpt>
      <trkpt lat="44.58268" lon="5.78201">
        <ele>1110.94</ele>
        <time>2017-05-25T11:15:56Z</time>
      </trkpt>
      <trkpt lat="44.58268" lon="5.78198">
        <ele>1111.42</ele>
        <time>2017-05-25T11:16:33Z</time>
      </trkpt>
      <trkpt lat="44.58267" lon="5.78197">
        <ele>1111.42</ele>
        <time>2017-05-25T11:17:10Z</time>
      </trkpt>
      <trkpt lat="44.58266" lon="5.78195">
        <ele>1111.9</ele>
        <time>2017-05-25T11:17:51Z</time>
      </trkpt>
      <trkpt lat="44.58263" lon="5.78195">
        <ele>1111.9</ele>
        <time>2017-05-25T11:18:27Z</time>
      </trkpt>
      <trkpt lat="44.58264" lon="5.78196">
        <ele>1111.9</ele>
        <time>2017-05-25T11:18:56Z</time>
      </trkpt>
      <trkpt lat="44.58268" lon="5.78197">
        <ele>1111.9</ele>
        <time>2017-05-25T11:19:30Z</time>
      </trkpt>
      <trkpt lat="44.58264" lon="5.78201">
        <ele>1111.9</ele>
        <time>2017-05-25T11:20:00Z</time>
      </trkpt>
      <trkpt lat="44.58261" lon="5.782">
        <ele>1111.9</ele>
        <time>2017-05-25T11:20:34Z</time>
      </trkpt>
      <trkpt lat="44.58258" lon="5.78199">
        <ele>1111.42</ele>
        <time>2017-05-25T11:21:09Z</time>
      </trkpt>
      <trkpt lat="44.58261" lon="5.78198">
        <ele>1111.9</ele>
        <time>2017-05-25T11:21:35Z</time>
      </trkpt>
      <trkpt lat="44.58265" lon="5.782">
        <ele>1112.38</ele>
        <time>2017-05-25T11:22:18Z</time>
      </trkpt>
      <trkpt lat="44.58263" lon="5.78202">
        <ele>1112.38</ele>
        <time>2017-05-25T11:22:48Z</time>
      </trkpt>
      <trkpt lat="44.58262" lon="5.78198">
        <ele>1112.86</ele>
        <time>2017-05-25T11:23:27Z</time>
      </trkpt>
      <trkpt lat="44.58263" lon="5.78201">
        <ele>1112.86</ele>
        <time>2017-05-25T11:24:01Z</time>
      </trkpt>
      <trkpt lat="44.58257" lon="5.78198">
        <ele>1113.34</ele>
        <time>2017-05-25T11:24:41Z</time>
      </trkpt>
      <trkpt lat="44.58255" lon="5.78195">
        <ele>1113.34</ele>
        <time>2017-05-25T11:25:20Z</time>
      </trkpt>
      <trkpt lat="44.58258" lon="5.78197">
        <ele>1113.34</ele>
        <time>2017-05-25T11:26:02Z</time>
      </trkpt>
      <trkpt lat="44.5826" lon="5.78198">
        <ele>1113.34</ele>
        <time>2017-05-25T11:26:41Z</time>
      </trkpt>
      <trkpt lat="44.58261" lon="5.78197">
        <ele>1113.34</ele>
        <time>2017-05-25T11:27:22Z</time>
      </trkpt>
      <trkpt lat="44.58261" lon="5.78202">
        <ele>1112.86</ele>
        <time>2017-05-25T11:28:03Z</time>
      </trkpt>
      <trkpt lat="44.58259" lon="5.782">
        <ele>1112.86</ele>
        <time>2017-05-25T11:28:45Z</time>
      </trkpt>
      <trkpt lat="44.58263" lon="5.78202">
        <ele>1112.86</ele>
        <time>2017-05-25T11:29:29Z</time>
      </trkpt>
      <trkpt lat="44.58263" lon="5.78198">
        <ele>1112.86</ele>
        <time>2017-05-25T11:30:00Z</time>
      </trkpt>
      <trkpt lat="44.58261" lon="5.782">
        <ele>1112.86</ele>
        <time>2017-05-25T11:30:42Z</time>
      </trkpt>
      <trkpt lat="44.58262" lon="5.78202">
        <ele>1112.86</ele>
        <time>2017-05-25T11:31:18Z</time>
      </trkpt>
      <trkpt lat="44.5826" lon="5.78199">
        <ele>1112.86</ele>
        <time>2017-05-25T11:31:57Z</time>
      </trkpt>
      <trkpt lat="44.58261" lon="5.78199">
        <ele>1113.34</ele>
        <time>2017-05-25T11:32:33Z</time>
      </trkpt>
      <trkpt lat="44.58263" lon="5.782">
        <ele>1113.34</ele>
        <time>2017-05-25T11:33:19Z</time>
      </trkpt>
      <trkpt lat="44.58259" lon="5.782">
        <ele>1113.34</ele>
        <time>2017-05-25T11:33:48Z</time>
      </trkpt>
      <trkpt lat="44.58257" lon="5.78199">
        <ele>1113.34</ele>
        <time>2017-05-25T11:34:17Z</time>
      </trkpt>
      <trkpt lat="44.58256" lon="5.78199">
        <ele>1113.82</ele>
        <time>2017-05-25T11:34:46Z</time>
      </trkpt>
      <trkpt lat="44.58257" lon="5.782">
        <ele>1113.34</ele>
        <time>2017-05-25T11:35:28Z</time>
      </trkpt>
      <trkpt lat="44.58258" lon="5.78197">
        <ele>1113.82</ele>
        <time>2017-05-25T11:35:59Z</time>
      </trkpt>
      <trkpt lat="44.58258" lon="5.78198">
        <ele>1113.82</ele>
        <time>2017-05-25T11:36:37Z</time>
      </trkpt>
      <trkpt lat="44.58263" lon="5.78199">
        <ele>1113.34</ele>
        <time>2017-05-25T11:37:14Z</time>
      </trkpt>
      <trkpt lat="44.58262" lon="5.782">
        <ele>1113.34</ele>
        <time>2017-05-25T11:37:48Z</time>
      </trkpt>
      <trkpt lat="44.58262" lon="5.78198">
        <ele>1112.86</ele>
        <time>2017-05-25T11:38:21Z</time>
      </trkpt>
      <trkpt lat="44.58267" lon="5.782">
        <ele>1112.86</ele>
        <time>2017-05-25T11:39:01Z</time>
      </trkpt>
      <trkpt lat="44.58261" lon="5.78198">
        <ele>1112.86</ele>
        <time>2017-05-25T11:39:36Z</time>
      </trkpt>
      <trkpt lat="44.58261" lon="5.78199">
        <ele>1112.38</ele>
        <time>2017-05-25T11:40:12Z</time>
      </trkpt>
      <trkpt lat="44.58261" lon="5.78198">
        <ele>1112.38</ele>
        <time>2017-05-25T11:40:56Z</time>
      </trkpt>
      <trkpt lat="44.58258" lon="5.782">
        <ele>1112.38</ele>
        <time>2017-05-25T11:41:34Z</time>
      </trkpt>
      <trkpt lat="44.58263" lon="5.78197">
        <ele>1112.38</ele>
        <time>2017-05-25T11:42:16Z</time>
      </trkpt>
      <trkpt lat="44.58261" lon="5.78199">
        <ele>1112.38</ele>
        <time>2017-05-25T11:42:51Z</time>
      </trkpt>
      <trkpt lat="44.58264" lon="5.782">
        <ele>1112.38</ele>
        <time>2017-05-25T11:43:31Z</time>
      </trkpt>
      <trkpt lat="44.58267" lon="5.78199">
        <ele>1112.86</ele>
        <time>2017-05-25T11:44:05Z</time>
      </trkpt>
      <trkpt lat="44.58261" lon="5.78198">
        <ele>1112.86</ele>
        <time>2017-05-25T11:44:46Z</time>
      </trkpt>
      <trkpt lat="44.58261" lon="5.782">
        <ele>1112.38</ele>
        <time>2017-05-25T11:45:14Z</time>
      </trkpt>
      <trkpt lat="44.58261" lon="5.78198">
        <ele>1112.86</ele>
        <time>2017-05-25T11:45:55Z</time>
      </trkpt>
      <trkpt lat="44.58255" lon="5.78199">
        <ele>1112.86</ele>
        <time>2017-05-25T11:46:24Z</time>
      </trkpt>
      <trkpt lat="44.58261" lon="5.78198">
        <ele>1112.86</ele>
        <time>2017-05-25T11:47:06Z</time>
      </trkpt>
      <trkpt lat="44.58262" lon="5.78198">
        <ele>1112.86</ele>
        <time>2017-05-25T11:47:35Z</time>
      </trkpt>
      <trkpt lat="44.58263" lon="5.78197">
        <ele>1112.38</ele>
        <time>2017-05-25T11:48:08Z</time>
      </trkpt>
      <trkpt lat="44.58262" lon="5.78198">
        <ele>1112.38</ele>
        <time>2017-05-25T11:48:43Z</time>
      </trkpt>
      <trkpt lat="44.58265" lon="5.78201">
        <ele>1112.38</ele>
        <time>2017-05-25T11:49:25Z</time>
      </trkpt>
      <trkpt lat="44.58265" lon="5.78199">
        <ele>1112.38</ele>
        <time>2017-05-25T11:50:03Z</time>
      </trkpt>
      <trkpt lat="44.58267" lon="5.782">
        <ele>1112.38</ele>
        <time>2017-05-25T11:50:36Z</time>
      </trkpt>
      <trkpt lat="44.58268" lon="5.78201">
        <ele>1111.9</ele>
        <time>2017-05-25T11:51:09Z</time>
      </trkpt>
      <trkpt lat="44.58264" lon="5.782">
        <ele>1112.38</ele>
        <time>2017-05-25T11:51:34Z</time>
      </trkpt>
      <trkpt lat="44.58261" lon="5.78199">
        <ele>1111.9</ele>
        <time>2017-05-25T11:52:04Z</time>
      </trkpt>
      <trkpt lat="44.58258" lon="5.78198">
        <ele>1111.9</ele>
        <time>2017-05-25T11:52:38Z</time>
      </trkpt>
      <trkpt lat="44.58258" lon="5.78197">
        <ele>1111.9</ele>
        <time>2017-05-25T11:53:14Z</time>
      </trkpt>
      <trkpt lat="44.58259" lon="5.78197">
        <ele>1111.9</ele>
        <time>2017-05-25T11:53:50Z</time>
      </trkpt>
      <trkpt lat="44.58259" lon="5.78198">
        <ele>1111.9</ele>
        <time>2017-05-25T11:54:26Z</time>
      </trkpt>
      <trkpt lat="44.5826" lon="5.78201">
        <ele>1112.38</ele>
        <time>2017-05-25T11:54:39Z</time>
      </trkpt>
      <trkpt lat="44.58257" lon="5.78201">
        <ele>1111.9</ele>
        <time>2017-05-25T11:54:54Z</time>
      </trkpt>
      <trkpt lat="44.58257" lon="5.78201">
        <ele>1111.9</ele>
        <time>2017-05-25T11:55:19Z</time>
      </trkpt>
      <trkpt lat="44.58258" lon="5.78201">
        <ele>1111.9</ele>
        <time>2017-05-25T11:55:37Z</time>
      </trkpt>
      <trkpt lat="44.58255" lon="5.78196">
        <ele>1111.42</ele>
        <time>2017-05-25T11:56:02Z</time>
      </trkpt>
      <trkpt lat="44.58258" lon="5.78198">
        <ele>1111.42</ele>
        <time>2017-05-25T11:56:16Z</time>
      </trkpt>
      <trkpt lat="44.58261" lon="5.78206">
        <ele>1111.42</ele>
        <time>2017-05-25T11:56:33Z</time>
      </trkpt>
      <trkpt lat="44.58258" lon="5.7821">
        <ele>1110.94</ele>
        <time>2017-05-25T11:56:52Z</time>
      </trkpt>
      <trkpt lat="44.58258" lon="5.78214">
        <ele>1109.98</ele>
        <time>2017-05-25T11:57:06Z</time>
      </trkpt>
      <trkpt lat="44.58255" lon="5.78217">
        <ele>1109.5</ele>
        <time>2017-05-25T11:57:19Z</time>
      </trkpt>
      <trkpt lat="44.58256" lon="5.78213">
        <ele>1109.02</ele>
        <time>2017-05-25T11:57:37Z</time>
      </trkpt>
      <trkpt lat="44.58258" lon="5.78214">
        <ele>1109.5</ele>
        <time>2017-05-25T11:58:07Z</time>
      </trkpt>
      <trkpt lat="44.58259" lon="5.78215">
        <ele>1109.5</ele>
        <time>2017-05-25T11:58:09Z</time>
      </trkpt>
      <trkpt lat="44.58255" lon="5.78216">
        <ele>1109.5</ele>
        <time>2017-05-25T11:58:23Z</time>
      </trkpt>
      <trkpt lat="44.58254" lon="5.78215">
        <ele>1109.02</ele>
        <time>2017-05-25T11:58:52Z</time>
      </trkpt>
      <trkpt lat="44.58252" lon="5.78216">
        <ele>1109.02</ele>
        <time>2017-05-25T11:59:12Z</time>
      </trkpt>
      <trkpt lat="44.58249" lon="5.78208">
        <ele>1109.5</ele>
        <time>2017-05-25T11:59:33Z</time>
      </trkpt>
      <trkpt lat="44.58246" lon="5.78219">
        <ele>1108.06</ele>
        <time>2017-05-25T11:59:47Z</time>
      </trkpt>
      <trkpt lat="44.58247" lon="5.78224">
        <ele>1107.1</ele>
        <time>2017-05-25T12:00:05Z</time>
      </trkpt>
      <trkpt lat="44.58251" lon="5.78227">
        <ele>1107.1</ele>
        <time>2017-05-25T12:00:26Z</time>
      </trkpt>
      <trkpt lat="44.5825" lon="5.78231">
        <ele>1106.61</ele>
        <time>2017-05-25T12:00:29Z</time>
      </trkpt>
      <trkpt lat="44.5825" lon="5.78247">
        <ele>1104.21</ele>
        <time>2017-05-25T12:00:41Z</time>
      </trkpt>
      <trkpt lat="44.58254" lon="5.78261">
        <ele>1102.29</ele>
        <time>2017-05-25T12:00:55Z</time>
      </trkpt>
      <trkpt lat="44.58253" lon="5.78275">
        <ele>1099.89</ele>
        <time>2017-05-25T12:01:10Z</time>
      </trkpt>
      <trkpt lat="44.58256" lon="5.7829">
        <ele>1097</ele>
        <time>2017-05-25T12:01:25Z</time>
      </trkpt>
      <trkpt lat="44.5826" lon="5.78301">
        <ele>1094.6</ele>
        <time>2017-05-25T12:01:38Z</time>
      </trkpt>
      <trkpt lat="44.58267" lon="5.78315">
        <ele>1093.16</ele>
        <time>2017-05-25T12:01:51Z</time>
      </trkpt>
      <trkpt lat="44.58273" lon="5.78326">
        <ele>1091.23</ele>
        <time>2017-05-25T12:02:03Z</time>
      </trkpt>
      <trkpt lat="44.58284" lon="5.78336">
        <ele>1090.27</ele>
        <time>2017-05-25T12:02:17Z</time>
      </trkpt>
      <trkpt lat="44.58293" lon="5.78347">
        <ele>1088.35</ele>
        <time>2017-05-25T12:02:31Z</time>
      </trkpt>
      <trkpt lat="44.58302" lon="5.78354">
        <ele>1086.91</ele>
        <time>2017-05-25T12:02:43Z</time>
      </trkpt>
      <trkpt lat="44.58313" lon="5.78364">
        <ele>1085.47</ele>
        <time>2017-05-25T12:02:56Z</time>
      </trkpt>
      <trkpt lat="44.58316" lon="5.78366">
        <ele>1084.99</ele>
        <time>2017-05-25T12:03:00Z</time>
      </trkpt>
      <trkpt lat="44.58319" lon="5.78369">
        <ele>1084.99</ele>
        <time>2017-05-25T12:03:04Z</time>
      </trkpt>
      <trkpt lat="44.58331" lon="5.78381">
        <ele>1083.06</ele>
        <time>2017-05-25T12:03:18Z</time>
      </trkpt>
      <trkpt lat="44.58342" lon="5.78386">
        <ele>1082.1</ele>
        <time>2017-05-25T12:03:30Z</time>
      </trkpt>
      <trkpt lat="44.5835" lon="5.78392">
        <ele>1080.66</ele>
        <time>2017-05-25T12:03:41Z</time>
      </trkpt>
      <trkpt lat="44.58359" lon="5.78404">
        <ele>1079.7</ele>
        <time>2017-05-25T12:03:53Z</time>
      </trkpt>
      <trkpt lat="44.5837" lon="5.78409">
        <ele>1079.22</ele>
        <time>2017-05-25T12:04:03Z</time>
      </trkpt>
      <trkpt lat="44.58382" lon="5.78419">
        <ele>1079.7</ele>
        <time>2017-05-25T12:04:17Z</time>
      </trkpt>
      <trkpt lat="44.58393" lon="5.78433">
        <ele>1079.22</ele>
        <time>2017-05-25T12:04:32Z</time>
      </trkpt>
      <trkpt lat="44.58398" lon="5.78443">
        <ele>1077.78</ele>
        <time>2017-05-25T12:04:41Z</time>
      </trkpt>
      <trkpt lat="44.58405" lon="5.78464">
        <ele>1074.89</ele>
        <time>2017-05-25T12:04:57Z</time>
      </trkpt>
      <trkpt lat="44.58406" lon="5.78465">
        <ele>1074.89</ele>
        <time>2017-05-25T12:04:58Z</time>
      </trkpt>
      <trkpt lat="44.58407" lon="5.78469">
        <ele>1074.41</ele>
        <time>2017-05-25T12:05:01Z</time>
      </trkpt>
      <trkpt lat="44.58417" lon="5.78483">
        <ele>1072.01</ele>
        <time>2017-05-25T12:05:17Z</time>
      </trkpt>
      <trkpt lat="44.58428" lon="5.78497">
        <ele>1070.57</ele>
        <time>2017-05-25T12:05:32Z</time>
      </trkpt>
      <trkpt lat="44.5844" lon="5.78507">
        <ele>1067.68</ele>
        <time>2017-05-25T12:05:47Z</time>
      </trkpt>
      <trkpt lat="44.58454" lon="5.78518">
        <ele>1066.24</ele>
        <time>2017-05-25T12:06:01Z</time>
      </trkpt>
      <trkpt lat="44.58459" lon="5.78524">
        <ele>1065.76</ele>
        <time>2017-05-25T12:06:15Z</time>
      </trkpt>
      <trkpt lat="44.58464" lon="5.78534">
        <ele>1062.39</ele>
        <time>2017-05-25T12:06:29Z</time>
      </trkpt>
      <trkpt lat="44.58463" lon="5.78539">
        <ele>1061.43</ele>
        <time>2017-05-25T12:06:34Z</time>
      </trkpt>
      <trkpt lat="44.58461" lon="5.78549">
        <ele>1059.51</ele>
        <time>2017-05-25T12:06:41Z</time>
      </trkpt>
      <trkpt lat="44.58465" lon="5.78559">
        <ele>1057.11</ele>
        <time>2017-05-25T12:06:52Z</time>
      </trkpt>
      <trkpt lat="44.58471" lon="5.78559">
        <ele>1056.15</ele>
        <time>2017-05-25T12:06:57Z</time>
      </trkpt>
      <trkpt lat="44.58486" lon="5.78564">
        <ele>1054.22</ele>
        <time>2017-05-25T12:07:10Z</time>
      </trkpt>
      <trkpt lat="44.58499" lon="5.78578">
        <ele>1051.82</ele>
        <time>2017-05-25T12:07:26Z</time>
      </trkpt>
      <trkpt lat="44.58516" lon="5.78588">
        <ele>1050.86</ele>
        <time>2017-05-25T12:07:43Z</time>
      </trkpt>
      <trkpt lat="44.58515" lon="5.78593">
        <ele>1050.38</ele>
        <time>2017-05-25T12:07:58Z</time>
      </trkpt>
      <trkpt lat="44.58511" lon="5.786">
        <ele>1048.45</ele>
        <time>2017-05-25T12:08:10Z</time>
      </trkpt>
      <trkpt lat="44.58507" lon="5.78598">
        <ele>1048.45</ele>
        <time>2017-05-25T12:08:25Z</time>
      </trkpt>
      <trkpt lat="44.58511" lon="5.78603">
        <ele>1047.97</ele>
        <time>2017-05-25T12:08:45Z</time>
      </trkpt>
      <trkpt lat="44.5851" lon="5.78603">
        <ele>1047.49</ele>
        <time>2017-05-25T12:09:13Z</time>
      </trkpt>
      <trkpt lat="44.58507" lon="5.78603">
        <ele>1047.97</ele>
        <time>2017-05-25T12:09:36Z</time>
      </trkpt>
      <trkpt lat="44.58514" lon="5.78601">
        <ele>1047.97</ele>
        <time>2017-05-25T12:09:53Z</time>
      </trkpt>
      <trkpt lat="44.58513" lon="5.786">
        <ele>1047.49</ele>
        <time>2017-05-25T12:10:23Z</time>
      </trkpt>
      <trkpt lat="44.58511" lon="5.78601">
        <ele>1047.49</ele>
        <time>2017-05-25T12:10:55Z</time>
      </trkpt>
      <trkpt lat="44.58513" lon="5.78598">
        <ele>1047.97</ele>
        <time>2017-05-25T12:11:19Z</time>
      </trkpt>
      <trkpt lat="44.58515" lon="5.7859">
        <ele>1048.94</ele>
        <time>2017-05-25T12:11:32Z</time>
      </trkpt>
      <trkpt lat="44.58519" lon="5.78596">
        <ele>1048.94</ele>
        <time>2017-05-25T12:11:49Z</time>
      </trkpt>
      <trkpt lat="44.58514" lon="5.78599">
        <ele>1048.45</ele>
        <time>2017-05-25T12:12:20Z</time>
      </trkpt>
      <trkpt lat="44.58516" lon="5.78592">
        <ele>1048.45</ele>
        <time>2017-05-25T12:12:53Z</time>
      </trkpt>
      <trkpt lat="44.58527" lon="5.78597">
        <ele>1048.94</ele>
        <time>2017-05-25T12:13:07Z</time>
      </trkpt>
      <trkpt lat="44.58535" lon="5.78603">
        <ele>1048.45</ele>
        <time>2017-05-25T12:13:20Z</time>
      </trkpt>
      <trkpt lat="44.58548" lon="5.78603">
        <ele>1048.94</ele>
        <time>2017-05-25T12:13:33Z</time>
      </trkpt>
      <trkpt lat="44.58558" lon="5.7861">
        <ele>1048.45</ele>
        <time>2017-05-25T12:13:47Z</time>
      </trkpt>
      <trkpt lat="44.5856" lon="5.78608">
        <ele>1048.45</ele>
        <time>2017-05-25T12:14:01Z</time>
      </trkpt>
      <trkpt lat="44.58565" lon="5.7861">
        <ele>1047.97</ele>
        <time>2017-05-25T12:14:24Z</time>
      </trkpt>
      <trkpt lat="44.58562" lon="5.78613">
        <ele>1047.97</ele>
        <time>2017-05-25T12:14:52Z</time>
      </trkpt>
      <trkpt lat="44.58564" lon="5.78615">
        <ele>1047.97</ele>
        <time>2017-05-25T12:15:12Z</time>
      </trkpt>
      <trkpt lat="44.58569" lon="5.78617">
        <ele>1047.49</ele>
        <time>2017-05-25T12:15:29Z</time>
      </trkpt>
      <trkpt lat="44.58564" lon="5.78613">
        <ele>1047.01</ele>
        <time>2017-05-25T12:16:02Z</time>
      </trkpt>
      <trkpt lat="44.58568" lon="5.78602">
        <ele>1047.01</ele>
        <time>2017-05-25T12:16:31Z</time>
      </trkpt>
      <trkpt lat="44.58569" lon="5.78606">
        <ele>1047.01</ele>
        <time>2017-05-25T12:16:55Z</time>
      </trkpt>
      <trkpt lat="44.58567" lon="5.78604">
        <ele>1047.01</ele>
        <time>2017-05-25T12:17:21Z</time>
      </trkpt>
      <trkpt lat="44.58567" lon="5.78608">
        <ele>1047.01</ele>
        <time>2017-05-25T12:17:47Z</time>
      </trkpt>
      <trkpt lat="44.58569" lon="5.78611">
        <ele>1047.01</ele>
        <time>2017-05-25T12:18:05Z</time>
      </trkpt>
      <trkpt lat="44.58565" lon="5.78625">
        <ele>1045.57</ele>
        <time>2017-05-25T12:18:19Z</time>
      </trkpt>
      <trkpt lat="44.58567" lon="5.78629">
        <ele>1045.09</ele>
        <time>2017-05-25T12:18:46Z</time>
      </trkpt>
      <trkpt lat="44.58565" lon="5.7863">
        <ele>1045.09</ele>
        <time>2017-05-25T12:19:15Z</time>
      </trkpt>
      <trkpt lat="44.58565" lon="5.7863">
        <ele>1044.61</ele>
        <time>2017-05-25T12:19:17Z</time>
      </trkpt>
      <trkpt lat="44.58556" lon="5.78636">
        <ele>1044.13</ele>
        <time>2017-05-25T12:19:30Z</time>
      </trkpt>
      <trkpt lat="44.58547" lon="5.78634">
        <ele>1043.17</ele>
        <time>2017-05-25T12:19:42Z</time>
      </trkpt>
      <trkpt lat="44.5853" lon="5.78631">
        <ele>1042.69</ele>
        <time>2017-05-25T12:19:59Z</time>
      </trkpt>
      <trkpt lat="44.58528" lon="5.78631">
        <ele>1042.21</ele>
        <time>2017-05-25T12:20:01Z</time>
      </trkpt>
      <trkpt lat="44.58514" lon="5.78631">
        <ele>1040.76</ele>
        <time>2017-05-25T12:20:17Z</time>
      </trkpt>
      <trkpt lat="44.58498" lon="5.78628">
        <ele>1039.8</ele>
        <time>2017-05-25T12:20:33Z</time>
      </trkpt>
      <trkpt lat="44.58483" lon="5.78614">
        <ele>1038.36</ele>
        <time>2017-05-25T12:20:49Z</time>
      </trkpt>
      <trkpt lat="44.5847" lon="5.786">
        <ele>1037.4</ele>
        <time>2017-05-25T12:21:05Z</time>
      </trkpt>
      <trkpt lat="44.58456" lon="5.78588">
        <ele>1036.44</ele>
        <time>2017-05-25T12:21:20Z</time>
      </trkpt>
      <trkpt lat="44.5844" lon="5.78579">
        <ele>1035</ele>
        <time>2017-05-25T12:21:36Z</time>
      </trkpt>
      <trkpt lat="44.58425" lon="5.78574">
        <ele>1034.52</ele>
        <time>2017-05-25T12:21:51Z</time>
      </trkpt>
      <trkpt lat="44.58409" lon="5.78569">
        <ele>1033.07</ele>
        <time>2017-05-25T12:22:06Z</time>
      </trkpt>
      <trkpt lat="44.58396" lon="5.78562">
        <ele>1032.59</ele>
        <time>2017-05-25T12:22:19Z</time>
      </trkpt>
      <trkpt lat="44.5838" lon="5.78556">
        <ele>1031.15</ele>
        <time>2017-05-25T12:22:34Z</time>
      </trkpt>
      <trkpt lat="44.58361" lon="5.78555">
        <ele>1030.19</ele>
        <time>2017-05-25T12:22:49Z</time>
      </trkpt>
      <trkpt lat="44.58343" lon="5.78554">
        <ele>1029.23</ele>
        <time>2017-05-25T12:23:04Z</time>
      </trkpt>
      <trkpt lat="44.58328" lon="5.78552">
        <ele>1027.79</ele>
        <time>2017-05-25T12:23:17Z</time>
      </trkpt>
      <trkpt lat="44.58309" lon="5.78549">
        <ele>1027.31</ele>
        <time>2017-05-25T12:23:34Z</time>
      </trkpt>
      <trkpt lat="44.58293" lon="5.78541">
        <ele>1025.38</ele>
        <time>2017-05-25T12:23:49Z</time>
      </trkpt>
      <trkpt lat="44.58292" lon="5.78541">
        <ele>1025.38</ele>
        <time>2017-05-25T12:23:51Z</time>
      </trkpt>
      <trkpt lat="44.58284" lon="5.78537">
        <ele>1025.86</ele>
        <time>2017-05-25T12:23:58Z</time>
      </trkpt>
      <trkpt lat="44.58274" lon="5.78536">
        <ele>1024.9</ele>
        <time>2017-05-25T12:24:08Z</time>
      </trkpt>
      <trkpt lat="44.58266" lon="5.78534">
        <ele>1024.42</ele>
        <time>2017-05-25T12:24:17Z</time>
      </trkpt>
      <trkpt lat="44.58249" lon="5.7853">
        <ele>1023.46</ele>
        <time>2017-05-25T12:24:27Z</time>
      </trkpt>
      <trkpt lat="44.58235" lon="5.78526">
        <ele>1022.98</ele>
        <time>2017-05-25T12:24:40Z</time>
      </trkpt>
      <trkpt lat="44.58216" lon="5.78518">
        <ele>1021.54</ele>
        <time>2017-05-25T12:24:58Z</time>
      </trkpt>
      <trkpt lat="44.58206" lon="5.78513">
        <ele>1021.06</ele>
        <time>2017-05-25T12:25:09Z</time>
      </trkpt>
      <trkpt lat="44.58203" lon="5.78512">
        <ele>1020.58</ele>
        <time>2017-05-25T12:25:11Z</time>
      </trkpt>
      <trkpt lat="44.582" lon="5.7851">
        <ele>1021.06</ele>
        <time>2017-05-25T12:25:14Z</time>
      </trkpt>
      <trkpt lat="44.58189" lon="5.78503">
        <ele>1020.1</ele>
        <time>2017-05-25T12:25:26Z</time>
      </trkpt>
      <trkpt lat="44.58175" lon="5.78496">
        <ele>1019.13</ele>
        <time>2017-05-25T12:25:38Z</time>
      </trkpt>
      <trkpt lat="44.58156" lon="5.78493">
        <ele>1018.65</ele>
        <time>2017-05-25T12:25:53Z</time>
      </trkpt>
      <trkpt lat="44.58151" lon="5.78492">
        <ele>1018.17</ele>
        <time>2017-05-25T12:26:00Z</time>
      </trkpt>
      <trkpt lat="44.58135" lon="5.78485">
        <ele>1017.21</ele>
        <time>2017-05-25T12:26:11Z</time>
      </trkpt>
      <trkpt lat="44.5812" lon="5.78478">
        <ele>1016.25</ele>
        <time>2017-05-25T12:26:25Z</time>
      </trkpt>
      <trkpt lat="44.58113" lon="5.78476">
        <ele>1015.77</ele>
        <time>2017-05-25T12:26:33Z</time>
      </trkpt>
      <trkpt lat="44.58096" lon="5.78474">
        <ele>1014.81</ele>
        <time>2017-05-25T12:26:48Z</time>
      </trkpt>
      <trkpt lat="44.58083" lon="5.7847">
        <ele>1013.85</ele>
        <time>2017-05-25T12:26:58Z</time>
      </trkpt>
      <trkpt lat="44.58077" lon="5.78469">
        <ele>1014.33</ele>
        <time>2017-05-25T12:27:04Z</time>
      </trkpt>
      <trkpt lat="44.58073" lon="5.78469">
        <ele>1013.37</ele>
        <time>2017-05-25T12:27:07Z</time>
      </trkpt>
      <trkpt lat="44.5806" lon="5.78462">
        <ele>1012.89</ele>
        <time>2017-05-25T12:27:20Z</time>
      </trkpt>
      <trkpt lat="44.58052" lon="5.78463">
        <ele>1012.89</ele>
        <time>2017-05-25T12:27:26Z</time>
      </trkpt>
      <trkpt lat="44.58041" lon="5.78456">
        <ele>1012.41</ele>
        <time>2017-05-25T12:27:35Z</time>
      </trkpt>
      <trkpt lat="44.5804" lon="5.78454">
        <ele>1012.41</ele>
        <time>2017-05-25T12:27:37Z</time>
      </trkpt>
      <trkpt lat="44.58034" lon="5.7845">
        <ele>1012.41</ele>
        <time>2017-05-25T12:27:41Z</time>
      </trkpt>
      <trkpt lat="44.58029" lon="5.78422">
        <ele>1011.93</ele>
        <time>2017-05-25T12:27:55Z</time>
      </trkpt>
      <trkpt lat="44.58028" lon="5.78421">
        <ele>1011.93</ele>
        <time>2017-05-25T12:27:57Z</time>
      </trkpt>
      <trkpt lat="44.58015" lon="5.78416">
        <ele>1011.44</ele>
        <time>2017-05-25T12:28:10Z</time>
      </trkpt>
      <trkpt lat="44.58012" lon="5.78415">
        <ele>1011.44</ele>
        <time>2017-05-25T12:28:12Z</time>
      </trkpt>
      <trkpt lat="44.58007" lon="5.78415">
        <ele>1011.44</ele>
        <time>2017-05-25T12:28:16Z</time>
      </trkpt>
      <trkpt lat="44.57996" lon="5.78413">
        <ele>1010</ele>
        <time>2017-05-25T12:28:26Z</time>
      </trkpt>
      <trkpt lat="44.57988" lon="5.7841">
        <ele>1010.48</ele>
        <time>2017-05-25T12:28:34Z</time>
      </trkpt>
      <trkpt lat="44.57974" lon="5.78406">
        <ele>1010</ele>
        <time>2017-05-25T12:28:46Z</time>
      </trkpt>
      <trkpt lat="44.57968" lon="5.78405">
        <ele>1009.52</ele>
        <time>2017-05-25T12:28:50Z</time>
      </trkpt>
      <trkpt lat="44.5795" lon="5.78399">
        <ele>1009.52</ele>
        <time>2017-05-25T12:29:05Z</time>
      </trkpt>
      <trkpt lat="44.5795" lon="5.78399">
        <ele>1009.52</ele>
        <time>2017-05-25T12:29:06Z</time>
      </trkpt>
      <trkpt lat="44.57946" lon="5.78396">
        <ele>1009.52</ele>
        <time>2017-05-25T12:29:10Z</time>
      </trkpt>
      <trkpt lat="44.57936" lon="5.78393">
        <ele>1009.52</ele>
        <time>2017-05-25T12:29:19Z</time>
      </trkpt>
      <trkpt lat="44.57922" lon="5.78388">
        <ele>1009.04</ele>
        <time>2017-05-25T12:29:31Z</time>
      </trkpt>
      <trkpt lat="44.57906" lon="5.78385">
        <ele>1009.04</ele>
        <time>2017-05-25T12:29:45Z</time>
      </trkpt>
      <trkpt lat="44.57901" lon="5.78385">
        <ele>1009.04</ele>
        <time>2017-05-25T12:29:48Z</time>
      </trkpt>
      <trkpt lat="44.57893" lon="5.78386">
        <ele>1008.56</ele>
        <time>2017-05-25T12:29:55Z</time>
      </trkpt>
      <trkpt lat="44.57883" lon="5.7839">
        <ele>1008.56</ele>
        <time>2017-05-25T12:30:03Z</time>
      </trkpt>
      <trkpt lat="44.57867" lon="5.78397">
        <ele>1007.6</ele>
        <time>2017-05-25T12:30:16Z</time>
      </trkpt>
      <trkpt lat="44.57854" lon="5.78407">
        <ele>1007.12</ele>
        <time>2017-05-25T12:30:28Z</time>
      </trkpt>
      <trkpt lat="44.57852" lon="5.7841">
        <ele>1006.64</ele>
        <time>2017-05-25T12:30:31Z</time>
      </trkpt>
      <trkpt lat="44.5784" lon="5.78414">
        <ele>1006.16</ele>
        <time>2017-05-25T12:30:43Z</time>
      </trkpt>
      <trkpt lat="44.57839" lon="5.78415">
        <ele>1006.16</ele>
        <time>2017-05-25T12:30:44Z</time>
      </trkpt>
      <trkpt lat="44.57824" lon="5.78419">
        <ele>1006.16</ele>
        <time>2017-05-25T12:30:56Z</time>
      </trkpt>
      <trkpt lat="44.57815" lon="5.78421">
        <ele>1007.12</ele>
        <time>2017-05-25T12:31:03Z</time>
      </trkpt>
      <trkpt lat="44.57801" lon="5.78427">
        <ele>1005.2</ele>
        <time>2017-05-25T12:31:16Z</time>
      </trkpt>
      <trkpt lat="44.57784" lon="5.78434">
        <ele>1004.72</ele>
        <time>2017-05-25T12:31:30Z</time>
      </trkpt>
      <trkpt lat="44.57768" lon="5.78438">
        <ele>1004.23</ele>
        <time>2017-05-25T12:31:43Z</time>
      </trkpt>
      <trkpt lat="44.57753" lon="5.78442">
        <ele>1003.75</ele>
        <time>2017-05-25T12:31:55Z</time>
      </trkpt>
      <trkpt lat="44.57747" lon="5.78443">
        <ele>1003.75</ele>
        <time>2017-05-25T12:32:00Z</time>
      </trkpt>
      <trkpt lat="44.5773" lon="5.78449">
        <ele>1002.79</ele>
        <time>2017-05-25T12:32:14Z</time>
      </trkpt>
      <trkpt lat="44.57713" lon="5.78452">
        <ele>1002.31</ele>
        <time>2017-05-25T12:32:30Z</time>
      </trkpt>
      <trkpt lat="44.57699" lon="5.78456">
        <ele>1000.87</ele>
        <time>2017-05-25T12:32:44Z</time>
      </trkpt>
      <trkpt lat="44.57681" lon="5.78462">
        <ele>1000.39</ele>
        <time>2017-05-25T12:32:58Z</time>
      </trkpt>
      <trkpt lat="44.57663" lon="5.78467">
        <ele>999.43</ele>
        <time>2017-05-25T12:33:11Z</time>
      </trkpt>
      <trkpt lat="44.57656" lon="5.78467">
        <ele>999.43</ele>
        <time>2017-05-25T12:33:17Z</time>
      </trkpt>
      <trkpt lat="44.57652" lon="5.78466">
        <ele>998.47</ele>
        <time>2017-05-25T12:33:20Z</time>
      </trkpt>
      <trkpt lat="44.57635" lon="5.78469">
        <ele>997.51</ele>
        <time>2017-05-25T12:33:35Z</time>
      </trkpt>
      <trkpt lat="44.57625" lon="5.78471">
        <ele>997.02</ele>
        <time>2017-05-25T12:33:45Z</time>
      </trkpt>
      <trkpt lat="44.5761" lon="5.78474">
        <ele>996.54</ele>
        <time>2017-05-25T12:33:58Z</time>
      </trkpt>
      <trkpt lat="44.57593" lon="5.78472">
        <ele>995.1</ele>
        <time>2017-05-25T12:34:11Z</time>
      </trkpt>
      <trkpt lat="44.57586" lon="5.78472">
        <ele>995.1</ele>
        <time>2017-05-25T12:34:17Z</time>
      </trkpt>
      <trkpt lat="44.57571" lon="5.7847">
        <ele>994.14</ele>
        <time>2017-05-25T12:34:28Z</time>
      </trkpt>
      <trkpt lat="44.57568" lon="5.78466">
        <ele>993.66</ele>
        <time>2017-05-25T12:34:32Z</time>
      </trkpt>
      <trkpt lat="44.57567" lon="5.78465">
        <ele>993.66</ele>
        <time>2017-05-25T12:34:33Z</time>
      </trkpt>
      <trkpt lat="44.57566" lon="5.78463">
        <ele>993.66</ele>
        <time>2017-05-25T12:34:34Z</time>
      </trkpt>
      <trkpt lat="44.57565" lon="5.78463">
        <ele>993.66</ele>
        <time>2017-05-25T12:34:35Z</time>
      </trkpt>
      <trkpt lat="44.57563" lon="5.78463">
        <ele>993.18</ele>
        <time>2017-05-25T12:34:36Z</time>
      </trkpt>
      <trkpt lat="44.5755" lon="5.78459">
        <ele>992.22</ele>
        <time>2017-05-25T12:34:48Z</time>
      </trkpt>
      <trkpt lat="44.5754" lon="5.78456">
        <ele>991.26</ele>
        <time>2017-05-25T12:35:01Z</time>
      </trkpt>
      <trkpt lat="44.57524" lon="5.78452">
        <ele>990.3</ele>
        <time>2017-05-25T12:35:13Z</time>
      </trkpt>
      <trkpt lat="44.57507" lon="5.78447">
        <ele>989.33</ele>
        <time>2017-05-25T12:35:26Z</time>
      </trkpt>
      <trkpt lat="44.57503" lon="5.78442">
        <ele>988.85</ele>
        <time>2017-05-25T12:35:31Z</time>
      </trkpt>
      <trkpt lat="44.57492" lon="5.78432">
        <ele>987.89</ele>
        <time>2017-05-25T12:35:44Z</time>
      </trkpt>
      <trkpt lat="44.57484" lon="5.78426">
        <ele>987.41</ele>
        <time>2017-05-25T12:35:49Z</time>
      </trkpt>
      <trkpt lat="44.57483" lon="5.78426">
        <ele>987.41</ele>
        <time>2017-05-25T12:35:50Z</time>
      </trkpt>
      <trkpt lat="44.57482" lon="5.78424">
        <ele>987.41</ele>
        <time>2017-05-25T12:35:51Z</time>
      </trkpt>
      <trkpt lat="44.57481" lon="5.78423">
        <ele>986.93</ele>
        <time>2017-05-25T12:35:52Z</time>
      </trkpt>
      <trkpt lat="44.5748" lon="5.78422">
        <ele>986.93</ele>
        <time>2017-05-25T12:35:53Z</time>
      </trkpt>
      <trkpt lat="44.57477" lon="5.78417">
        <ele>986.93</ele>
        <time>2017-05-25T12:35:58Z</time>
      </trkpt>
      <trkpt lat="44.57477" lon="5.78415">
        <ele>986.93</ele>
        <time>2017-05-25T12:35:59Z</time>
      </trkpt>
      <trkpt lat="44.57469" lon="5.78397">
        <ele>986.45</ele>
        <time>2017-05-25T12:36:11Z</time>
      </trkpt>
      <trkpt lat="44.57464" lon="5.78386">
        <ele>985.97</ele>
        <time>2017-05-25T12:36:19Z</time>
      </trkpt>
      <trkpt lat="44.57464" lon="5.78384">
        <ele>985.49</ele>
        <time>2017-05-25T12:36:20Z</time>
      </trkpt>
      <trkpt lat="44.57463" lon="5.78382">
        <ele>985.97</ele>
        <time>2017-05-25T12:36:21Z</time>
      </trkpt>
      <trkpt lat="44.57462" lon="5.7838">
        <ele>985.49</ele>
        <time>2017-05-25T12:36:22Z</time>
      </trkpt>
      <trkpt lat="44.57461" lon="5.78378">
        <ele>985.49</ele>
        <time>2017-05-25T12:36:24Z</time>
      </trkpt>
      <trkpt lat="44.57459" lon="5.78376">
        <ele>985.49</ele>
        <time>2017-05-25T12:36:26Z</time>
      </trkpt>
      <trkpt lat="44.57458" lon="5.78374">
        <ele>985.49</ele>
        <time>2017-05-25T12:36:27Z</time>
      </trkpt>
      <trkpt lat="44.57457" lon="5.78373">
        <ele>985.49</ele>
        <time>2017-05-25T12:36:28Z</time>
      </trkpt>
      <trkpt lat="44.57456" lon="5.78371">
        <ele>985.49</ele>
        <time>2017-05-25T12:36:29Z</time>
      </trkpt>
      <trkpt lat="44.57455" lon="5.7837">
        <ele>985.01</ele>
        <time>2017-05-25T12:36:30Z</time>
      </trkpt>
      <trkpt lat="44.57452" lon="5.78365">
        <ele>985.01</ele>
        <time>2017-05-25T12:36:34Z</time>
      </trkpt>
      <trkpt lat="44.57452" lon="5.78363">
        <ele>985.01</ele>
        <time>2017-05-25T12:36:35Z</time>
      </trkpt>
      <trkpt lat="44.57451" lon="5.78362">
        <ele>985.01</ele>
        <time>2017-05-25T12:36:36Z</time>
      </trkpt>
      <trkpt lat="44.57448" lon="5.78344">
        <ele>984.05</ele>
        <time>2017-05-25T12:36:49Z</time>
      </trkpt>
      <trkpt lat="44.57445" lon="5.78339">
        <ele>985.01</ele>
        <time>2017-05-25T12:37:06Z</time>
      </trkpt>
      <trkpt lat="44.57442" lon="5.78339">
        <ele>984.05</ele>
        <time>2017-05-25T12:37:26Z</time>
      </trkpt>
      <trkpt lat="44.57439" lon="5.7834">
        <ele>983.57</ele>
        <time>2017-05-25T12:37:47Z</time>
      </trkpt>
      <trkpt lat="44.57442" lon="5.78331">
        <ele>983.57</ele>
        <time>2017-05-25T12:38:02Z</time>
      </trkpt>
      <trkpt lat="44.57447" lon="5.78332">
        <ele>983.57</ele>
        <time>2017-05-25T12:38:16Z</time>
      </trkpt>
      <trkpt lat="44.57446" lon="5.78328">
        <ele>985.97</ele>
        <time>2017-05-25T12:38:33Z</time>
      </trkpt>
      <trkpt lat="44.57451" lon="5.7831">
        <ele>988.85</ele>
        <time>2017-05-25T12:38:48Z</time>
      </trkpt>
      <trkpt lat="44.57455" lon="5.78295">
        <ele>990.3</ele>
        <time>2017-05-25T12:39:03Z</time>
      </trkpt>
      <trkpt lat="44.57458" lon="5.78279">
        <ele>991.74</ele>
        <time>2017-05-25T12:39:18Z</time>
      </trkpt>
      <trkpt lat="44.57464" lon="5.78267">
        <ele>993.18</ele>
        <time>2017-05-25T12:39:31Z</time>
      </trkpt>
      <trkpt lat="44.57468" lon="5.78249">
        <ele>995.58</ele>
        <time>2017-05-25T12:39:47Z</time>
      </trkpt>
      <trkpt lat="44.57473" lon="5.78235">
        <ele>997.02</ele>
        <time>2017-05-25T12:40:01Z</time>
      </trkpt>
      <trkpt lat="44.57477" lon="5.78221">
        <ele>998.95</ele>
        <time>2017-05-25T12:40:15Z</time>
      </trkpt>
      <trkpt lat="44.5748" lon="5.78207">
        <ele>1000.39</ele>
        <time>2017-05-25T12:40:29Z</time>
      </trkpt>
      <trkpt lat="44.57484" lon="5.78193">
        <ele>1002.31</ele>
        <time>2017-05-25T12:40:41Z</time>
      </trkpt>
      <trkpt lat="44.57487" lon="5.7818">
        <ele>1003.27</ele>
        <time>2017-05-25T12:40:54Z</time>
      </trkpt>
      <trkpt lat="44.57488" lon="5.78161">
        <ele>1004.72</ele>
        <time>2017-05-25T12:41:10Z</time>
      </trkpt>
      <trkpt lat="44.57488" lon="5.7814">
        <ele>1007.12</ele>
        <time>2017-05-25T12:41:29Z</time>
      </trkpt>
      <trkpt lat="44.57484" lon="5.78126">
        <ele>1008.56</ele>
        <time>2017-05-25T12:41:44Z</time>
      </trkpt>
      <trkpt lat="44.57482" lon="5.78112">
        <ele>1009.52</ele>
        <time>2017-05-25T12:41:56Z</time>
      </trkpt>
      <trkpt lat="44.57479" lon="5.78091">
        <ele>1010.96</ele>
        <time>2017-05-25T12:42:11Z</time>
      </trkpt>
      <trkpt lat="44.57476" lon="5.78085">
        <ele>1010.96</ele>
        <time>2017-05-25T12:42:16Z</time>
      </trkpt>
      <trkpt lat="44.57468" lon="5.78072">
        <ele>1010.48</ele>
        <time>2017-05-25T12:42:28Z</time>
      </trkpt>
      <trkpt lat="44.57458" lon="5.78057">
        <ele>1009.52</ele>
        <time>2017-05-25T12:42:42Z</time>
      </trkpt>
      <trkpt lat="44.57451" lon="5.78036">
        <ele>1010</ele>
        <time>2017-05-25T12:42:57Z</time>
      </trkpt>
      <trkpt lat="44.5744" lon="5.78023">
        <ele>1010.96</ele>
        <time>2017-05-25T12:43:11Z</time>
      </trkpt>
      <trkpt lat="44.57432" lon="5.78005">
        <ele>1011.44</ele>
        <time>2017-05-25T12:43:27Z</time>
      </trkpt>
      <trkpt lat="44.57421" lon="5.77998">
        <ele>1010.96</ele>
        <time>2017-05-25T12:43:39Z</time>
      </trkpt>
      <trkpt lat="44.57417" lon="5.77986">
        <ele>1012.89</ele>
        <time>2017-05-25T12:43:53Z</time>
      </trkpt>
      <trkpt lat="44.57407" lon="5.77976">
        <ele>1014.33</ele>
        <time>2017-05-25T12:44:07Z</time>
      </trkpt>
      <trkpt lat="44.57399" lon="5.77967">
        <ele>1016.25</ele>
        <time>2017-05-25T12:44:21Z</time>
      </trkpt>
      <trkpt lat="44.57395" lon="5.77951">
        <ele>1018.17</ele>
        <time>2017-05-25T12:44:35Z</time>
      </trkpt>
      <trkpt lat="44.57386" lon="5.77947">
        <ele>1019.62</ele>
        <time>2017-05-25T12:44:49Z</time>
      </trkpt>
      <trkpt lat="44.57376" lon="5.77942">
        <ele>1020.58</ele>
        <time>2017-05-25T12:45:03Z</time>
      </trkpt>
      <trkpt lat="44.57364" lon="5.77942">
        <ele>1021.06</ele>
        <time>2017-05-25T12:45:18Z</time>
      </trkpt>
      <trkpt lat="44.57356" lon="5.77943">
        <ele>1022.02</ele>
        <time>2017-05-25T12:45:32Z</time>
      </trkpt>
      <trkpt lat="44.57346" lon="5.77937">
        <ele>1024.42</ele>
        <time>2017-05-25T12:45:49Z</time>
      </trkpt>
      <trkpt lat="44.57338" lon="5.7793">
        <ele>1026.34</ele>
        <time>2017-05-25T12:46:02Z</time>
      </trkpt>
      <trkpt lat="44.57331" lon="5.77923">
        <ele>1029.23</ele>
        <time>2017-05-25T12:46:18Z</time>
      </trkpt>
      <trkpt lat="44.57322" lon="5.77924">
        <ele>1031.15</ele>
        <time>2017-05-25T12:46:33Z</time>
      </trkpt>
      <trkpt lat="44.57317" lon="5.77917">
        <ele>1033.55</ele>
        <time>2017-05-25T12:46:49Z</time>
      </trkpt>
      <trkpt lat="44.57313" lon="5.77908">
        <ele>1035.96</ele>
        <time>2017-05-25T12:47:03Z</time>
      </trkpt>
      <trkpt lat="44.57309" lon="5.77904">
        <ele>1037.4</ele>
        <time>2017-05-25T12:47:20Z</time>
      </trkpt>
      <trkpt lat="44.57305" lon="5.77902">
        <ele>1038.36</ele>
        <time>2017-05-25T12:47:35Z</time>
      </trkpt>
      <trkpt lat="44.57301" lon="5.77901">
        <ele>1040.28</ele>
        <time>2017-05-25T12:47:47Z</time>
      </trkpt>
      <trkpt lat="44.57295" lon="5.77909">
        <ele>1041.73</ele>
        <time>2017-05-25T12:48:03Z</time>
      </trkpt>
      <trkpt lat="44.57294" lon="5.77912">
        <ele>1041.25</ele>
        <time>2017-05-25T12:48:30Z</time>
      </trkpt>
      <trkpt lat="44.57287" lon="5.77919">
        <ele>1042.21</ele>
        <time>2017-05-25T12:48:46Z</time>
      </trkpt>
      <trkpt lat="44.57285" lon="5.77926">
        <ele>1043.17</ele>
        <time>2017-05-25T12:49:07Z</time>
      </trkpt>
      <trkpt lat="44.57292" lon="5.77924">
        <ele>1043.17</ele>
        <time>2017-05-25T12:49:36Z</time>
      </trkpt>
      <trkpt lat="44.57291" lon="5.77926">
        <ele>1043.17</ele>
        <time>2017-05-25T12:50:00Z</time>
      </trkpt>
      <trkpt lat="44.57293" lon="5.77915">
        <ele>1043.17</ele>
        <time>2017-05-25T12:50:34Z</time>
      </trkpt>
      <trkpt lat="44.57286" lon="5.77917">
        <ele>1043.17</ele>
        <time>2017-05-25T12:50:55Z</time>
      </trkpt>
      <trkpt lat="44.57287" lon="5.77911">
        <ele>1043.65</ele>
        <time>2017-05-25T12:51:25Z</time>
      </trkpt>
      <trkpt lat="44.57292" lon="5.77919">
        <ele>1043.65</ele>
        <time>2017-05-25T12:51:53Z</time>
      </trkpt>
      <trkpt lat="44.57289" lon="5.77927">
        <ele>1043.65</ele>
        <time>2017-05-25T12:52:29Z</time>
      </trkpt>
      <trkpt lat="44.57287" lon="5.77915">
        <ele>1043.65</ele>
        <time>2017-05-25T12:52:49Z</time>
      </trkpt>
      <trkpt lat="44.57284" lon="5.77914">
        <ele>1044.61</ele>
        <time>2017-05-25T12:53:05Z</time>
      </trkpt>
      <trkpt lat="44.57276" lon="5.77914">
        <ele>1046.53</ele>
        <time>2017-05-25T12:53:22Z</time>
      </trkpt>
      <trkpt lat="44.57269" lon="5.77913">
        <ele>1048.94</ele>
        <time>2017-05-25T12:53:36Z</time>
      </trkpt>
      <trkpt lat="44.57258" lon="5.77916">
        <ele>1050.86</ele>
        <time>2017-05-25T12:53:52Z</time>
      </trkpt>
      <trkpt lat="44.57249" lon="5.77916">
        <ele>1052.3</ele>
        <time>2017-05-25T12:54:05Z</time>
      </trkpt>
      <trkpt lat="44.57239" lon="5.77912">
        <ele>1054.22</ele>
        <time>2017-05-25T12:54:19Z</time>
      </trkpt>
      <trkpt lat="44.57232" lon="5.77906">
        <ele>1055.67</ele>
        <time>2017-05-25T12:54:33Z</time>
      </trkpt>
      <trkpt lat="44.57226" lon="5.77896">
        <ele>1057.59</ele>
        <time>2017-05-25T12:54:48Z</time>
      </trkpt>
      <trkpt lat="44.57217" lon="5.77893">
        <ele>1059.03</ele>
        <time>2017-05-25T12:55:02Z</time>
      </trkpt>
      <trkpt lat="44.57205" lon="5.77893">
        <ele>1060.95</ele>
        <time>2017-05-25T12:55:19Z</time>
      </trkpt>
      <trkpt lat="44.57197" lon="5.77892">
        <ele>1062.39</ele>
        <time>2017-05-25T12:55:32Z</time>
      </trkpt>
      <trkpt lat="44.57195" lon="5.77895">
        <ele>1062.39</ele>
        <time>2017-05-25T12:55:41Z</time>
      </trkpt>
      <trkpt lat="44.5719" lon="5.77893">
        <ele>1063.84</ele>
        <time>2017-05-25T12:55:56Z</time>
      </trkpt>
      <trkpt lat="44.57182" lon="5.77893">
        <ele>1066.24</ele>
        <time>2017-05-25T12:56:09Z</time>
      </trkpt>
      <trkpt lat="44.57178" lon="5.77893">
        <ele>1067.68</ele>
        <time>2017-05-25T12:56:22Z</time>
      </trkpt>
      <trkpt lat="44.5717" lon="5.77893">
        <ele>1069.12</ele>
        <time>2017-05-25T12:56:39Z</time>
      </trkpt>
      <trkpt lat="44.57164" lon="5.77892">
        <ele>1071.05</ele>
        <time>2017-05-25T12:56:51Z</time>
      </trkpt>
      <trkpt lat="44.57164" lon="5.77895">
        <ele>1071.53</ele>
        <time>2017-05-25T12:57:09Z</time>
      </trkpt>
      <trkpt lat="44.57154" lon="5.77897">
        <ele>1072.01</ele>
        <time>2017-05-25T12:57:24Z</time>
      </trkpt>
      <trkpt lat="44.57148" lon="5.77898">
        <ele>1073.45</ele>
        <time>2017-05-25T12:57:37Z</time>
      </trkpt>
      <trkpt lat="44.57141" lon="5.77897">
        <ele>1074.89</ele>
        <time>2017-05-25T12:57:48Z</time>
      </trkpt>
      <trkpt lat="44.57137" lon="5.77899">
        <ele>1075.37</ele>
        <time>2017-05-25T12:58:04Z</time>
      </trkpt>
      <trkpt lat="44.57132" lon="5.779">
        <ele>1076.33</ele>
        <time>2017-05-25T12:58:14Z</time>
      </trkpt>
      <trkpt lat="44.57128" lon="5.77897">
        <ele>1077.29</ele>
        <time>2017-05-25T12:58:18Z</time>
      </trkpt>
      <trkpt lat="44.57116" lon="5.77899">
        <ele>1078.74</ele>
        <time>2017-05-25T12:58:32Z</time>
      </trkpt>
      <trkpt lat="44.57105" lon="5.77902">
        <ele>1080.18</ele>
        <time>2017-05-25T12:58:50Z</time>
      </trkpt>
      <trkpt lat="44.57102" lon="5.77903">
        <ele>1080.18</ele>
        <time>2017-05-25T12:58:53Z</time>
      </trkpt>
      <trkpt lat="44.57097" lon="5.77905">
        <ele>1080.18</ele>
        <time>2017-05-25T12:59:06Z</time>
      </trkpt>
      <trkpt lat="44.57096" lon="5.77905">
        <ele>1080.18</ele>
        <time>2017-05-25T12:59:24Z</time>
      </trkpt>
      <trkpt lat="44.57087" lon="5.77906">
        <ele>1081.62</ele>
        <time>2017-05-25T12:59:38Z</time>
      </trkpt>
      <trkpt lat="44.57076" lon="5.77909">
        <ele>1082.1</ele>
        <time>2017-05-25T12:59:54Z</time>
      </trkpt>
      <trkpt lat="44.5706" lon="5.7791">
        <ele>1082.58</ele>
        <time>2017-05-25T13:00:12Z</time>
      </trkpt>
      <trkpt lat="44.57058" lon="5.77911">
        <ele>1082.58</ele>
        <time>2017-05-25T13:00:14Z</time>
      </trkpt>
      <trkpt lat="44.57046" lon="5.77912">
        <ele>1082.58</ele>
        <time>2017-05-25T13:00:28Z</time>
      </trkpt>
      <trkpt lat="44.57031" lon="5.77915">
        <ele>1081.14</ele>
        <time>2017-05-25T13:00:44Z</time>
      </trkpt>
      <trkpt lat="44.57028" lon="5.77915">
        <ele>1081.14</ele>
        <time>2017-05-25T13:00:47Z</time>
      </trkpt>
      <trkpt lat="44.57023" lon="5.77915">
        <ele>1081.14</ele>
        <time>2017-05-25T13:01:01Z</time>
      </trkpt>
      <trkpt lat="44.57019" lon="5.77914">
        <ele>1081.62</ele>
        <time>2017-05-25T13:01:30Z</time>
      </trkpt>
      <trkpt lat="44.57013" lon="5.77912">
        <ele>1081.62</ele>
        <time>2017-05-25T13:01:35Z</time>
      </trkpt>
      <trkpt lat="44.57" lon="5.77906">
        <ele>1082.58</ele>
        <time>2017-05-25T13:01:50Z</time>
      </trkpt>
      <trkpt lat="44.56986" lon="5.77904">
        <ele>1083.54</ele>
        <time>2017-05-25T13:02:04Z</time>
      </trkpt>
      <trkpt lat="44.5698" lon="5.77901">
        <ele>1084.5</ele>
        <time>2017-05-25T13:02:19Z</time>
      </trkpt>
      <trkpt lat="44.56977" lon="5.77899">
        <ele>1084.5</ele>
        <time>2017-05-25T13:02:37Z</time>
      </trkpt>
      <trkpt lat="44.56976" lon="5.77906">
        <ele>1084.5</ele>
        <time>2017-05-25T13:02:57Z</time>
      </trkpt>
      <trkpt lat="44.56978" lon="5.77902">
        <ele>1084.5</ele>
        <time>2017-05-25T13:03:19Z</time>
      </trkpt>
      <trkpt lat="44.56972" lon="5.77897">
        <ele>1084.99</ele>
        <time>2017-05-25T13:03:41Z</time>
      </trkpt>
      <trkpt lat="44.56954" lon="5.77896">
        <ele>1084.02</ele>
        <time>2017-05-25T13:03:57Z</time>
      </trkpt>
      <trkpt lat="44.5694" lon="5.77895">
        <ele>1082.1</ele>
        <time>2017-05-25T13:04:11Z</time>
      </trkpt>
      <trkpt lat="44.56922" lon="5.77881">
        <ele>1082.1</ele>
        <time>2017-05-25T13:04:30Z</time>
      </trkpt>
      <trkpt lat="44.56913" lon="5.77866">
        <ele>1082.58</ele>
        <time>2017-05-25T13:04:45Z</time>
      </trkpt>
      <trkpt lat="44.56912" lon="5.77861">
        <ele>1082.58</ele>
        <time>2017-05-25T13:04:49Z</time>
      </trkpt>
      <trkpt lat="44.56907" lon="5.77844">
        <ele>1082.58</ele>
        <time>2017-05-25T13:05:03Z</time>
      </trkpt>
      <trkpt lat="44.56905" lon="5.77838">
        <ele>1083.06</ele>
        <time>2017-05-25T13:05:07Z</time>
      </trkpt>
      <trkpt lat="44.56901" lon="5.77818">
        <ele>1083.54</ele>
        <time>2017-05-25T13:05:22Z</time>
      </trkpt>
      <trkpt lat="44.56895" lon="5.77807">
        <ele>1082.58</ele>
        <time>2017-05-25T13:05:35Z</time>
      </trkpt>
      <trkpt lat="44.56891" lon="5.77793">
        <ele>1081.62</ele>
        <time>2017-05-25T13:05:48Z</time>
      </trkpt>
      <trkpt lat="44.56889" lon="5.77787">
        <ele>1081.14</ele>
        <time>2017-05-25T13:05:54Z</time>
      </trkpt>
      <trkpt lat="44.56885" lon="5.77771">
        <ele>1080.66</ele>
        <time>2017-05-25T13:06:08Z</time>
      </trkpt>
      <trkpt lat="44.56885" lon="5.77753">
        <ele>1080.18</ele>
        <time>2017-05-25T13:06:22Z</time>
      </trkpt>
      <trkpt lat="44.56885" lon="5.77737">
        <ele>1080.18</ele>
        <time>2017-05-25T13:06:35Z</time>
      </trkpt>
      <trkpt lat="44.56884" lon="5.77736">
        <ele>1080.18</ele>
        <time>2017-05-25T13:06:36Z</time>
      </trkpt>
      <trkpt lat="44.56884" lon="5.77719">
        <ele>1079.22</ele>
        <time>2017-05-25T13:06:49Z</time>
      </trkpt>
      <trkpt lat="44.56881" lon="5.77701">
        <ele>1077.29</ele>
        <time>2017-05-25T13:07:03Z</time>
      </trkpt>
      <trkpt lat="44.56883" lon="5.77696">
        <ele>1076.81</ele>
        <time>2017-05-25T13:07:07Z</time>
      </trkpt>
      <trkpt lat="44.56876" lon="5.77688">
        <ele>1076.33</ele>
        <time>2017-05-25T13:07:19Z</time>
      </trkpt>
      <trkpt lat="44.56867" lon="5.77698">
        <ele>1077.29</ele>
        <time>2017-05-25T13:07:32Z</time>
      </trkpt>
      <trkpt lat="44.56861" lon="5.777">
        <ele>1078.74</ele>
        <time>2017-05-25T13:07:44Z</time>
      </trkpt>
      <trkpt lat="44.56852" lon="5.77705">
        <ele>1080.18</ele>
        <time>2017-05-25T13:07:58Z</time>
      </trkpt>
      <trkpt lat="44.56838" lon="5.77718">
        <ele>1082.1</ele>
        <time>2017-05-25T13:08:14Z</time>
      </trkpt>
      <trkpt lat="44.56829" lon="5.77725">
        <ele>1083.06</ele>
        <time>2017-05-25T13:08:30Z</time>
      </trkpt>
      <trkpt lat="44.56821" lon="5.77733">
        <ele>1084.99</ele>
        <time>2017-05-25T13:08:44Z</time>
      </trkpt>
      <trkpt lat="44.56814" lon="5.77733">
        <ele>1085.95</ele>
        <time>2017-05-25T13:08:56Z</time>
      </trkpt>
      <trkpt lat="44.568" lon="5.77737">
        <ele>1088.35</ele>
        <time>2017-05-25T13:09:13Z</time>
      </trkpt>
      <trkpt lat="44.56789" lon="5.7774">
        <ele>1088.83</ele>
        <time>2017-05-25T13:09:29Z</time>
      </trkpt>
      <trkpt lat="44.56779" lon="5.77742">
        <ele>1088.83</ele>
        <time>2017-05-25T13:09:38Z</time>
      </trkpt>
      <trkpt lat="44.56768" lon="5.77738">
        <ele>1088.83</ele>
        <time>2017-05-25T13:09:50Z</time>
      </trkpt>
      <trkpt lat="44.56754" lon="5.77733">
        <ele>1088.35</ele>
        <time>2017-05-25T13:10:05Z</time>
      </trkpt>
      <trkpt lat="44.56739" lon="5.77725">
        <ele>1088.35</ele>
        <time>2017-05-25T13:10:18Z</time>
      </trkpt>
      <trkpt lat="44.56725" lon="5.77714">
        <ele>1088.35</ele>
        <time>2017-05-25T13:10:34Z</time>
      </trkpt>
      <trkpt lat="44.56713" lon="5.77707">
        <ele>1087.39</ele>
        <time>2017-05-25T13:10:49Z</time>
      </trkpt>
      <trkpt lat="44.56699" lon="5.77696">
        <ele>1085.95</ele>
        <time>2017-05-25T13:11:04Z</time>
      </trkpt>
      <trkpt lat="44.56689" lon="5.77688">
        <ele>1084.99</ele>
        <time>2017-05-25T13:11:17Z</time>
      </trkpt>
      <trkpt lat="44.56677" lon="5.77677">
        <ele>1083.06</ele>
        <time>2017-05-25T13:11:32Z</time>
      </trkpt>
      <trkpt lat="44.5667" lon="5.77668">
        <ele>1081.62</ele>
        <time>2017-05-25T13:11:47Z</time>
      </trkpt>
      <trkpt lat="44.56663" lon="5.77655">
        <ele>1080.18</ele>
        <time>2017-05-25T13:12:01Z</time>
      </trkpt>
      <trkpt lat="44.56656" lon="5.77644">
        <ele>1077.78</ele>
        <time>2017-05-25T13:12:14Z</time>
      </trkpt>
      <trkpt lat="44.56647" lon="5.77629">
        <ele>1074.89</ele>
        <time>2017-05-25T13:12:31Z</time>
      </trkpt>
      <trkpt lat="44.56646" lon="5.77622">
        <ele>1074.41</ele>
        <time>2017-05-25T13:12:36Z</time>
      </trkpt>
      <trkpt lat="44.56641" lon="5.77605">
        <ele>1072.49</ele>
        <time>2017-05-25T13:12:50Z</time>
      </trkpt>
      <trkpt lat="44.56636" lon="5.77584">
        <ele>1070.57</ele>
        <time>2017-05-25T13:13:06Z</time>
      </trkpt>
      <trkpt lat="44.56633" lon="5.77569">
        <ele>1069.12</ele>
        <time>2017-05-25T13:13:20Z</time>
      </trkpt>
      <trkpt lat="44.56632" lon="5.77553">
        <ele>1067.2</ele>
        <time>2017-05-25T13:13:35Z</time>
      </trkpt>
      <trkpt lat="44.56632" lon="5.77533">
        <ele>1064.8</ele>
        <time>2017-05-25T13:13:52Z</time>
      </trkpt>
      <trkpt lat="44.5663" lon="5.77512">
        <ele>1061.91</ele>
        <time>2017-05-25T13:14:08Z</time>
      </trkpt>
      <trkpt lat="44.56631" lon="5.77492">
        <ele>1059.99</ele>
        <time>2017-05-25T13:14:24Z</time>
      </trkpt>
      <trkpt lat="44.56628" lon="5.77475">
        <ele>1057.59</ele>
        <time>2017-05-25T13:14:40Z</time>
      </trkpt>
      <trkpt lat="44.56632" lon="5.77479">
        <ele>1057.59</ele>
        <time>2017-05-25T13:14:54Z</time>
      </trkpt>
      <trkpt lat="44.56633" lon="5.77474">
        <ele>1057.59</ele>
        <time>2017-05-25T13:15:08Z</time>
      </trkpt>
      <trkpt lat="44.56626" lon="5.77468">
        <ele>1057.11</ele>
        <time>2017-05-25T13:15:34Z</time>
      </trkpt>
      <trkpt lat="44.56632" lon="5.77472">
        <ele>1056.63</ele>
        <time>2017-05-25T13:15:55Z</time>
      </trkpt>
      <trkpt lat="44.56632" lon="5.77476">
        <ele>1056.15</ele>
        <time>2017-05-25T13:16:07Z</time>
      </trkpt>
      <trkpt lat="44.56643" lon="5.77478">
        <ele>1056.15</ele>
        <time>2017-05-25T13:16:42Z</time>
      </trkpt>
      <trkpt lat="44.56646" lon="5.77481">
        <ele>1057.11</ele>
        <time>2017-05-25T13:17:12Z</time>
      </trkpt>
      <trkpt lat="44.56636" lon="5.77467">
        <ele>1057.59</ele>
        <time>2017-05-25T13:17:28Z</time>
      </trkpt>
      <trkpt lat="44.56638" lon="5.77466">
        <ele>1057.11</ele>
        <time>2017-05-25T13:17:41Z</time>
      </trkpt>
      <trkpt lat="44.56631" lon="5.77457">
        <ele>1057.59</ele>
        <time>2017-05-25T13:18:06Z</time>
      </trkpt>
      <trkpt lat="44.56627" lon="5.77465">
        <ele>1058.07</ele>
        <time>2017-05-25T13:18:31Z</time>
      </trkpt>
      <trkpt lat="44.56627" lon="5.77469">
        <ele>1058.07</ele>
        <time>2017-05-25T13:18:57Z</time>
      </trkpt>
      <trkpt lat="44.56624" lon="5.77473">
        <ele>1058.07</ele>
        <time>2017-05-25T13:19:27Z</time>
      </trkpt>
      <trkpt lat="44.56623" lon="5.77467">
        <ele>1058.07</ele>
        <time>2017-05-25T13:19:56Z</time>
      </trkpt>
      <trkpt lat="44.56628" lon="5.77465">
        <ele>1058.07</ele>
        <time>2017-05-25T13:20:25Z</time>
      </trkpt>
      <trkpt lat="44.56628" lon="5.77463">
        <ele>1058.55</ele>
        <time>2017-05-25T13:20:56Z</time>
      </trkpt>
      <trkpt lat="44.56623" lon="5.7746">
        <ele>1059.03</ele>
        <time>2017-05-25T13:21:24Z</time>
      </trkpt>
      <trkpt lat="44.56615" lon="5.77455">
        <ele>1060.47</ele>
        <time>2017-05-25T13:21:56Z</time>
      </trkpt>
      <trkpt lat="44.56613" lon="5.77474">
        <ele>1059.51</ele>
        <time>2017-05-25T13:22:20Z</time>
      </trkpt>
      <trkpt lat="44.56623" lon="5.77488">
        <ele>1059.99</ele>
        <time>2017-05-25T13:22:33Z</time>
      </trkpt>
      <trkpt lat="44.56624" lon="5.77488">
        <ele>1059.99</ele>
        <time>2017-05-25T13:22:34Z</time>
      </trkpt>
      <trkpt lat="44.56631" lon="5.77462">
        <ele>1059.51</ele>
        <time>2017-05-25T13:22:53Z</time>
      </trkpt>
      <trkpt lat="44.56623" lon="5.77456">
        <ele>1060.47</ele>
        <time>2017-05-25T13:23:19Z</time>
      </trkpt>
      <trkpt lat="44.56619" lon="5.77461">
        <ele>1060.47</ele>
        <time>2017-05-25T13:23:39Z</time>
      </trkpt>
      <trkpt lat="44.5662" lon="5.77464">
        <ele>1060.95</ele>
        <time>2017-05-25T13:24:06Z</time>
      </trkpt>
      <trkpt lat="44.56616" lon="5.77471">
        <ele>1059.51</ele>
        <time>2017-05-25T13:24:25Z</time>
      </trkpt>
      <trkpt lat="44.56604" lon="5.77476">
        <ele>1060.95</ele>
        <time>2017-05-25T13:24:39Z</time>
      </trkpt>
      <trkpt lat="44.56594" lon="5.77477">
        <ele>1063.36</ele>
        <time>2017-05-25T13:24:54Z</time>
      </trkpt>
      <trkpt lat="44.56579" lon="5.77471">
        <ele>1064.8</ele>
        <time>2017-05-25T13:25:11Z</time>
      </trkpt>
      <trkpt lat="44.56567" lon="5.77468">
        <ele>1065.28</ele>
        <time>2017-05-25T13:25:25Z</time>
      </trkpt>
      <trkpt lat="44.56553" lon="5.77469">
        <ele>1065.76</ele>
        <time>2017-05-25T13:25:40Z</time>
      </trkpt>
      <trkpt lat="44.56546" lon="5.77469">
        <ele>1065.76</ele>
        <time>2017-05-25T13:25:46Z</time>
      </trkpt>
      <trkpt lat="44.56532" lon="5.77471">
        <ele>1065.28</ele>
        <time>2017-05-25T13:26:00Z</time>
      </trkpt>
      <trkpt lat="44.5652" lon="5.7747">
        <ele>1065.76</ele>
        <time>2017-05-25T13:26:13Z</time>
      </trkpt>
      <trkpt lat="44.56506" lon="5.77467">
        <ele>1066.24</ele>
        <time>2017-05-25T13:26:26Z</time>
      </trkpt>
      <trkpt lat="44.56491" lon="5.77462">
        <ele>1066.24</ele>
        <time>2017-05-25T13:26:42Z</time>
      </trkpt>
      <trkpt lat="44.56476" lon="5.77455">
        <ele>1066.24</ele>
        <time>2017-05-25T13:26:57Z</time>
      </trkpt>
      <trkpt lat="44.56458" lon="5.77448">
        <ele>1065.76</ele>
        <time>2017-05-25T13:27:15Z</time>
      </trkpt>
      <trkpt lat="44.56448" lon="5.77438">
        <ele>1065.28</ele>
        <time>2017-05-25T13:27:30Z</time>
      </trkpt>
      <trkpt lat="44.56433" lon="5.7743">
        <ele>1064.32</ele>
        <time>2017-05-25T13:27:45Z</time>
      </trkpt>
      <trkpt lat="44.5642" lon="5.77419">
        <ele>1062.87</ele>
        <time>2017-05-25T13:28:00Z</time>
      </trkpt>
      <trkpt lat="44.56408" lon="5.7741">
        <ele>1062.87</ele>
        <time>2017-05-25T13:28:14Z</time>
      </trkpt>
      <trkpt lat="44.56394" lon="5.77404">
        <ele>1061.91</ele>
        <time>2017-05-25T13:28:27Z</time>
      </trkpt>
      <trkpt lat="44.5638" lon="5.774">
        <ele>1060.95</ele>
        <time>2017-05-25T13:28:42Z</time>
      </trkpt>
      <trkpt lat="44.56365" lon="5.77397">
        <ele>1059.51</ele>
        <time>2017-05-25T13:28:56Z</time>
      </trkpt>
      <trkpt lat="44.56355" lon="5.774">
        <ele>1058.55</ele>
        <time>2017-05-25T13:29:08Z</time>
      </trkpt>
      <trkpt lat="44.56341" lon="5.774">
        <ele>1057.59</ele>
        <time>2017-05-25T13:29:23Z</time>
      </trkpt>
      <trkpt lat="44.56328" lon="5.77402">
        <ele>1057.11</ele>
        <time>2017-05-25T13:29:37Z</time>
      </trkpt>
      <trkpt lat="44.56318" lon="5.77395">
        <ele>1057.11</ele>
        <time>2017-05-25T13:29:51Z</time>
      </trkpt>
      <trkpt lat="44.56307" lon="5.77388">
        <ele>1057.11</ele>
        <time>2017-05-25T13:30:06Z</time>
      </trkpt>
      <trkpt lat="44.563" lon="5.77383">
        <ele>1057.11</ele>
        <time>2017-05-25T13:30:14Z</time>
      </trkpt>
      <trkpt lat="44.5629" lon="5.77368">
        <ele>1056.15</ele>
        <time>2017-05-25T13:30:30Z</time>
      </trkpt>
      <trkpt lat="44.56284" lon="5.7736">
        <ele>1055.18</ele>
        <time>2017-05-25T13:30:43Z</time>
      </trkpt>
      <trkpt lat="44.56277" lon="5.77353">
        <ele>1053.26</ele>
        <time>2017-05-25T13:30:57Z</time>
      </trkpt>
      <trkpt lat="44.56276" lon="5.77347">
        <ele>1052.3</ele>
        <time>2017-05-25T13:31:06Z</time>
      </trkpt>
      <trkpt lat="44.56271" lon="5.77338">
        <ele>1051.82</ele>
        <time>2017-05-25T13:31:21Z</time>
      </trkpt>
      <trkpt lat="44.56271" lon="5.77336">
        <ele>1051.34</ele>
        <time>2017-05-25T13:31:43Z</time>
      </trkpt>
      <trkpt lat="44.56275" lon="5.77342">
        <ele>1051.82</ele>
        <time>2017-05-25T13:32:02Z</time>
      </trkpt>
      <trkpt lat="44.5628" lon="5.77337">
        <ele>1053.26</ele>
        <time>2017-05-25T13:32:19Z</time>
      </trkpt>
      <trkpt lat="44.56285" lon="5.77327">
        <ele>1053.26</ele>
        <time>2017-05-25T13:32:36Z</time>
      </trkpt>
      <trkpt lat="44.56285" lon="5.77311">
        <ele>1052.3</ele>
        <time>2017-05-25T13:32:52Z</time>
      </trkpt>
      <trkpt lat="44.56284" lon="5.77298">
        <ele>1050.38</ele>
        <time>2017-05-25T13:33:06Z</time>
      </trkpt>
      <trkpt lat="44.56283" lon="5.77289">
        <ele>1048.45</ele>
        <time>2017-05-25T13:33:18Z</time>
      </trkpt>
      <trkpt lat="44.56284" lon="5.77277">
        <ele>1046.53</ele>
        <time>2017-05-25T13:33:32Z</time>
      </trkpt>
      <trkpt lat="44.56281" lon="5.77266">
        <ele>1044.13</ele>
        <time>2017-05-25T13:33:46Z</time>
      </trkpt>
      <trkpt lat="44.5628" lon="5.77254">
        <ele>1042.69</ele>
        <time>2017-05-25T13:33:59Z</time>
      </trkpt>
      <trkpt lat="44.56279" lon="5.77239">
        <ele>1039.8</ele>
        <time>2017-05-25T13:34:14Z</time>
      </trkpt>
      <trkpt lat="44.5628" lon="5.77234">
        <ele>1038.84</ele>
        <time>2017-05-25T13:34:20Z</time>
      </trkpt>
      <trkpt lat="44.56283" lon="5.77216">
        <ele>1036.44</ele>
        <time>2017-05-25T13:34:38Z</time>
      </trkpt>
      <trkpt lat="44.56289" lon="5.7719">
        <ele>1034.52</ele>
        <time>2017-05-25T13:34:56Z</time>
      </trkpt>
      <trkpt lat="44.56288" lon="5.77167">
        <ele>1032.11</ele>
        <time>2017-05-25T13:35:13Z</time>
      </trkpt>
      <trkpt lat="44.56289" lon="5.77157">
        <ele>1030.67</ele>
        <time>2017-05-25T13:35:27Z</time>
      </trkpt>
      <trkpt lat="44.5629" lon="5.77149">
        <ele>1029.71</ele>
        <time>2017-05-25T13:35:41Z</time>
      </trkpt>
      <trkpt lat="44.56291" lon="5.77138">
        <ele>1028.27</ele>
        <time>2017-05-25T13:35:57Z</time>
      </trkpt>
      <trkpt lat="44.56295" lon="5.77124">
        <ele>1025.86</ele>
        <time>2017-05-25T13:36:12Z</time>
      </trkpt>
      <trkpt lat="44.56294" lon="5.77112">
        <ele>1024.42</ele>
        <time>2017-05-25T13:36:26Z</time>
      </trkpt>
      <trkpt lat="44.56294" lon="5.77107">
        <ele>1023.46</ele>
        <time>2017-05-25T13:36:38Z</time>
      </trkpt>
      <trkpt lat="44.56295" lon="5.77101">
        <ele>1022.98</ele>
        <time>2017-05-25T13:36:50Z</time>
      </trkpt>
      <trkpt lat="44.56294" lon="5.77085">
        <ele>1019.62</ele>
        <time>2017-05-25T13:37:05Z</time>
      </trkpt>
      <trkpt lat="44.56294" lon="5.77084">
        <ele>1019.62</ele>
        <time>2017-05-25T13:37:06Z</time>
      </trkpt>
      <trkpt lat="44.56294" lon="5.77072">
        <ele>1017.21</ele>
        <time>2017-05-25T13:37:19Z</time>
      </trkpt>
      <trkpt lat="44.56294" lon="5.77059">
        <ele>1015.77</ele>
        <time>2017-05-25T13:37:35Z</time>
      </trkpt>
      <trkpt lat="44.56293" lon="5.7705">
        <ele>1013.85</ele>
        <time>2017-05-25T13:37:50Z</time>
      </trkpt>
      <trkpt lat="44.56294" lon="5.7704">
        <ele>1011.93</ele>
        <time>2017-05-25T13:38:03Z</time>
      </trkpt>
      <trkpt lat="44.56296" lon="5.77027">
        <ele>1008.56</ele>
        <time>2017-05-25T13:38:19Z</time>
      </trkpt>
      <trkpt lat="44.56296" lon="5.77012">
        <ele>1006.16</ele>
        <time>2017-05-25T13:38:34Z</time>
      </trkpt>
      <trkpt lat="44.56297" lon="5.76995">
        <ele>1003.27</ele>
        <time>2017-05-25T13:38:48Z</time>
      </trkpt>
      <trkpt lat="44.56302" lon="5.76981">
        <ele>1001.83</ele>
        <time>2017-05-25T13:39:01Z</time>
      </trkpt>
      <trkpt lat="44.56304" lon="5.76971">
        <ele>1000.39</ele>
        <time>2017-05-25T13:39:10Z</time>
      </trkpt>
      <trkpt lat="44.56309" lon="5.76959">
        <ele>998.95</ele>
        <time>2017-05-25T13:39:23Z</time>
      </trkpt>
      <trkpt lat="44.56316" lon="5.76943">
        <ele>997.99</ele>
        <time>2017-05-25T13:39:36Z</time>
      </trkpt>
      <trkpt lat="44.56318" lon="5.76941">
        <ele>997.02</ele>
        <time>2017-05-25T13:39:38Z</time>
      </trkpt>
      <trkpt lat="44.56324" lon="5.76929">
        <ele>996.06</ele>
        <time>2017-05-25T13:39:50Z</time>
      </trkpt>
      <trkpt lat="44.56331" lon="5.76916">
        <ele>994.62</ele>
        <time>2017-05-25T13:40:02Z</time>
      </trkpt>
      <trkpt lat="44.56332" lon="5.76912">
        <ele>993.66</ele>
        <time>2017-05-25T13:40:05Z</time>
      </trkpt>
      <trkpt lat="44.56338" lon="5.76897">
        <ele>992.22</ele>
        <time>2017-05-25T13:40:19Z</time>
      </trkpt>
      <trkpt lat="44.56343" lon="5.76889">
        <ele>990.78</ele>
        <time>2017-05-25T13:40:31Z</time>
      </trkpt>
      <trkpt lat="44.56349" lon="5.76877">
        <ele>988.85</ele>
        <time>2017-05-25T13:40:44Z</time>
      </trkpt>
      <trkpt lat="44.56352" lon="5.76862">
        <ele>986.45</ele>
        <time>2017-05-25T13:40:58Z</time>
      </trkpt>
      <trkpt lat="44.56357" lon="5.76851">
        <ele>984.53</ele>
        <time>2017-05-25T13:41:10Z</time>
      </trkpt>
      <trkpt lat="44.5636" lon="5.76844">
        <ele>982.6</ele>
        <time>2017-05-25T13:41:21Z</time>
      </trkpt>
      <trkpt lat="44.56363" lon="5.76832">
        <ele>981.64</ele>
        <time>2017-05-25T13:41:35Z</time>
      </trkpt>
      <trkpt lat="44.56366" lon="5.76816">
        <ele>980.2</ele>
        <time>2017-05-25T13:41:50Z</time>
      </trkpt>
      <trkpt lat="44.56366" lon="5.76807">
        <ele>978.76</ele>
        <time>2017-05-25T13:42:11Z</time>
      </trkpt>
      <trkpt lat="44.56369" lon="5.76785">
        <ele>976.84</ele>
        <time>2017-05-25T13:42:27Z</time>
      </trkpt>
      <trkpt lat="44.56372" lon="5.76774">
        <ele>975.39</ele>
        <time>2017-05-25T13:42:41Z</time>
      </trkpt>
      <trkpt lat="44.56373" lon="5.76759">
        <ele>972.99</ele>
        <time>2017-05-25T13:42:54Z</time>
      </trkpt>
      <trkpt lat="44.56376" lon="5.76743">
        <ele>971.07</ele>
        <time>2017-05-25T13:43:08Z</time>
      </trkpt>
      <trkpt lat="44.56376" lon="5.76728">
        <ele>968.67</ele>
        <time>2017-05-25T13:43:23Z</time>
      </trkpt>
      <trkpt lat="44.56377" lon="5.76719">
        <ele>967.22</ele>
        <time>2017-05-25T13:43:36Z</time>
      </trkpt>
      <trkpt lat="44.56379" lon="5.76712">
        <ele>966.26</ele>
        <time>2017-05-25T13:43:55Z</time>
      </trkpt>
      <trkpt lat="44.56381" lon="5.76702">
        <ele>964.82</ele>
        <time>2017-05-25T13:44:05Z</time>
      </trkpt>
      <trkpt lat="44.56383" lon="5.76698">
        <ele>964.34</ele>
        <time>2017-05-25T13:44:08Z</time>
      </trkpt>
      <trkpt lat="44.56385" lon="5.76684">
        <ele>961.94</ele>
        <time>2017-05-25T13:44:23Z</time>
      </trkpt>
      <trkpt lat="44.56386" lon="5.76674">
        <ele>960.49</ele>
        <time>2017-05-25T13:44:37Z</time>
      </trkpt>
      <trkpt lat="44.56387" lon="5.76659">
        <ele>958.09</ele>
        <time>2017-05-25T13:44:51Z</time>
      </trkpt>
      <trkpt lat="44.56391" lon="5.76643">
        <ele>956.17</ele>
        <time>2017-05-25T13:45:04Z</time>
      </trkpt>
      <trkpt lat="44.56398" lon="5.76626">
        <ele>952.8</ele>
        <time>2017-05-25T13:45:21Z</time>
      </trkpt>
      <trkpt lat="44.56401" lon="5.76618">
        <ele>951.84</ele>
        <time>2017-05-25T13:45:28Z</time>
      </trkpt>
      <trkpt lat="44.56403" lon="5.76615">
        <ele>951.36</ele>
        <time>2017-05-25T13:45:31Z</time>
      </trkpt>
      <trkpt lat="44.56412" lon="5.76596">
        <ele>949.44</ele>
        <time>2017-05-25T13:45:47Z</time>
      </trkpt>
      <trkpt lat="44.5642" lon="5.76581">
        <ele>947.52</ele>
        <time>2017-05-25T13:46:00Z</time>
      </trkpt>
      <trkpt lat="44.5643" lon="5.76567">
        <ele>946.56</ele>
        <time>2017-05-25T13:46:14Z</time>
      </trkpt>
      <trkpt lat="44.5644" lon="5.7655">
        <ele>946.07</ele>
        <time>2017-05-25T13:46:29Z</time>
      </trkpt>
      <trkpt lat="44.56448" lon="5.76535">
        <ele>945.59</ele>
        <time>2017-05-25T13:46:44Z</time>
      </trkpt>
      <trkpt lat="44.56452" lon="5.76528">
        <ele>945.59</ele>
        <time>2017-05-25T13:46:51Z</time>
      </trkpt>
      <trkpt lat="44.56459" lon="5.76511">
        <ele>945.11</ele>
        <time>2017-05-25T13:47:05Z</time>
      </trkpt>
      <trkpt lat="44.56467" lon="5.76495">
        <ele>944.15</ele>
        <time>2017-05-25T13:47:19Z</time>
      </trkpt>
      <trkpt lat="44.56471" lon="5.76484">
        <ele>943.67</ele>
        <time>2017-05-25T13:47:27Z</time>
      </trkpt>
      <trkpt lat="44.56477" lon="5.76459">
        <ele>941.75</ele>
        <time>2017-05-25T13:47:43Z</time>
      </trkpt>
      <trkpt lat="44.56482" lon="5.76442">
        <ele>939.83</ele>
        <time>2017-05-25T13:47:56Z</time>
      </trkpt>
      <trkpt lat="44.56487" lon="5.76428">
        <ele>939.35</ele>
        <time>2017-05-25T13:48:07Z</time>
      </trkpt>
      <trkpt lat="44.56497" lon="5.76411">
        <ele>937.9</ele>
        <time>2017-05-25T13:48:21Z</time>
      </trkpt>
      <trkpt lat="44.56508" lon="5.764">
        <ele>936.46</ele>
        <time>2017-05-25T13:48:35Z</time>
      </trkpt>
      <trkpt lat="44.56519" lon="5.76397">
        <ele>934.06</ele>
        <time>2017-05-25T13:48:47Z</time>
      </trkpt>
      <trkpt lat="44.56527" lon="5.76394">
        <ele>933.1</ele>
        <time>2017-05-25T13:48:55Z</time>
      </trkpt>
      <trkpt lat="44.5653" lon="5.76385">
        <ele>933.1</ele>
        <time>2017-05-25T13:49:01Z</time>
      </trkpt>
      <trkpt lat="44.56531" lon="5.76353">
        <ele>933.1</ele>
        <time>2017-05-25T13:49:20Z</time>
      </trkpt>
      <trkpt lat="44.56531" lon="5.76326">
        <ele>932.62</ele>
        <time>2017-05-25T13:49:37Z</time>
      </trkpt>
      <trkpt lat="44.56534" lon="5.76303">
        <ele>932.62</ele>
        <time>2017-05-25T13:49:52Z</time>
      </trkpt>
      <trkpt lat="44.5654" lon="5.76283">
        <ele>931.65</ele>
        <time>2017-05-25T13:50:06Z</time>
      </trkpt>
      <trkpt lat="44.56546" lon="5.76271">
        <ele>931.17</ele>
        <time>2017-05-25T13:50:15Z</time>
      </trkpt>
      <trkpt lat="44.56557" lon="5.76257">
        <ele>931.17</ele>
        <time>2017-05-25T13:50:28Z</time>
      </trkpt>
      <trkpt lat="44.56565" lon="5.76246">
        <ele>930.21</ele>
        <time>2017-05-25T13:50:38Z</time>
      </trkpt>
      <trkpt lat="44.56575" lon="5.76232">
        <ele>929.73</ele>
        <time>2017-05-25T13:50:51Z</time>
      </trkpt>
      <trkpt lat="44.56587" lon="5.76218">
        <ele>927.81</ele>
        <time>2017-05-25T13:51:05Z</time>
      </trkpt>
      <trkpt lat="44.56589" lon="5.76214">
        <ele>927.81</ele>
        <time>2017-05-25T13:51:08Z</time>
      </trkpt>
      <trkpt lat="44.56595" lon="5.76199">
        <ele>925.89</ele>
        <time>2017-05-25T13:51:19Z</time>
      </trkpt>
      <trkpt lat="44.56607" lon="5.76183">
        <ele>923</ele>
        <time>2017-05-25T13:51:35Z</time>
      </trkpt>
      <trkpt lat="44.56616" lon="5.76165">
        <ele>920.12</ele>
        <time>2017-05-25T13:51:50Z</time>
      </trkpt>
      <trkpt lat="44.56622" lon="5.76158">
        <ele>919.16</ele>
        <time>2017-05-25T13:51:57Z</time>
      </trkpt>
      <trkpt lat="44.56624" lon="5.76153">
        <ele>918.68</ele>
        <time>2017-05-25T13:52:01Z</time>
      </trkpt>
      <trkpt lat="44.56625" lon="5.76149">
        <ele>918.2</ele>
        <time>2017-05-25T13:52:04Z</time>
      </trkpt>
      <trkpt lat="44.56629" lon="5.76134">
        <ele>916.75</ele>
        <time>2017-05-25T13:52:14Z</time>
      </trkpt>
      <trkpt lat="44.56637" lon="5.76113">
        <ele>914.83</ele>
        <time>2017-05-25T13:52:29Z</time>
      </trkpt>
      <trkpt lat="44.56641" lon="5.76102">
        <ele>913.87</ele>
        <time>2017-05-25T13:52:38Z</time>
      </trkpt>
      <trkpt lat="44.56649" lon="5.76084">
        <ele>911.95</ele>
        <time>2017-05-25T13:52:53Z</time>
      </trkpt>
      <trkpt lat="44.56658" lon="5.76068">
        <ele>909.54</ele>
        <time>2017-05-25T13:53:08Z</time>
      </trkpt>
      <trkpt lat="44.56664" lon="5.76052">
        <ele>907.14</ele>
        <time>2017-05-25T13:53:22Z</time>
      </trkpt>
      <trkpt lat="44.5667" lon="5.76035">
        <ele>904.26</ele>
        <time>2017-05-25T13:53:38Z</time>
      </trkpt>
      <trkpt lat="44.56675" lon="5.76022">
        <ele>902.33</ele>
        <time>2017-05-25T13:53:50Z</time>
      </trkpt>
      <trkpt lat="44.56677" lon="5.76016">
        <ele>901.37</ele>
        <time>2017-05-25T13:53:55Z</time>
      </trkpt>
      <trkpt lat="44.56681" lon="5.76008">
        <ele>900.89</ele>
        <time>2017-05-25T13:54:07Z</time>
      </trkpt>
      <trkpt lat="44.56692" lon="5.75989">
        <ele>898.01</ele>
        <time>2017-05-25T13:54:23Z</time>
      </trkpt>
      <trkpt lat="44.56703" lon="5.75971">
        <ele>896.09</ele>
        <time>2017-05-25T13:54:39Z</time>
      </trkpt>
      <trkpt lat="44.56707" lon="5.75959">
        <ele>893.68</ele>
        <time>2017-05-25T13:54:48Z</time>
      </trkpt>
      <trkpt lat="44.56703" lon="5.75939">
        <ele>890.8</ele>
        <time>2017-05-25T13:55:03Z</time>
      </trkpt>
      <trkpt lat="44.56696" lon="5.75919">
        <ele>888.4</ele>
        <time>2017-05-25T13:55:19Z</time>
      </trkpt>
      <trkpt lat="44.56689" lon="5.759">
        <ele>885.03</ele>
        <time>2017-05-25T13:55:35Z</time>
      </trkpt>
      <trkpt lat="44.56684" lon="5.75879">
        <ele>882.63</ele>
        <time>2017-05-25T13:55:53Z</time>
      </trkpt>
      <trkpt lat="44.56682" lon="5.75862">
        <ele>880.71</ele>
        <time>2017-05-25T13:56:06Z</time>
      </trkpt>
      <trkpt lat="44.56683" lon="5.75849">
        <ele>879.26</ele>
        <time>2017-05-25T13:56:15Z</time>
      </trkpt>
      <trkpt lat="44.56684" lon="5.75842">
        <ele>878.78</ele>
        <time>2017-05-25T13:56:20Z</time>
      </trkpt>
      <trkpt lat="44.56688" lon="5.7583">
        <ele>877.34</ele>
        <time>2017-05-25T13:56:32Z</time>
      </trkpt>
      <trkpt lat="44.56694" lon="5.7582">
        <ele>876.38</ele>
        <time>2017-05-25T13:56:40Z</time>
      </trkpt>
      <trkpt lat="44.56703" lon="5.75806">
        <ele>875.42</ele>
        <time>2017-05-25T13:56:53Z</time>
      </trkpt>
      <trkpt lat="44.56707" lon="5.758">
        <ele>874.94</ele>
        <time>2017-05-25T13:56:58Z</time>
      </trkpt>
      <trkpt lat="44.56708" lon="5.75794">
        <ele>874.46</ele>
        <time>2017-05-25T13:57:02Z</time>
      </trkpt>
      <trkpt lat="44.56716" lon="5.75776">
        <ele>873.5</ele>
        <time>2017-05-25T13:57:16Z</time>
      </trkpt>
      <trkpt lat="44.56723" lon="5.75758">
        <ele>873.01</ele>
        <time>2017-05-25T13:57:30Z</time>
      </trkpt>
      <trkpt lat="44.56724" lon="5.75755">
        <ele>873.01</ele>
        <time>2017-05-25T13:57:32Z</time>
      </trkpt>
      <trkpt lat="44.56719" lon="5.75734">
        <ele>870.13</ele>
        <time>2017-05-25T13:57:47Z</time>
      </trkpt>
      <trkpt lat="44.56718" lon="5.75728">
        <ele>869.17</ele>
        <time>2017-05-25T13:57:52Z</time>
      </trkpt>
      <trkpt lat="44.56706" lon="5.75709">
        <ele>866.29</ele>
        <time>2017-05-25T13:58:09Z</time>
      </trkpt>
      <trkpt lat="44.56704" lon="5.75705">
        <ele>865.8</ele>
        <time>2017-05-25T13:58:12Z</time>
      </trkpt>
      <trkpt lat="44.56702" lon="5.75693">
        <ele>864.36</ele>
        <time>2017-05-25T13:58:28Z</time>
      </trkpt>
      <trkpt lat="44.56704" lon="5.75693">
        <ele>863.4</ele>
        <time>2017-05-25T13:58:43Z</time>
      </trkpt>
      <trkpt lat="44.56704" lon="5.75692">
        <ele>862.92</ele>
        <time>2017-05-25T13:58:56Z</time>
      </trkpt>
      <trkpt lat="44.56706" lon="5.75692">
        <ele>862.92</ele>
        <time>2017-05-25T13:59:41Z</time>
      </trkpt>
      <trkpt lat="44.56705" lon="5.75693">
        <ele>863.88</ele>
        <time>2017-05-25T14:00:09Z</time>
      </trkpt>
      <trkpt lat="44.56701" lon="5.75694">
        <ele>864.36</ele>
        <time>2017-05-25T14:00:25Z</time>
      </trkpt>
      <trkpt lat="44.567" lon="5.7569">
        <ele>864.36</ele>
        <time>2017-05-25T14:00:55Z</time>
      </trkpt>
      <trkpt lat="44.567" lon="5.75693">
        <ele>864.36</ele>
        <time>2017-05-25T14:01:29Z</time>
      </trkpt>
      <trkpt lat="44.567" lon="5.75686">
        <ele>865.8</ele>
        <time>2017-05-25T14:02:03Z</time>
      </trkpt>
      <trkpt lat="44.567" lon="5.75688">
        <ele>864.36</ele>
        <time>2017-05-25T14:02:27Z</time>
      </trkpt>
      <trkpt lat="44.56701" lon="5.75677">
        <ele>862.92</ele>
        <time>2017-05-25T14:02:45Z</time>
      </trkpt>
      <trkpt lat="44.56703" lon="5.75658">
        <ele>861</ele>
        <time>2017-05-25T14:03:01Z</time>
      </trkpt>
      <trkpt lat="44.56703" lon="5.75647">
        <ele>860.04</ele>
        <time>2017-05-25T14:03:23Z</time>
      </trkpt>
      <trkpt lat="44.56699" lon="5.75622">
        <ele>857.15</ele>
        <time>2017-05-25T14:03:40Z</time>
      </trkpt>
      <trkpt lat="44.56689" lon="5.75606">
        <ele>854.75</ele>
        <time>2017-05-25T14:03:55Z</time>
      </trkpt>
      <trkpt lat="44.56681" lon="5.75589">
        <ele>852.83</ele>
        <time>2017-05-25T14:04:07Z</time>
      </trkpt>
      <trkpt lat="44.56679" lon="5.7558">
        <ele>851.87</ele>
        <time>2017-05-25T14:04:12Z</time>
      </trkpt>
      <trkpt lat="44.5668" lon="5.75565">
        <ele>850.42</ele>
        <time>2017-05-25T14:04:21Z</time>
      </trkpt>
      <trkpt lat="44.56682" lon="5.75558">
        <ele>849.94</ele>
        <time>2017-05-25T14:04:25Z</time>
      </trkpt>
      <trkpt lat="44.56683" lon="5.75536">
        <ele>848.02</ele>
        <time>2017-05-25T14:04:39Z</time>
      </trkpt>
      <trkpt lat="44.56677" lon="5.75512">
        <ele>847.06</ele>
        <time>2017-05-25T14:04:55Z</time>
      </trkpt>
      <trkpt lat="44.56671" lon="5.75501">
        <ele>846.1</ele>
        <time>2017-05-25T14:05:04Z</time>
      </trkpt>
      <trkpt lat="44.56668" lon="5.75496">
        <ele>846.1</ele>
        <time>2017-05-25T14:05:08Z</time>
      </trkpt>
      <trkpt lat="44.56667" lon="5.75485">
        <ele>845.62</ele>
        <time>2017-05-25T14:05:15Z</time>
      </trkpt>
      <trkpt lat="44.56662" lon="5.75478">
        <ele>845.14</ele>
        <time>2017-05-25T14:05:21Z</time>
      </trkpt>
      <trkpt lat="44.56656" lon="5.75459">
        <ele>844.66</ele>
        <time>2017-05-25T14:05:36Z</time>
      </trkpt>
      <trkpt lat="44.56656" lon="5.75458">
        <ele>844.66</ele>
        <time>2017-05-25T14:05:37Z</time>
      </trkpt>
      <trkpt lat="44.56657" lon="5.75454">
        <ele>845.62</ele>
        <time>2017-05-25T14:05:48Z</time>
      </trkpt>
      <trkpt lat="44.56653" lon="5.75447">
        <ele>844.18</ele>
        <time>2017-05-25T14:05:53Z</time>
      </trkpt>
      <trkpt lat="44.56653" lon="5.75444">
        <ele>843.69</ele>
        <time>2017-05-25T14:05:55Z</time>
      </trkpt>
      <trkpt lat="44.56653" lon="5.7544">
        <ele>843.69</ele>
        <time>2017-05-25T14:05:57Z</time>
      </trkpt>
      <trkpt lat="44.56659" lon="5.75414">
        <ele>843.69</ele>
        <time>2017-05-25T14:06:15Z</time>
      </trkpt>
      <trkpt lat="44.56665" lon="5.75381">
        <ele>844.18</ele>
        <time>2017-05-25T14:06:36Z</time>
      </trkpt>
      <trkpt lat="44.5667" lon="5.75343">
        <ele>844.18</ele>
        <time>2017-05-25T14:07:00Z</time>
      </trkpt>
      <trkpt lat="44.56673" lon="5.75313">
        <ele>844.18</ele>
        <time>2017-05-25T14:07:20Z</time>
      </trkpt>
      <trkpt lat="44.56675" lon="5.75283">
        <ele>846.1</ele>
        <time>2017-05-25T14:07:39Z</time>
      </trkpt>
      <trkpt lat="44.56679" lon="5.75251">
        <ele>845.62</ele>
        <time>2017-05-25T14:07:59Z</time>
      </trkpt>
      <trkpt lat="44.56682" lon="5.75225">
        <ele>845.62</ele>
        <time>2017-05-25T14:08:16Z</time>
      </trkpt>
      <trkpt lat="44.56686" lon="5.75209">
        <ele>846.58</ele>
        <time>2017-05-25T14:08:25Z</time>
      </trkpt>
      <trkpt lat="44.56686" lon="5.75203">
        <ele>846.1</ele>
        <time>2017-05-25T14:08:28Z</time>
      </trkpt>
      <trkpt lat="44.56689" lon="5.75174">
        <ele>846.1</ele>
        <time>2017-05-25T14:08:45Z</time>
      </trkpt>
      <trkpt lat="44.56691" lon="5.75164">
        <ele>846.58</ele>
        <time>2017-05-25T14:08:51Z</time>
      </trkpt>
      <trkpt lat="44.56692" lon="5.75149">
        <ele>846.1</ele>
        <time>2017-05-25T14:09:00Z</time>
      </trkpt>
      <trkpt lat="44.56694" lon="5.7514">
        <ele>846.58</ele>
        <time>2017-05-25T14:09:06Z</time>
      </trkpt>
      <trkpt lat="44.56697" lon="5.75119">
        <ele>847.06</ele>
        <time>2017-05-25T14:09:20Z</time>
      </trkpt>
      <trkpt lat="44.56699" lon="5.75094">
        <ele>847.06</ele>
        <time>2017-05-25T14:09:35Z</time>
      </trkpt>
      <trkpt lat="44.56701" lon="5.75079">
        <ele>847.06</ele>
        <time>2017-05-25T14:09:45Z</time>
      </trkpt>
      <trkpt lat="44.56702" lon="5.75074">
        <ele>847.06</ele>
        <time>2017-05-25T14:09:48Z</time>
      </trkpt>
      <trkpt lat="44.56702" lon="5.75068">
        <ele>847.06</ele>
        <time>2017-05-25T14:09:51Z</time>
      </trkpt>
      <trkpt lat="44.56705" lon="5.75042">
        <ele>847.54</ele>
        <time>2017-05-25T14:10:08Z</time>
      </trkpt>
      <trkpt lat="44.56705" lon="5.75039">
        <ele>847.54</ele>
        <time>2017-05-25T14:10:10Z</time>
      </trkpt>
      <trkpt lat="44.56707" lon="5.75017">
        <ele>847.06</ele>
        <time>2017-05-25T14:10:25Z</time>
      </trkpt>
      <trkpt lat="44.56705" lon="5.75">
        <ele>847.06</ele>
        <time>2017-05-25T14:10:40Z</time>
      </trkpt>
      <trkpt lat="44.56705" lon="5.74998">
        <ele>847.06</ele>
        <time>2017-05-25T14:10:49Z</time>
      </trkpt>
      <trkpt lat="44.56704" lon="5.74996">
        <ele>847.06</ele>
        <time>2017-05-25T14:11:03Z</time>
      </trkpt>
      <trkpt lat="44.56705" lon="5.74992">
        <ele>846.58</ele>
        <time>2017-05-25T14:11:17Z</time>
      </trkpt>
      <trkpt lat="44.56705" lon="5.7499">
        <ele>847.06</ele>
        <time>2017-05-25T14:11:35Z</time>
      </trkpt>
    </trkseg>
  </trk>
</gpx>